Wetterdaten: Mittwoch, 25.10.2017
Datum Zeit Temp. A. Pool Temp. Feuchte A. Luftdruck Regen Wind Richtung Richtung Sonnenschein ET UV Solar Taupunkt Windchill Windben Empfang
25.10.2017 00:00 9,2 C 10,6 C 91 % 1025,7 hPa 0,0 l/m 4,8 km/h (1 Bft) S-SO 166 0 min 0,000 mm 0,0 UV-I 0 W/m 7,8 C 9,2 C 6,4 km/h (2 Bft) 100,00 %
25.10.2017 00:02 9,2 C 10,6 C 91 % 1025,7 hPa 0,0 l/m 3,3 km/h (1 Bft) S 170 0 min 0,000 mm 0,0 UV-I 0 W/m 7,8 C 9,2 C 6,4 km/h (2 Bft) 100,00 %
25.10.2017 00:04 9,2 C 10,6 C 91 % 1025,7 hPa 0,0 l/m 2,9 km/h (1 Bft) S 191 0 min 0,000 mm 0,0 UV-I 0 W/m 7,8 C 9,2 C 6,4 km/h (2 Bft) 100,00 %
25.10.2017 00:06 9,2 C 10,6 C 91 % 1025,7 hPa 0,0 l/m 2,4 km/h (1 Bft) S 190 0 min 0,000 mm 0,0 UV-I 0 W/m 7,8 C 9,2 C 4,8 km/h (1 Bft) 97,56 %
25.10.2017 00:08 9,2 C 10,6 C 91 % 1025,7 hPa 0,0 l/m 3,4 km/h (1 Bft) S 189 0 min 0,000 mm 0,0 UV-I 0 W/m 7,8 C 9,2 C 6,4 km/h (2 Bft) 100,00 %
25.10.2017 00:10 9,2 C 10,6 C 91 % 1025,7 hPa 0,0 l/m 2,5 km/h (1 Bft) S 173 0 min 0,000 mm 0,0 UV-I 0 W/m 7,8 C 9,2 C 4,8 km/h (1 Bft) 97,73 %
25.10.2017 00:12 9,2 C 10,6 C 91 % 1025,6 hPa 0,0 l/m 4,0 km/h (1 Bft) S 178 0 min 0,000 mm 0,0 UV-I 0 W/m 7,8 C 9,2 C 6,4 km/h (2 Bft) 100,00 %
25.10.2017 00:14 9,2 C 10,6 C 91 % 1025,6 hPa 0,0 l/m 2,4 km/h (1 Bft) S 169 0 min 0,000 mm 0,0 UV-I 0 W/m 7,8 C 9,2 C 6,4 km/h (2 Bft) 100,00 %
25.10.2017 00:16 9,3 C 10,6 C 91 % 1025,6 hPa 0,0 l/m 4,4 km/h (1 Bft) S-SW 193 0 min 0,000 mm 0,0 UV-I 0 W/m 7,9 C 9,3 C 8,0 km/h (2 Bft) 100,00 %
25.10.2017 00:18 9,3 C 10,6 C 91 % 1025,6 hPa 0,0 l/m 2,7 km/h (1 Bft) S-SW 192 0 min 0,000 mm 0,0 UV-I 0 W/m 7,9 C 9,3 C 4,8 km/h (1 Bft) 94,74 %
25.10.2017 00:20 9,3 C 10,6 C 91 % 1025,6 hPa 0,0 l/m 3,3 km/h (1 Bft) S-SW 192 0 min 0,000 mm 0,0 UV-I 0 W/m 7,9 C 9,3 C 4,8 km/h (1 Bft) 100,00 %
25.10.2017 00:22 9,3 C 10,6 C 91 % 1025,6 hPa 0,0 l/m 4,1 km/h (1 Bft) S-SW 200 0 min 0,000 mm 0,0 UV-I 0 W/m 7,9 C 9,3 C 8,0 km/h (2 Bft) 100,00 %
25.10.2017 00:24 9,3 C 10,6 C 91 % 1025,6 hPa 0,0 l/m 3,5 km/h (1 Bft) S-SW 196 0 min 0,000 mm 0,0 UV-I 0 W/m 7,9 C 9,3 C 6,4 km/h (2 Bft) 100,00 %
25.10.2017 00:26 9,4 C 10,6 C 91 % 1025,5 hPa 0,0 l/m 3,4 km/h (1 Bft) S 189 0 min 0,000 mm 0,0 UV-I 0 W/m 8,0 C 9,4 C 6,4 km/h (2 Bft) 100,00 %
25.10.2017 00:28 9,4 C 10,6 C 90 % 1025,5 hPa 0,0 l/m 3,6 km/h (1 Bft) S 188 0 min 0,000 mm 0,0 UV-I 0 W/m 7,8 C 9,4 C 6,4 km/h (2 Bft) 97,87 %
25.10.2017 00:30 9,4 C 10,6 C 90 % 1025,5 hPa 0,0 l/m 4,2 km/h (1 Bft) S-SW 204 0 min 0,000 mm 0,0 UV-I 0 W/m 7,8 C 9,4 C 6,4 km/h (2 Bft) 100,00 %
25.10.2017 00:32 9,4 C 10,6 C 90 % 1025,5 hPa 0,0 l/m 4,2 km/h (1 Bft) S-SW 204 0 min 0,000 mm 0,0 UV-I 0 W/m 7,8 C 9,4 C 4,8 km/h (1 Bft) 100,00 %
25.10.2017 00:34 9,4 C 10,6 C 90 % 1025,5 hPa 0,0 l/m 4,5 km/h (1 Bft) S-SW 205 0 min 0,000 mm 0,0 UV-I 0 W/m 7,8 C 9,4 C 6,4 km/h (2 Bft) 100,00 %
25.10.2017 00:36 9,4 C 10,6 C 90 % 1025,5 hPa 0,0 l/m 3,6 km/h (1 Bft) S-SW 203 0 min 0,000 mm 0,0 UV-I 0 W/m 7,8 C 9,4 C 4,8 km/h (1 Bft) 100,00 %
25.10.2017 00:38 9,4 C 10,6 C 90 % 1025,5 hPa 0,0 l/m 4,8 km/h (1 Bft) S-SW 205 0 min 0,000 mm 0,0 UV-I 0 W/m 7,8 C 9,4 C 6,4 km/h (2 Bft) 100,00 %
25.10.2017 00:40 9,5 C 10,6 C 90 % 1025,5 hPa 0,0 l/m 4,3 km/h (1 Bft) S 191 0 min 0,000 mm 0,0 UV-I 0 W/m 7,9 C 9,5 C 6,4 km/h (2 Bft) 100,00 %
25.10.2017 00:42 9,5 C 10,6 C 90 % 1025,5 hPa 0,0 l/m 3,6 km/h (1 Bft) S 191 0 min 0,000 mm 0,0 UV-I 0 W/m 7,9 C 9,5 C 4,8 km/h (1 Bft) 100,00 %
25.10.2017 00:44 9,5 C 10,6 C 90 % 1025,5 hPa 0,0 l/m 3,4 km/h (1 Bft) S 191 0 min 0,000 mm 0,0 UV-I 0 W/m 7,9 C 9,5 C 4,8 km/h (1 Bft) 100,00 %
25.10.2017 00:46 9,5 C 10,6 C 90 % 1025,5 hPa 0,0 l/m 3,3 km/h (1 Bft) S-SW 195 0 min 0,000 mm 0,0 UV-I 0 W/m 7,9 C 9,5 C 6,4 km/h (2 Bft) 100,00 %
25.10.2017 00:48 9,5 C 10,6 C 90 % 1025,5 hPa 0,0 l/m 2,6 km/h (1 Bft) S-SW 193 0 min 0,000 mm 0,0 UV-I 0 W/m 7,9 C 9,5 C 6,4 km/h (2 Bft) 100,00 %
25.10.2017 00:50 9,5 C 10,6 C 90 % 1025,5 hPa 0,0 l/m 3,3 km/h (1 Bft) S 191 0 min 0,000 mm 0,0 UV-I 0 W/m 7,9 C 9,5 C 4,8 km/h (1 Bft) 100,00 %
25.10.2017 00:52 9,6 C 10,6 C 90 % 1025,5 hPa 0,0 l/m 3,3 km/h (1 Bft) S 190 0 min 0,000 mm 0,0 UV-I 0 W/m 8,0 C 9,6 C 4,8 km/h (1 Bft) 100,00 %
25.10.2017 00:54 9,6 C 10,6 C 90 % 1025,4 hPa 0,0 l/m 3,8 km/h (1 Bft) S 191 0 min 0,000 mm 0,0 UV-I 0 W/m 8,0 C 9,6 C 4,8 km/h (1 Bft) 97,37 %
25.10.2017 00:56 9,6 C 10,6 C 90 % 1025,5 hPa 0,0 l/m 2,7 km/h (1 Bft) S 191 0 min 0,000 mm 0,0 UV-I 0 W/m 8,0 C 9,6 C 4,8 km/h (1 Bft) 98,11 %
25.10.2017 00:58 9,6 C 10,6 C 90 % 1025,5 hPa 0,0 l/m 4,0 km/h (1 Bft) S-SW 202 0 min 0,000 mm 0,0 UV-I 0 W/m 8,0 C 9,6 C 6,4 km/h (2 Bft) 100,00 %
25.10.2017 01:00 9,6 C 10,6 C 90 % 1025,5 hPa 0,0 l/m 4,0 km/h (1 Bft) S-SW 202 0 min 0,000 mm 0,0 UV-I 0 W/m 8,0 C 9,6 C 6,4 km/h (2 Bft) 98,00 %
25.10.2017 01:02 9,6 C 10,6 C 90 % 1025,4 hPa 0,0 l/m 3,6 km/h (1 Bft) S-SW 202 0 min 0,000 mm 0,0 UV-I 0 W/m 8,0 C 9,6 C 6,4 km/h (2 Bft) 91,49 %
25.10.2017 01:04 9,6 C 10,6 C 90 % 1025,4 hPa 0,0 l/m 4,6 km/h (1 Bft) S-SW 199 0 min 0,000 mm 0,0 UV-I 0 W/m 8,0 C 9,6 C 6,4 km/h (2 Bft) 96,23 %
25.10.2017 01:06 9,6 C 10,6 C 90 % 1025,3 hPa 0,0 l/m 4,8 km/h (1 Bft) S 190 0 min 0,000 mm 0,0 UV-I 0 W/m 8,0 C 9,6 C 8,0 km/h (2 Bft) 91,49 %
25.10.2017 01:08 9,6 C 10,6 C 90 % 1025,3 hPa 0,0 l/m 4,5 km/h (1 Bft) S 190 0 min 0,000 mm 0,0 UV-I 0 W/m 8,0 C 9,6 C 6,4 km/h (2 Bft) 94,74 %
25.10.2017 01:10 9,6 C 10,6 C 90 % 1025,3 hPa 0,0 l/m 4,9 km/h (1 Bft) S-SW 194 0 min 0,000 mm 0,0 UV-I 0 W/m 8,0 C 9,6 C 6,4 km/h (2 Bft) 94,00 %
25.10.2017 01:12 9,6 C 10,6 C 90 % 1025,3 hPa 0,0 l/m 2,9 km/h (1 Bft) S-SW 194 0 min 0,000 mm 0,0 UV-I 0 W/m 8,0 C 9,6 C 6,4 km/h (2 Bft) 96,00 %
25.10.2017 01:14 9,6 C 10,6 C 90 % 1025,3 hPa 0,0 l/m 3,4 km/h (1 Bft) S 175 0 min 0,000 mm 0,0 UV-I 0 W/m 8,0 C 9,6 C 6,4 km/h (2 Bft) 95,74 %
25.10.2017 01:16 9,6 C 10,6 C 90 % 1025,3 hPa 0,0 l/m 3,4 km/h (1 Bft) S 175 0 min 0,000 mm 0,0 UV-I 0 W/m 8,0 C 9,6 C 6,4 km/h (2 Bft) 94,74 %
25.10.2017 01:18 9,7 C 10,6 C 89 % 1025,3 hPa 0,0 l/m 3,9 km/h (1 Bft) S-SW 202 0 min 0,000 mm 0,0 UV-I 0 W/m 8,0 C 9,7 C 6,4 km/h (2 Bft) 94,64 %
25.10.2017 01:20 9,6 C 10,6 C 89 % 1025,3 hPa 0,0 l/m 3,9 km/h (1 Bft) S-SW 202 0 min 0,000 mm 0,0 UV-I 0 W/m 7,9 C 9,6 C 6,4 km/h (2 Bft) 95,74 %
25.10.2017 01:22 9,7 C 10,6 C 89 % 1025,2 hPa 0,0 l/m 4,4 km/h (1 Bft) S-SW 193 0 min 0,000 mm 0,0 UV-I 0 W/m 8,0 C 9,7 C 6,4 km/h (2 Bft) 94,87 %
25.10.2017 01:24 9,7 C 10,6 C 89 % 1025,2 hPa 0,0 l/m 4,4 km/h (1 Bft) S 191 0 min 0,000 mm 0,0 UV-I 0 W/m 8,0 C 9,7 C 8,0 km/h (2 Bft) 94,00 %
25.10.2017 01:26 9,7 C 10,6 C 89 % 1025,1 hPa 0,0 l/m 4,9 km/h (1 Bft) S-SW 197 0 min 0,000 mm 0,0 UV-I 0 W/m 8,0 C 9,7 C 6,4 km/h (2 Bft) 94,00 %
25.10.2017 01:28 9,7 C 10,6 C 89 % 1025,2 hPa 0,0 l/m 4,4 km/h (1 Bft) S 173 0 min 0,000 mm 0,0 UV-I 0 W/m 8,0 C 9,7 C 6,4 km/h (2 Bft) 94,00 %
25.10.2017 01:30 9,7 C 10,6 C 89 % 1025,1 hPa 0,0 l/m 4,2 km/h (1 Bft) S 188 0 min 0,000 mm 0,0 UV-I 0 W/m 8,0 C 9,7 C 6,4 km/h (2 Bft) 94,74 %
25.10.2017 01:32 9,7 C 10,6 C 89 % 1025,1 hPa 0,0 l/m 4,4 km/h (1 Bft) S 191 0 min 0,000 mm 0,0 UV-I 0 W/m 8,0 C 9,7 C 6,4 km/h (2 Bft) 93,62 %
25.10.2017 01:34 9,7 C 10,6 C 89 % 1025,1 hPa 0,0 l/m 2,8 km/h (1 Bft) S 191 0 min 0,000 mm 0,0 UV-I 0 W/m 8,0 C 9,7 C 4,8 km/h (1 Bft) 96,23 %
25.10.2017 01:36 9,7 C 10,6 C 89 % 1025,1 hPa 0,0 l/m 2,6 km/h (1 Bft) S 191 0 min 0,000 mm 0,0 UV-I 0 W/m 8,0 C 9,7 C 4,8 km/h (1 Bft) 95,74 %
25.10.2017 01:38 9,7 C 10,6 C 89 % 1025,2 hPa 0,0 l/m 2,1 km/h (1 Bft) S 191 0 min 0,000 mm 0,0 UV-I 0 W/m 8,0 C 9,7 C 4,8 km/h (1 Bft) 98,00 %
25.10.2017 01:40 9,7 C 10,6 C 89 % 1025,1 hPa 0,0 l/m 2,8 km/h (1 Bft) S-SO 158 0 min 0,000 mm 0,0 UV-I 0 W/m 8,0 C 9,7 C 3,2 km/h (1 Bft) 94,74 %
25.10.2017 01:42 9,7 C 10,6 C 89 % 1025,1 hPa 0,0 l/m 3,0 km/h (1 Bft) S 176 0 min 0,000 mm 0,0 UV-I 0 W/m 8,0 C 9,7 C 6,4 km/h (2 Bft) 97,87 %
25.10.2017 01:44 9,8 C 10,6 C 89 % 1025,1 hPa 0,0 l/m 2,5 km/h (1 Bft) S 176 0 min 0,000 mm 0,0 UV-I 0 W/m 8,1 C 9,8 C 4,8 km/h (1 Bft) 97,87 %
25.10.2017 01:46 9,8 C 10,6 C 89 % 1025,1 hPa 0,0 l/m 2,0 km/h (1 Bft) S 176 0 min 0,000 mm 0,0 UV-I 0 W/m 8,1 C 9,8 C 3,2 km/h (1 Bft) 97,87 %
25.10.2017 01:48 9,8 C 10,6 C 89 % 1025,0 hPa 0,0 l/m 2,6 km/h (1 Bft) S 177 0 min 0,000 mm 0,0 UV-I 0 W/m 8,1 C 9,8 C 4,8 km/h (1 Bft) 97,73 %
25.10.2017 01:50 9,8 C 10,6 C 89 % 1025,1 hPa 0,0 l/m 1,7 km/h (1 Bft) S 177 0 min 0,000 mm 0,0 UV-I 0 W/m 8,1 C 9,8 C 3,2 km/h (1 Bft) 91,49 %
25.10.2017 01:52 9,8 C 10,6 C 89 % 1025,1 hPa 0,0 l/m 2,9 km/h (1 Bft) S 177 0 min 0,000 mm 0,0 UV-I 0 W/m 8,1 C 9,8 C 4,8 km/h (1 Bft) 98,11 %
25.10.2017 01:54 9,8 C 10,6 C 89 % 1025,1 hPa 0,0 l/m 1,1 km/h (1 Bft) S 177 0 min 0,000 mm 0,0 UV-I 0 W/m 8,1 C 9,8 C 3,2 km/h (1 Bft) 98,00 %
25.10.2017 01:56 9,8 C 10,6 C 89 % 1025,1 hPa 0,0 l/m 1,5 km/h (1 Bft) S 177 0 min 0,000 mm 0,0 UV-I 0 W/m 8,1 C 9,8 C 3,2 km/h (1 Bft) 97,37 %
25.10.2017 01:58 9,8 C 10,6 C 89 % 1025,1 hPa 0,0 l/m 0,8 km/h (0 Bft) S 177 0 min 0,000 mm 0,0 UV-I 0 W/m 8,1 C 9,8 C 3,2 km/h (1 Bft) 98,00 %
25.10.2017 02:00 9,8 C 10,6 C 89 % 1025,1 hPa 0,0 l/m 0,3 km/h (0 Bft) S 177 0 min 0,000 mm 0,0 UV-I 0 W/m 8,1 C 9,8 C 1,6 km/h (1 Bft) 98,00 %
25.10.2017 02:02 9,8 C 10,6 C 89 % 1025,1 hPa 0,0 l/m 0,5 km/h (0 Bft) S 177 0 min 0,000 mm 0,0 UV-I 0 W/m 8,1 C 9,8 C 3,2 km/h (1 Bft) 98,00 %
25.10.2017 02:04 9,8 C 10,6 C 89 % 1025,1 hPa 0,0 l/m 2,7 km/h (1 Bft) SW 220 0 min 0,000 mm 0,0 UV-I 0 W/m 8,1 C 9,8 C 4,8 km/h (1 Bft) 97,22 %
25.10.2017 02:06 9,8 C 10,6 C 89 % 1025,1 hPa 0,0 l/m 0,2 km/h (0 Bft) SW 220 0 min 0,000 mm 0,0 UV-I 0 W/m 8,1 C 9,8 C 1,6 km/h (1 Bft) 100,00 %
25.10.2017 02:08 9,8 C 10,6 C 89 % 1025,1 hPa 0,0 l/m 0,7 km/h (0 Bft) SW 220 0 min 0,000 mm 0,0 UV-I 0 W/m 8,1 C 9,8 C 3,2 km/h (1 Bft) 100,00 %
25.10.2017 02:10 9,8 C 10,6 C 89 % 1025,1 hPa 0,0 l/m 1,9 km/h (1 Bft) SW 220 0 min 0,000 mm 0,0 UV-I 0 W/m 8,1 C 9,8 C 3,2 km/h (1 Bft) 97,73 %
25.10.2017 02:12 9,8 C 10,6 C 89 % 1025,1 hPa 0,0 l/m 2,9 km/h (1 Bft) SW 220 0 min 0,000 mm 0,0 UV-I 0 W/m 8,1 C 9,8 C 4,8 km/h (1 Bft) 98,11 %
25.10.2017 02:14 9,8 C 10,6 C 89 % 1025,1 hPa 0,0 l/m 1,5 km/h (1 Bft) SW 220 0 min 0,000 mm 0,0 UV-I 0 W/m 8,1 C 9,8 C 3,2 km/h (1 Bft) 100,00 %
25.10.2017 02:16 9,8 C 10,6 C 89 % 1025,2 hPa 0,0 l/m 2,6 km/h (1 Bft) SW 220 0 min 0,000 mm 0,0 UV-I 0 W/m 8,1 C 9,8 C 4,8 km/h (1 Bft) 97,87 %
25.10.2017 02:18 9,8 C 10,6 C 89 % 1025,1 hPa 0,0 l/m 1,9 km/h (1 Bft) SW 220 0 min 0,000 mm 0,0 UV-I 0 W/m 8,1 C 9,8 C 3,2 km/h (1 Bft) 100,00 %
25.10.2017 02:20 9,8 C 10,6 C 89 % 1025,1 hPa 0,0 l/m 2,6 km/h (1 Bft) SW 220 0 min 0,000 mm 0,0 UV-I 0 W/m 8,1 C 9,8 C 4,8 km/h (1 Bft) 100,00 %
25.10.2017 02:22 9,8 C 10,6 C 90 % 1025,1 hPa 0,0 l/m 2,7 km/h (1 Bft) SW 220 0 min 0,000 mm 0,0 UV-I 0 W/m 8,2 C 9,8 C 4,8 km/h (1 Bft) 100,00 %
25.10.2017 02:24 9,8 C 10,6 C 90 % 1025,0 hPa 0,0 l/m 2,6 km/h (1 Bft) SW 219 0 min 0,000 mm 0,0 UV-I 0 W/m 8,2 C 9,8 C 4,8 km/h (1 Bft) 100,00 %
25.10.2017 02:26 9,8 C 10,6 C 90 % 1025,0 hPa 0,0 l/m 1,0 km/h (0 Bft) SW 219 0 min 0,000 mm 0,0 UV-I 0 W/m 8,2 C 9,8 C 3,2 km/h (1 Bft) 97,92 %
25.10.2017 02:28 9,8 C 10,6 C 90 % 1025,0 hPa 0,0 l/m 3,1 km/h (1 Bft) SW 219 0 min 0,000 mm 0,0 UV-I 0 W/m 8,2 C 9,8 C 4,8 km/h (1 Bft) 100,00 %
25.10.2017 02:30 9,8 C 10,6 C 90 % 1025,0 hPa 0,0 l/m 2,8 km/h (1 Bft) SW 218 0 min 0,000 mm 0,0 UV-I 0 W/m 8,2 C 9,8 C 4,8 km/h (1 Bft) 100,00 %
25.10.2017 02:32 9,8 C 10,6 C 90 % 1025,0 hPa 0,0 l/m 2,4 km/h (1 Bft) SW 218 0 min 0,000 mm 0,0 UV-I 0 W/m 8,2 C 9,8 C 4,8 km/h (1 Bft) 96,23 %
25.10.2017 02:34 9,8 C 10,6 C 90 % 1025,0 hPa 0,0 l/m 3,0 km/h (1 Bft) SW 218 0 min 0,000 mm 0,0 UV-I 0 W/m 8,2 C 9,8 C 4,8 km/h (1 Bft) 100,00 %
25.10.2017 02:36 9,8 C 10,6 C 90 % 1025,1 hPa 0,0 l/m 3,4 km/h (1 Bft) SW 218 0 min 0,000 mm 0,0 UV-I 0 W/m 8,2 C 9,8 C 4,8 km/h (1 Bft) 100,00 %
25.10.2017 02:38 9,7 C 10,6 C 90 % 1025,1 hPa 0,0 l/m 3,6 km/h (1 Bft) SW 219 0 min 0,000 mm 0,0 UV-I 0 W/m 8,1 C 9,7 C 6,4 km/h (2 Bft) 100,00 %
25.10.2017 02:40 9,8 C 10,6 C 90 % 1025,1 hPa 0,0 l/m 3,3 km/h (1 Bft) SW 219 0 min 0,000 mm 0,0 UV-I 0 W/m 8,2 C 9,8 C 4,8 km/h (1 Bft) 100,00 %
25.10.2017 02:42 9,7 C 10,6 C 90 % 1025,0 hPa 0,0 l/m 4,0 km/h (1 Bft) SW 215 0 min 0,000 mm 0,0 UV-I 0 W/m 8,1 C 9,7 C 6,4 km/h (2 Bft) 100,00 %
25.10.2017 02:44 9,7 C 10,6 C 90 % 1025,0 hPa 0,0 l/m 4,1 km/h (1 Bft) SW 215 0 min 0,000 mm 0,0 UV-I 0 W/m 8,1 C 9,7 C 4,8 km/h (1 Bft) 100,00 %
25.10.2017 02:46 9,7 C 10,6 C 90 % 1025,0 hPa 0,0 l/m 4,5 km/h (1 Bft) SW 219 0 min 0,000 mm 0,0 UV-I 0 W/m 8,1 C 9,7 C 6,4 km/h (2 Bft) 100,00 %
25.10.2017 02:48 9,7 C 10,6 C 90 % 1025,0 hPa 0,0 l/m 5,0 km/h (1 Bft) S-SW 204 0 min 0,000 mm 0,0 UV-I 0 W/m 8,1 C 9,7 C 6,4 km/h (2 Bft) 100,00 %
25.10.2017 02:50 9,7 C 10,6 C 90 % 1024,9 hPa 0,0 l/m 3,4 km/h (1 Bft) S-SW 204 0 min 0,000 mm 0,0 UV-I 0 W/m 8,1 C 9,7 C 4,8 km/h (1 Bft) 100,00 %
25.10.2017 02:52 9,7 C 10,6 C 90 % 1025,0 hPa 0,0 l/m 2,8 km/h (1 Bft) S-SW 204 0 min 0,000 mm 0,0 UV-I 0 W/m 8,1 C 9,7 C 4,8 km/h (1 Bft) 100,00 %
25.10.2017 02:54 9,7 C 10,6 C 90 % 1025,0 hPa 0,0 l/m 4,3 km/h (1 Bft) SW 216 0 min 0,000 mm 0,0 UV-I 0 W/m 8,1 C 9,7 C 6,4 km/h (2 Bft) 100,00 %
25.10.2017 02:56 9,6 C 10,6 C 90 % 1025,0 hPa 0,0 l/m 3,0 km/h (1 Bft) SW 227 0 min 0,000 mm 0,0 UV-I 0 W/m 8,0 C 9,6 C 4,8 km/h (1 Bft) 100,00 %
25.10.2017 02:58 9,6 C 10,6 C 90 % 1025,0 hPa 0,0 l/m 3,6 km/h (1 Bft) SW 227 0 min 0,000 mm 0,0 UV-I 0 W/m 8,0 C 9,6 C 6,4 km/h (2 Bft) 100,00 %
25.10.2017 03:00 9,6 C 10,6 C 90 % 1025,0 hPa 0,0 l/m 3,3 km/h (1 Bft) SW 227 0 min 0,000 mm 0,0 UV-I 0 W/m 8,0 C 9,6 C 4,8 km/h (1 Bft) 100,00 %
25.10.2017 03:02 9,6 C 10,6 C 90 % 1025,0 hPa 0,0 l/m 2,8 km/h (1 Bft) SW 227 0 min 0,000 mm 0,0 UV-I 0 W/m 8,0 C 9,6 C 4,8 km/h (1 Bft) 98,00 %
25.10.2017 03:04 9,5 C 10,6 C 90 % 1025,0 hPa 0,0 l/m 3,3 km/h (1 Bft) SW 226 0 min 0,000 mm 0,0 UV-I 0 W/m 7,9 C 9,5 C 4,8 km/h (1 Bft) 98,21 %
25.10.2017 03:06 9,4 C 10,6 C 90 % 1025,0 hPa 0,0 l/m 1,0 km/h (0 Bft) SW 226 0 min 0,000 mm 0,0 UV-I 0 W/m 7,8 C 9,4 C 3,2 km/h (1 Bft) 97,37 %
25.10.2017 03:08 9,4 C 10,6 C 90 % 1024,9 hPa 0,0 l/m 0,5 km/h (0 Bft) SW 226 0 min 0,000 mm 0,0 UV-I 0 W/m 7,8 C 9,4 C 3,2 km/h (1 Bft) 97,87 %
25.10.2017 03:10 9,4 C 10,6 C 90 % 1024,9 hPa 0,0 l/m 0,7 km/h (0 Bft) SW 226 0 min 0,000 mm 0,0 UV-I 0 W/m 7,8 C 9,4 C 3,2 km/h (1 Bft) 97,87 %
25.10.2017 03:12 9,4 C 10,6 C 90 % 1024,9 hPa 0,0 l/m 1,2 km/h (1 Bft) SW 226 0 min 0,000 mm 0,0 UV-I 0 W/m 7,8 C 9,4 C 3,2 km/h (1 Bft) 97,87 %
25.10.2017 03:14 9,3 C 10,6 C 90 % 1024,9 hPa 0,0 l/m 1,0 km/h (0 Bft) SW 226 0 min 0,000 mm 0,0 UV-I 0 W/m 7,7 C 9,3 C 3,2 km/h (1 Bft) 96,00 %
25.10.2017 03:16 9,3 C 10,6 C 90 % 1024,9 hPa 0,0 l/m 0,7 km/h (0 Bft) SW 226 0 min 0,000 mm 0,0 UV-I 0 W/m 7,7 C 9,3 C 3,2 km/h (1 Bft) 96,00 %
25.10.2017 03:18 9,3 C 10,6 C 90 % 1024,9 hPa 0,0 l/m 0,0 km/h (0 Bft) SW 226 0 min 0,000 mm 0,0 UV-I 0 W/m 7,7 C 9,3 C 0,0 km/h (0 Bft) 97,44 %
25.10.2017 03:20 9,3 C 10,6 C 90 % 1024,9 hPa 0,0 l/m 0,3 km/h (0 Bft) SW 226 0 min 0,000 mm 0,0 UV-I 0 W/m 7,7 C 9,3 C 1,6 km/h (1 Bft) 97,87 %
25.10.2017 03:22 9,2 C 10,6 C 90 % 1024,9 hPa 0,0 l/m 0,0 km/h (0 Bft) SW 226 0 min 0,000 mm 0,0 UV-I 0 W/m 7,6 C 9,2 C 0,0 km/h (0 Bft) 97,87 %
25.10.2017 03:24 9,2 C 10,6 C 90 % 1024,9 hPa 0,0 l/m 0,0 km/h (0 Bft) SW 226 0 min 0,000 mm 0,0 UV-I 0 W/m 7,6 C 9,2 C 0,0 km/h (0 Bft) 94,34 %
25.10.2017 03:26 9,2 C 10,6 C 90 % 1024,9 hPa 0,0 l/m 0,0 km/h (0 Bft) SW 226 0 min 0,000 mm 0,0 UV-I 0 W/m 7,6 C 9,2 C 0,0 km/h (0 Bft) 97,87 %
25.10.2017 03:28 9,1 C 10,6 C 89 % 1024,9 hPa 0,0 l/m 0,4 km/h (0 Bft) SW 226 0 min 0,000 mm 0,0 UV-I 0 W/m 7,4 C 9,1 C 1,6 km/h (1 Bft) 97,37 %
25.10.2017 03:30 9,1 C 10,6 C 90 % 1024,9 hPa 0,0 l/m 1,5 km/h (1 Bft) SW 226 0 min 0,000 mm 0,0 UV-I 0 W/m 7,5 C 9,1 C 3,2 km/h (1 Bft) 96,43 %
25.10.2017 03:32 9,1 C 10,6 C 90 % 1024,9 hPa 0,0 l/m 1,3 km/h (1 Bft) SW 226 0 min 0,000 mm 0,0 UV-I 0 W/m 7,5 C 9,1 C 1,6 km/h (1 Bft) 100,00 %
25.10.2017 03:34 9,0 C 10,6 C 90 % 1024,9 hPa 0,0 l/m 0,7 km/h (0 Bft) SW 226 0 min 0,000 mm 0,0 UV-I 0 W/m 7,4 C 9,0 C 1,6 km/h (1 Bft) 94,64 %
25.10.2017 03:36 9,0 C 10,6 C 90 % 1024,9 hPa 0,0 l/m 0,3 km/h (0 Bft) SW 226 0 min 0,000 mm 0,0 UV-I 0 W/m 7,4 C 9,0 C 1,6 km/h (1 Bft) 97,73 %
25.10.2017 03:38 8,9 C 10,6 C 90 % 1024,9 hPa 0,0 l/m 0,0 km/h (0 Bft) SW 226 0 min 0,000 mm 0,0 UV-I 0 W/m 7,4 C 8,9 C 0,0 km/h (0 Bft) 97,87 %
25.10.2017 03:40 8,9 C 10,6 C 90 % 1024,8 hPa 0,0 l/m 0,0 km/h (0 Bft) SW 226 0 min 0,000 mm 0,0 UV-I 0 W/m 7,4 C 8,9 C 0,0 km/h (0 Bft) 97,87 %
25.10.2017 03:42 8,9 C 10,6 C 90 % 1024,9 hPa 0,0 l/m 0,0 km/h (0 Bft) SW 226 0 min 0,000 mm 0,0 UV-I 0 W/m 7,4 C 8,9 C 0,0 km/h (0 Bft) 97,87 %
25.10.2017 03:44 8,8 C 10,6 C 90 % 1024,9 hPa 0,0 l/m 0,0 km/h (0 Bft) SW 226 0 min 0,000 mm 0,0 UV-I 0 W/m 7,3 C 8,8 C 0,0 km/h (0 Bft) 100,00 %
25.10.2017 03:46 8,8 C 10,6 C 90 % 1024,9 hPa 0,0 l/m 1,3 km/h (1 Bft) SW 226 0 min 0,000 mm 0,0 UV-I 0 W/m 7,3 C 8,8 C 3,2 km/h (1 Bft) 100,00 %
25.10.2017 03:48 8,7 C 10,6 C 90 % 1024,9 hPa 0,0 l/m 2,0 km/h (1 Bft) SW 226 0 min 0,000 mm 0,0 UV-I 0 W/m 7,2 C 8,7 C 3,2 km/h (1 Bft) 100,00 %
25.10.2017 03:50 8,6 C 10,6 C 90 % 1024,9 hPa 0,0 l/m 2,1 km/h (1 Bft) SW 226 0 min 0,000 mm 0,0 UV-I 0 W/m 7,1 C 8,6 C 3,2 km/h (1 Bft) 100,00 %
25.10.2017 03:52 8,6 C 10,6 C 90 % 1024,9 hPa 0,0 l/m 0,7 km/h (0 Bft) SW 226 0 min 0,000 mm 0,0 UV-I 0 W/m 7,1 C 8,6 C 1,6 km/h (1 Bft) 100,00 %
25.10.2017 03:54 8,5 C 10,6 C 91 % 1024,9 hPa 0,0 l/m 0,5 km/h (0 Bft) SW 226 0 min 0,000 mm 0,0 UV-I 0 W/m 7,1 C 8,5 C 1,6 km/h (1 Bft) 100,00 %
25.10.2017 03:56 8,5 C 10,6 C 91 % 1024,9 hPa 0,0 l/m 0,8 km/h (0 Bft) SW 226 0 min 0,000 mm 0,0 UV-I 0 W/m 7,1 C 8,5 C 3,2 km/h (1 Bft) 100,00 %
25.10.2017 03:58 8,5 C 10,6 C 91 % 1024,9 hPa 0,0 l/m 0,0 km/h (0 Bft) SW 226 0 min 0,000 mm 0,0 UV-I 0 W/m 7,1 C 8,5 C 0,0 km/h (0 Bft) 100,00 %
25.10.2017 04:00 8,4 C 10,6 C 91 % 1024,9 hPa 0,0 l/m 0,0 km/h (0 Bft) SW 226 0 min 0,000 mm 0,0 UV-I 0 W/m 7,0 C 8,4 C 0,0 km/h (0 Bft) 98,18 %
25.10.2017 04:02 8,4 C 10,6 C 91 % 1024,9 hPa 0,0 l/m 0,0 km/h (0 Bft) SW 226 0 min 0,000 mm 0,0 UV-I 0 W/m 7,0 C 8,4 C 0,0 km/h (0 Bft) 94,12 %
25.10.2017 04:04 8,4 C 10,6 C 91 % 1024,9 hPa 0,0 l/m 0,7 km/h (0 Bft) SW 226 0 min 0,000 mm 0,0 UV-I 0 W/m 7,0 C 8,4 C 1,6 km/h (1 Bft) 100,00 %
25.10.2017 04:06 8,4 C 10,6 C 92 % 1024,9 hPa 0,0 l/m 1,3 km/h (1 Bft) SW 226 0 min 0,000 mm 0,0 UV-I 0 W/m 7,2 C 8,4 C 1,6 km/h (1 Bft) 100,00 %
25.10.2017 04:08 8,4 C 10,6 C 92 % 1024,9 hPa 0,0 l/m 1,2 km/h (1 Bft) SW 226 0 min 0,000 mm 0,0 UV-I 0 W/m 7,2 C 8,4 C 3,2 km/h (1 Bft) 100,00 %
25.10.2017 04:10 8,4 C 10,6 C 92 % 1024,9 hPa 0,0 l/m 0,0 km/h (0 Bft) SW 226 0 min 0,000 mm 0,0 UV-I 0 W/m 7,2 C 8,4 C 1,6 km/h (1 Bft) 100,00 %
25.10.2017 04:12 8,4 C 10,6 C 92 % 1025,0 hPa 0,0 l/m 0,0 km/h (0 Bft) SW 226 0 min 0,000 mm 0,0 UV-I 0 W/m 7,2 C 8,4 C 0,0 km/h (0 Bft) 100,00 %
25.10.2017 04:14 8,4 C 10,6 C 92 % 1024,9 hPa 0,0 l/m 0,0 km/h (0 Bft) SW 226 0 min 0,000 mm 0,0 UV-I 0 W/m 7,2 C 8,4 C 0,0 km/h (0 Bft) 100,00 %
25.10.2017 04:16 8,4 C 10,6 C 92 % 1024,9 hPa 0,0 l/m 0,0 km/h (0 Bft) SW 226 0 min 0,000 mm 0,0 UV-I 0 W/m 7,2 C 8,4 C 0,0 km/h (0 Bft) 100,00 %
25.10.2017 04:18 8,4 C 10,6 C 92 % 1024,9 hPa 0,0 l/m 0,3 km/h (0 Bft) SW 226 0 min 0,000 mm 0,0 UV-I 0 W/m 7,2 C 8,4 C 3,2 km/h (1 Bft) 100,00 %
25.10.2017 04:20 8,4 C 10,6 C 92 % 1024,9 hPa 0,0 l/m 2,2 km/h (1 Bft) SW 226 0 min 0,000 mm 0,0 UV-I 0 W/m 7,2 C 8,4 C 3,2 km/h (1 Bft) 97,37 %
25.10.2017 04:22 8,4 C 10,6 C 92 % 1024,9 hPa 0,0 l/m 2,4 km/h (1 Bft) SW 226 0 min 0,000 mm 0,0 UV-I 0 W/m 7,2 C 8,4 C 3,2 km/h (1 Bft) 100,00 %
25.10.2017 04:24 8,4 C 10,6 C 92 % 1024,9 hPa 0,0 l/m 2,7 km/h (1 Bft) SW 226 0 min 0,000 mm 0,0 UV-I 0 W/m 7,2 C 8,4 C 3,2 km/h (1 Bft) 100,00 %
25.10.2017 04:26 8,4 C 10,6 C 93 % 1024,8 hPa 0,0 l/m 1,8 km/h (1 Bft) SW 226 0 min 0,000 mm 0,0 UV-I 0 W/m 7,3 C 8,4 C 3,2 km/h (1 Bft) 100,00 %
25.10.2017 04:28 8,3 C 10,6 C 93 % 1024,8 hPa 0,0 l/m 1,1 km/h (1 Bft) SW 226 0 min 0,000 mm 0,0 UV-I 0 W/m 7,2 C 8,3 C 1,6 km/h (1 Bft) 98,00 %
25.10.2017 04:30 8,3 C 10,6 C 93 % 1024,9 hPa 0,0 l/m 1,0 km/h (0 Bft) SW 226 0 min 0,000 mm 0,0 UV-I 0 W/m 7,2 C 8,3 C 1,6 km/h (1 Bft) 100,00 %
25.10.2017 04:32 8,3 C 10,6 C 93 % 1024,9 hPa 0,0 l/m 0,0 km/h (0 Bft) SW 226 0 min 0,000 mm 0,0 UV-I 0 W/m 7,2 C 8,3 C 0,0 km/h (0 Bft) 97,87 %
25.10.2017 04:34 8,3 C 10,6 C 93 % 1024,9 hPa 0,0 l/m 0,0 km/h (0 Bft) SW 226 0 min 0,000 mm 0,0 UV-I 0 W/m 7,2 C 8,3 C 0,0 km/h (0 Bft) 100,00 %
25.10.2017 04:36 8,3 C 10,6 C 93 % 1024,8 hPa 0,0 l/m 0,0 km/h (0 Bft) SW 226 0 min 0,000 mm 0,0 UV-I 0 W/m 7,2 C 8,3 C 0,0 km/h (0 Bft) 98,00 %
25.10.2017 04:38 8,3 C 10,6 C 93 % 1024,9 hPa 0,0 l/m 0,0 km/h (0 Bft) SW 226 0 min 0,000 mm 0,0 UV-I 0 W/m 7,2 C 8,3 C 0,0 km/h (0 Bft) 100,00 %
25.10.2017 04:40 8,3 C 10,6 C 93 % 1024,8 hPa 0,0 l/m 0,0 km/h (0 Bft) SW 226 0 min 0,000 mm 0,0 UV-I 0 W/m 7,2 C 8,3 C 0,0 km/h (0 Bft) 100,00 %
25.10.2017 04:42 8,3 C 10,6 C 93 % 1024,8 hPa 0,0 l/m 0,0 km/h (0 Bft) SW 226 0 min 0,000 mm 0,0 UV-I 0 W/m 7,2 C 8,3 C 1,6 km/h (1 Bft) 98,11 %
25.10.2017 04:44 8,3 C 10,6 C 93 % 1024,8 hPa 0,0 l/m 2,0 km/h (1 Bft) SW 226 0 min 0,000 mm 0,0 UV-I 0 W/m 7,2 C 8,3 C 3,2 km/h (1 Bft) 98,00 %
25.10.2017 04:46 8,3 C 10,6 C 93 % 1024,8 hPa 0,0 l/m 2,9 km/h (1 Bft) SW 226 0 min 0,000 mm 0,0 UV-I 0 W/m 7,2 C 8,3 C 3,2 km/h (1 Bft) 98,00 %
25.10.2017 04:48 8,3 C 10,6 C 94 % 1024,8 hPa 0,0 l/m 3,1 km/h (1 Bft) SW 226 0 min 0,000 mm 0,0 UV-I 0 W/m 7,4 C 8,3 C 4,8 km/h (1 Bft) 97,73 %
25.10.2017 04:50 8,3 C 10,6 C 94 % 1024,8 hPa 0,0 l/m 2,9 km/h (1 Bft) SW 226 0 min 0,000 mm 0,0 UV-I 0 W/m 7,4 C 8,3 C 3,2 km/h (1 Bft) 97,87 %
25.10.2017 04:52 8,3 C 10,6 C 94 % 1024,8 hPa 0,0 l/m 3,0 km/h (1 Bft) SW 226 0 min 0,000 mm 0,0 UV-I 0 W/m 7,4 C 8,3 C 4,8 km/h (1 Bft) 95,74 %
25.10.2017 04:54 8,3 C 10,6 C 94 % 1024,8 hPa 0,0 l/m 3,1 km/h (1 Bft) SW 226 0 min 0,000 mm 0,0 UV-I 0 W/m 7,4 C 8,3 C 4,8 km/h (1 Bft) 96,00 %
25.10.2017 04:56 8,3 C 10,6 C 94 % 1024,8 hPa 0,0 l/m 2,2 km/h (1 Bft) SW 226 0 min 0,000 mm 0,0 UV-I 0 W/m 7,4 C 8,3 C 3,2 km/h (1 Bft) 95,74 %
25.10.2017 04:58 8,3 C 10,6 C 94 % 1024,8 hPa 0,0 l/m 1,9 km/h (1 Bft) SW 226 0 min 0,000 mm 0,0 UV-I 0 W/m 7,4 C 8,3 C 3,2 km/h (1 Bft) 95,74 %
25.10.2017 05:00 8,3 C 10,6 C 94 % 1024,8 hPa 0,0 l/m 1,7 km/h (1 Bft) SW 226 0 min 0,000 mm 0,0 UV-I 0 W/m 7,4 C 8,3 C 3,2 km/h (1 Bft) 97,87 %
25.10.2017 05:02 8,3 C 10,6 C 94 % 1024,8 hPa 0,0 l/m 0,7 km/h (0 Bft) SW 226 0 min 0,000 mm 0,0 UV-I 0 W/m 7,4 C 8,3 C 1,6 km/h (1 Bft) 97,87 %
25.10.2017 05:04 8,3 C 10,6 C 94 % 1024,8 hPa 0,0 l/m 0,2 km/h (0 Bft) SW 226 0 min 0,000 mm 0,0 UV-I 0 W/m 7,4 C 8,3 C 1,6 km/h (1 Bft) 97,87 %
25.10.2017 05:06 8,3 C 10,6 C 94 % 1024,9 hPa 0,0 l/m 0,2 km/h (0 Bft) SW 226 0 min 0,000 mm 0,0 UV-I 0 W/m 7,4 C 8,3 C 1,6 km/h (1 Bft) 97,87 %
25.10.2017 05:08 8,4 C 10,6 C 94 % 1024,9 hPa 0,0 l/m 0,0 km/h (0 Bft) SW 226 0 min 0,000 mm 0,0 UV-I 0 W/m 7,5 C 8,4 C 0,0 km/h (0 Bft) 97,37 %
25.10.2017 05:10 8,3 C 10,6 C 94 % 1024,9 hPa 0,0 l/m 0,5 km/h (0 Bft) SW 226 0 min 0,000 mm 0,0 UV-I 0 W/m 7,4 C 8,3 C 3,2 km/h (1 Bft) 97,87 %
25.10.2017 05:12 8,3 C 10,6 C 94 % 1024,9 hPa 0,0 l/m 0,6 km/h (0 Bft) SW 226 0 min 0,000 mm 0,0 UV-I 0 W/m 7,4 C 8,3 C 3,2 km/h (1 Bft) 96,23 %
25.10.2017 05:14 8,4 C 10,6 C 94 % 1024,8 hPa 0,0 l/m 1,0 km/h (0 Bft) SW 226 0 min 0,000 mm 0,0 UV-I 0 W/m 7,5 C 8,4 C 3,2 km/h (1 Bft) 95,12 %
25.10.2017 05:16 8,4 C 10,6 C 94 % 1024,8 hPa 0,0 l/m 0,8 km/h (0 Bft) SW 226 0 min 0,000 mm 0,0 UV-I 0 W/m 7,5 C 8,4 C 3,2 km/h (1 Bft) 96,23 %
25.10.2017 05:18 8,4 C 10,6 C 94 % 1024,8 hPa 0,0 l/m 0,2 km/h (0 Bft) SW 226 0 min 0,000 mm 0,0 UV-I 0 W/m 7,5 C 8,4 C 1,6 km/h (1 Bft) 94,87 %
25.10.2017 05:20 8,4 C 10,6 C 94 % 1024,8 hPa 0,0 l/m 0,9 km/h (0 Bft) SW 226 0 min 0,000 mm 0,0 UV-I 0 W/m 7,5 C 8,4 C 3,2 km/h (1 Bft) 95,74 %
25.10.2017 05:22 8,4 C 10,6 C 94 % 1024,8 hPa 0,0 l/m 0,6 km/h (0 Bft) SW 226 0 min 0,000 mm 0,0 UV-I 0 W/m 7,5 C 8,4 C 1,6 km/h (1 Bft) 94,34 %
25.10.2017 05:24 8,4 C 10,6 C 94 % 1024,8 hPa 0,0 l/m 0,0 km/h (0 Bft) SW 226 0 min 0,000 mm 0,0 UV-I 0 W/m 7,5 C 8,4 C 1,6 km/h (1 Bft) 93,62 %
25.10.2017 05:26 8,4 C 10,6 C 94 % 1024,8 hPa 0,0 l/m 0,0 km/h (0 Bft) SW 226 0 min 0,000 mm 0,0 UV-I 0 W/m 7,5 C 8,4 C 0,0 km/h (0 Bft) 93,62 %
25.10.2017 05:28 8,4 C 10,6 C 94 % 1024,8 hPa 0,0 l/m 0,0 km/h (0 Bft) SW 226 0 min 0,000 mm 0,0 UV-I 0 W/m 7,5 C 8,4 C 0,0 km/h (0 Bft) 92,00 %
25.10.2017 05:30 8,4 C 10,6 C 94 % 1024,8 hPa 0,0 l/m 0,0 km/h (0 Bft) SW 226 0 min 0,000 mm 0,0 UV-I 0 W/m 7,5 C 8,4 C 1,6 km/h (1 Bft) 95,12 %
25.10.2017 05:32 8,4 C 10,6 C 94 % 1024,9 hPa 0,0 l/m 0,1 km/h (0 Bft) SW 226 0 min 0,000 mm 0,0 UV-I 0 W/m 7,5 C 8,4 C 1,6 km/h (1 Bft) 95,74 %
25.10.2017 05:34 8,4 C 10,6 C 94 % 1025,0 hPa 0,0 l/m 0,0 km/h (0 Bft) SW 226 0 min 0,000 mm 0,0 UV-I 0 W/m 7,5 C 8,4 C 0,0 km/h (0 Bft) 95,74 %
25.10.2017 05:36 8,4 C 10,6 C 94 % 1024,9 hPa 0,0 l/m 0,0 km/h (0 Bft) SW 226 0 min 0,000 mm 0,0 UV-I 0 W/m 7,5 C 8,4 C 0,0 km/h (0 Bft) 96,00 %
25.10.2017 05:38 8,5 C 10,6 C 94 % 1024,9 hPa 0,0 l/m 0,0 km/h (0 Bft) SW 226 0 min 0,000 mm 0,0 UV-I 0 W/m 7,6 C 8,5 C 0,0 km/h (0 Bft) 93,62 %
25.10.2017 05:40 8,5 C 10,6 C 94 % 1024,9 hPa 0,0 l/m 0,1 km/h (0 Bft) SW 226 0 min 0,000 mm 0,0 UV-I 0 W/m 7,6 C 8,5 C 1,6 km/h (1 Bft) 93,62 %
25.10.2017 05:42 8,5 C 10,6 C 94 % 1024,9 hPa 0,0 l/m 0,9 km/h (0 Bft) SW 226 0 min 0,000 mm 0,0 UV-I 0 W/m 7,6 C 8,5 C 3,2 km/h (1 Bft) 97,37 %
25.10.2017 05:44 8,5 C 10,6 C 94 % 1024,9 hPa 0,0 l/m 0,0 km/h (0 Bft) SW 226 0 min 0,000 mm 0,0 UV-I 0 W/m 7,6 C 8,5 C 0,0 km/h (0 Bft) 98,00 %
25.10.2017 05:46 8,5 C 10,6 C 94 % 1024,9 hPa 0,0 l/m 0,0 km/h (0 Bft) SW 226 0 min 0,000 mm 0,0 UV-I 0 W/m 7,6 C 8,5 C 0,0 km/h (0 Bft) 97,87 %
25.10.2017 05:48 8,5 C 10,6 C 94 % 1024,8 hPa 0,0 l/m 0,9 km/h (0 Bft) SW 226 0 min 0,000 mm 0,0 UV-I 0 W/m 7,6 C 8,5 C 3,2 km/h (1 Bft) 96,00 %
25.10.2017 05:50 8,5 C 10,6 C 94 % 1024,8 hPa 0,0 l/m 2,2 km/h (1 Bft) SW 226 0 min 0,000 mm 0,0 UV-I 0 W/m 7,6 C 8,5 C 3,2 km/h (1 Bft) 100,00 %
25.10.2017 05:52 8,6 C 10,6 C 95 % 1024,8 hPa 0,0 l/m 3,1 km/h (1 Bft) SW 225 0 min 0,000 mm 0,0 UV-I 0 W/m 7,8 C 8,6 C 4,8 km/h (1 Bft) 98,00 %
25.10.2017 05:54 8,6 C 10,6 C 95 % 1024,8 hPa 0,0 l/m 3,5 km/h (1 Bft) SW 225 0 min 0,000 mm 0,0 UV-I 0 W/m 7,8 C 8,6 C 4,8 km/h (1 Bft) 97,22 %
25.10.2017 05:56 8,6 C 10,6 C 95 % 1024,7 hPa 0,0 l/m 3,9 km/h (1 Bft) S-SW 196 0 min 0,000 mm 0,0 UV-I 0 W/m 7,8 C 8,6 C 4,8 km/h (1 Bft) 100,00 %
25.10.2017 05:58 8,6 C 10,6 C 95 % 1024,7 hPa 0,0 l/m 3,6 km/h (1 Bft) S-SO 148 0 min 0,000 mm 0,0 UV-I 0 W/m 7,8 C 8,6 C 4,8 km/h (1 Bft) 95,24 %
25.10.2017 06:00 8,6 C 10,6 C 95 % 1024,7 hPa 0,0 l/m 2,7 km/h (1 Bft) S-SO 148 0 min 0,000 mm 0,0 UV-I 0 W/m 7,8 C 8,6 C 4,8 km/h (1 Bft) 100,00 %
25.10.2017 06:02 8,6 C 10,6 C 95 % 1024,7 hPa 0,0 l/m 1,8 km/h (1 Bft) S-SO 148 0 min 0,000 mm 0,0 UV-I 0 W/m 7,8 C 8,6 C 4,8 km/h (1 Bft) 100,00 %
25.10.2017 06:04 8,6 C 10,6 C 95 % 1024,6 hPa 0,0 l/m 1,7 km/h (1 Bft) S-SO 148 0 min 0,000 mm 0,0 UV-I 0 W/m 7,8 C 8,6 C 4,8 km/h (1 Bft) 97,87 %
25.10.2017 06:06 8,6 C 10,6 C 95 % 1024,6 hPa 0,0 l/m 1,0 km/h (0 Bft) S-SO 148 0 min 0,000 mm 0,0 UV-I 0 W/m 7,8 C 8,6 C 4,8 km/h (1 Bft) 100,00 %
25.10.2017 06:08 8,6 C 10,6 C 95 % 1024,5 hPa 0,0 l/m 2,4 km/h (1 Bft) S-SO 149 0 min 0,000 mm 0,0 UV-I 0 W/m 7,8 C 8,6 C 6,4 km/h (2 Bft) 100,00 %
25.10.2017 06:10 8,6 C 10,6 C 95 % 1024,4 hPa 0,0 l/m 3,5 km/h (1 Bft) S-SO 149 0 min 0,000 mm 0,0 UV-I 0 W/m 7,8 C 8,6 C 6,4 km/h (2 Bft) 100,00 %
25.10.2017 06:12 8,6 C 10,6 C 95 % 1024,4 hPa 0,0 l/m 1,9 km/h (1 Bft) S-SO 149 0 min 0,000 mm 0,0 UV-I 0 W/m 7,8 C 8,6 C 3,2 km/h (1 Bft) 98,00 %
25.10.2017 06:14 8,6 C 10,6 C 95 % 1024,4 hPa 0,0 l/m 0,5 km/h (0 Bft) S-SO 149 0 min 0,000 mm 0,0 UV-I 0 W/m 7,8 C 8,6 C 1,6 km/h (1 Bft) 100,00 %
25.10.2017 06:16 8,6 C 10,6 C 95 % 1024,4 hPa 0,0 l/m 0,3 km/h (0 Bft) S-SO 149 0 min 0,000 mm 0,0 UV-I 0 W/m 7,8 C 8,6 C 1,6 km/h (1 Bft) 100,00 %
25.10.2017 06:18 8,6 C 10,6 C 94 % 1024,3 hPa 0,0 l/m 0,1 km/h (0 Bft) S-SO 149 0 min 0,000 mm 0,0 UV-I 0 W/m 7,7 C 8,6 C 1,6 km/h (1 Bft) 95,74 %
25.10.2017 06:20 8,6 C 10,6 C 94 % 1024,3 hPa 0,0 l/m 0,3 km/h (0 Bft) S-SO 149 0 min 0,000 mm 0,0 UV-I 0 W/m 7,7 C 8,6 C 1,6 km/h (1 Bft) 100,00 %
25.10.2017 06:22 8,6 C 10,6 C 94 % 1024,3 hPa 0,0 l/m 1,6 km/h (1 Bft) S-SO 149 0 min 0,000 mm 0,0 UV-I 0 W/m 7,7 C 8,6 C 3,2 km/h (1 Bft) 100,00 %
25.10.2017 06:24 8,6 C 10,6 C 94 % 1024,3 hPa 0,0 l/m 1,5 km/h (1 Bft) S-SO 149 0 min 0,000 mm 0,0 UV-I 0 W/m 7,7 C 8,6 C 3,2 km/h (1 Bft) 94,74 %
25.10.2017 06:26 8,6 C 10,6 C 94 % 1024,3 hPa 0,0 l/m 1,2 km/h (1 Bft) S-SO 149 0 min 0,000 mm 0,0 UV-I 0 W/m 7,7 C 8,6 C 3,2 km/h (1 Bft) 100,00 %
25.10.2017 06:28 8,5 C 10,6 C 94 % 1024,2 hPa 0,0 l/m 0,5 km/h (0 Bft) S-SO 149 0 min 0,000 mm 0,0 UV-I 0 W/m 7,6 C 8,5 C 1,6 km/h (1 Bft) 100,00 %
25.10.2017 06:30 8,5 C 10,6 C 94 % 1024,2 hPa 0,0 l/m 0,0 km/h (0 Bft) S-SO 149 0 min 0,000 mm 0,0 UV-I 0 W/m 7,6 C 8,5 C 0,0 km/h (0 Bft) 97,56 %
25.10.2017 06:32 8,5 C 10,6 C 94 % 1024,2 hPa 0,0 l/m 0,0 km/h (0 Bft) S-SO 149 0 min 0,000 mm 0,0 UV-I 0 W/m 7,6 C 8,5 C 0,0 km/h (0 Bft) 100,00 %
25.10.2017 06:34 8,5 C 10,6 C 94 % 1024,2 hPa 0,0 l/m 0,0 km/h (0 Bft) S-SO 149 0 min 0,000 mm 0,0 UV-I 0 W/m 7,6 C 8,5 C 0,0 km/h (0 Bft) 100,00 %
25.10.2017 06:36 8,4 C 10,6 C 94 % 1024,3 hPa 0,0 l/m 0,0 km/h (0 Bft) S-SO 149 0 min 0,000 mm 0,0 UV-I 0 W/m 7,5 C 8,4 C 0,0 km/h (0 Bft) 98,00 %
25.10.2017 06:38 8,4 C 10,6 C 94 % 1024,3 hPa 0,0 l/m 0,0 km/h (0 Bft) S-SO 149 0 min 0,000 mm 0,0 UV-I 0 W/m 7,5 C 8,4 C 0,0 km/h (0 Bft) 100,00 %
25.10.2017 06:40 8,4 C 10,6 C 94 % 1024,3 hPa 0,0 l/m 0,0 km/h (0 Bft) S-SO 149 0 min 0,000 mm 0,0 UV-I 0 W/m 7,5 C 8,4 C 0,0 km/h (0 Bft) 100,00 %
25.10.2017 06:42 8,4 C 10,6 C 94 % 1024,2 hPa 0,0 l/m 0,0 km/h (0 Bft) S-SO 149 0 min 0,000 mm 0,0 UV-I 0 W/m 7,5 C 8,4 C 0,0 km/h (0 Bft) 100,00 %
25.10.2017 06:44 8,4 C 10,6 C 94 % 1024,2 hPa 0,0 l/m 0,0 km/h (0 Bft) S-SO 149 0 min 0,000 mm 0,0 UV-I 0 W/m 7,5 C 8,4 C 0,0 km/h (0 Bft) 100,00 %
25.10.2017 06:46 8,3 C 10,6 C 94 % 1024,2 hPa 0,0 l/m 0,0 km/h (0 Bft) S-SO 149 0 min 0,000 mm 0,0 UV-I 0 W/m 7,4 C 8,3 C 0,0 km/h (0 Bft) 100,00 %
25.10.2017 06:48 8,3 C 10,6 C 94 % 1024,2 hPa 0,0 l/m 0,0 km/h (0 Bft) S-SO 149 0 min 0,000 mm 0,0 UV-I 0 W/m 7,4 C 8,3 C 0,0 km/h (0 Bft) 100,00 %
25.10.2017 06:50 8,3 C 10,6 C 94 % 1024,3 hPa 0,0 l/m 0,0 km/h (0 Bft) S-SO 149 0 min 0,000 mm 0,0 UV-I 0 W/m 7,4 C 8,3 C 0,0 km/h (0 Bft) 100,00 %
25.10.2017 06:52 8,3 C 10,6 C 94 % 1024,2 hPa 0,0 l/m 0,0 km/h (0 Bft) S-SO 149 0 min 0,000 mm 0,0 UV-I 0 W/m 7,4 C 8,3 C 0,0 km/h (0 Bft) 100,00 %
25.10.2017 06:54 8,3 C 10,6 C 94 % 1024,2 hPa 0,0 l/m 0,0 km/h (0 Bft) S-SO 149 0 min 0,000 mm 0,0 UV-I 0 W/m 7,4 C 8,3 C 0,0 km/h (0 Bft) 100,00 %
25.10.2017 06:56 8,3 C 10,6 C 94 % 1024,2 hPa 0,0 l/m 0,0 km/h (0 Bft) S-SO 149 0 min 0,000 mm 0,0 UV-I 0 W/m 7,4 C 8,3 C 0,0 km/h (0 Bft) 100,00 %
25.10.2017 06:58 8,3 C 10,6 C 94 % 1024,3 hPa 0,0 l/m 0,0 km/h (0 Bft) S-SO 149 0 min 0,000 mm 0,0 UV-I 0 W/m 7,4 C 8,3 C 0,0 km/h (0 Bft) 100,00 %
25.10.2017 07:00 8,3 C 10,6 C 94 % 1024,3 hPa 0,0 l/m 0,3 km/h (0 Bft) S-SO 149 0 min 0,000 mm 0,0 UV-I 0 W/m 7,4 C 8,3 C 1,6 km/h (1 Bft) 100,00 %
25.10.2017 07:02 8,2 C 10,6 C 94 % 1024,3 hPa 0,0 l/m 0,0 km/h (0 Bft) S-SO 149 0 min 0,000 mm 0,0 UV-I 0 W/m 7,3 C 8,2 C 0,0 km/h (0 Bft) 95,74 %
25.10.2017 07:04 8,2 C 10,6 C 94 % 1024,4 hPa 0,0 l/m 0,0 km/h (0 Bft) S-SO 149 0 min 0,000 mm 0,0 UV-I 0 W/m 7,3 C 8,2 C 0,0 km/h (0 Bft) 100,00 %
25.10.2017 07:06 8,2 C 10,6 C 94 % 1024,3 hPa 0,0 l/m 0,1 km/h (0 Bft) S-SO 149 0 min 0,000 mm 0,0 UV-I 0 W/m 7,3 C 8,2 C 1,6 km/h (1 Bft) 100,00 %
25.10.2017 07:08 8,2 C 10,6 C 94 % 1024,3 hPa 0,0 l/m 1,7 km/h (1 Bft) S-SO 149 0 min 0,000 mm 0,0 UV-I 0 W/m 7,3 C 8,2 C 3,2 km/h (1 Bft) 100,00 %
25.10.2017 07:10 8,1 C 10,6 C 94 % 1024,3 hPa 0,0 l/m 1,1 km/h (1 Bft) S-SO 149 0 min 0,000 mm 0,0 UV-I 0 W/m 7,2 C 8,1 C 1,6 km/h (1 Bft) 100,00 %
25.10.2017 07:12 8,1 C 10,6 C 94 % 1024,3 hPa 0,0 l/m 0,0 km/h (0 Bft) S-SO 149 0 min 0,000 mm 0,0 UV-I 0 W/m 7,2 C 8,1 C 0,0 km/h (0 Bft) 100,00 %
25.10.2017 07:14 8,1 C 10,6 C 94 % 1024,2 hPa 0,0 l/m 0,0 km/h (0 Bft) S-SO 149 0 min 0,000 mm 0,0 UV-I 0 W/m 7,2 C 8,1 C 0,0 km/h (0 Bft) 100,00 %
25.10.2017 07:16 8,1 C 10,6 C 94 % 1024,3 hPa 0,0 l/m 0,0 km/h (0 Bft) S-SO 149 0 min 0,000 mm 0,0 UV-I 0 W/m 7,2 C 8,1 C 0,0 km/h (0 Bft) 98,44 %
25.10.2017 07:18 8,1 C 10,6 C 94 % 1024,3 hPa 0,0 l/m 0,0 km/h (0 Bft) S-SO 149 0 min 0,000 mm 0,0 UV-I 0 W/m 7,2 C 8,1 C 0,0 km/h (0 Bft) 97,87 %
25.10.2017 07:20 8,1 C 10,6 C 94 % 1024,3 hPa 0,0 l/m 0,1 km/h (0 Bft) S-SO 149 0 min 0,000 mm 0,0 UV-I 0 W/m 7,2 C 8,1 C 1,6 km/h (1 Bft) 97,22 %
25.10.2017 07:22 8,0 C 10,6 C 94 % 1024,3 hPa 0,0 l/m 0,6 km/h (0 Bft) S-SO 149 0 min 0,000 mm 0,0 UV-I 0 W/m 7,1 C 8,0 C 3,2 km/h (1 Bft) 96,43 %
25.10.2017 07:24 8,0 C 10,6 C 94 % 1024,3 hPa 0,0 l/m 0,8 km/h (0 Bft) S-SO 149 0 min 0,000 mm 0,0 UV-I 2 W/m 7,1 C 8,0 C 1,6 km/h (1 Bft) 97,56 %
25.10.2017 07:26 8,0 C 10,6 C 94 % 1024,3 hPa 0,0 l/m 0,9 km/h (0 Bft) S-SO 149 0 min 0,000 mm 0,0 UV-I 6 W/m 7,1 C 8,0 C 3,2 km/h (1 Bft) 98,00 %
25.10.2017 07:28 8,0 C 10,6 C 94 % 1024,3 hPa 0,0 l/m 1,0 km/h (0 Bft) S-SO 149 0 min 0,000 mm 0,0 UV-I 8 W/m 7,1 C 8,0 C 3,2 km/h (1 Bft) 98,00 %
25.10.2017 07:30 8,0 C 10,6 C 94 % 1024,3 hPa 0,0 l/m 0,7 km/h (0 Bft) S-SO 149 0 min 0,000 mm 0,0 UV-I 11 W/m 7,1 C 8,0 C 1,6 km/h (1 Bft) 96,00 %
25.10.2017 07:32 8,0 C 10,6 C 94 % 1024,3 hPa 0,0 l/m 1,5 km/h (1 Bft) S-SO 149 0 min 0,000 mm 0,0 UV-I 11 W/m 7,1 C 8,0 C 3,2 km/h (1 Bft) 97,87 %
25.10.2017 07:34 8,0 C 10,6 C 94 % 1024,3 hPa 0,0 l/m 1,1 km/h (1 Bft) S-SO 149 0 min 0,000 mm 0,0 UV-I 12 W/m 7,1 C 8,0 C 3,2 km/h (1 Bft) 97,87 %
25.10.2017 07:36 8,0 C 10,6 C 94 % 1024,3 hPa 0,0 l/m 0,9 km/h (0 Bft) S-SO 149 0 min 0,000 mm 0,0 UV-I 12 W/m 7,1 C 8,0 C 1,6 km/h (1 Bft) 97,37 %
25.10.2017 07:38 8,0 C 10,6 C 94 % 1024,3 hPa 0,0 l/m 0,2 km/h (0 Bft) S-SO 149 0 min 0,000 mm 0,0 UV-I 8 W/m 7,1 C 8,0 C 1,6 km/h (1 Bft) 97,87 %
25.10.2017 07:40 8,0 C 10,6 C 94 % 1024,3 hPa 0,0 l/m 0,6 km/h (0 Bft) S-SO 149 0 min 0,000 mm 0,0 UV-I 7 W/m 7,1 C 8,0 C 1,6 km/h (1 Bft) 97,73 %
25.10.2017 07:42 8,0 C 10,6 C 94 % 1024,3 hPa 0,0 l/m 0,4 km/h (0 Bft) S-SO 149 0 min 0,000 mm 0,0 UV-I 7 W/m 7,1 C 8,0 C 3,2 km/h (1 Bft) 96,00 %
25.10.2017 07:44 8,0 C 10,6 C 94 % 1024,3 hPa 0,0 l/m 0,0 km/h (0 Bft) S-SO 149 0 min 0,000 mm 0,0 UV-I 7 W/m 7,1 C 8,0 C 1,6 km/h (1 Bft) 98,00 %
25.10.2017 07:46 7,9 C 10,6 C 94 % 1024,3 hPa 0,0 l/m 0,0 km/h (0 Bft) S-SO 149 0 min 0,000 mm 0,0 UV-I 9 W/m 7,0 C 7,9 C 0,0 km/h (0 Bft) 98,00 %
25.10.2017 07:48 7,9 C 10,6 C 94 % 1024,3 hPa 0,0 l/m 0,6 km/h (0 Bft) S-SO 149 0 min 0,000 mm 0,0 UV-I 11 W/m 7,0 C 7,9 C 1,6 km/h (1 Bft) 97,37 %
25.10.2017 07:50 7,9 C 10,6 C 94 % 1024,4 hPa 0,0 l/m 0,0 km/h (0 Bft) S-SO 149 2 min 0,000 mm 0,0 UV-I 12 W/m 7,0 C 7,9 C 0,0 km/h (0 Bft) 97,87 %
25.10.2017 07:52 7,9 C 10,6 C 94 % 1024,3 hPa 0,0 l/m 0,0 km/h (0 Bft) S-SO 149 0 min 0,000 mm 0,0 UV-I 12 W/m 7,0 C 7,9 C 0,0 km/h (0 Bft) 98,00 %
25.10.2017 07:54 7,9 C 10,6 C 94 % 1024,4 hPa 0,0 l/m 0,0 km/h (0 Bft) S-SO 149 0 min 0,000 mm 0,0 UV-I 15 W/m 7,0 C 7,9 C 0,0 km/h (0 Bft) 100,00 %
25.10.2017 07:56 7,9 C 10,6 C 94 % 1024,4 hPa 0,0 l/m 0,8 km/h (0 Bft) S-SO 149 0 min 0,000 mm 0,0 UV-I 17 W/m 7,0 C 7,9 C 1,6 km/h (1 Bft) 100,00 %
25.10.2017 07:58 7,9 C 10,6 C 94 % 1024,4 hPa 0,0 l/m 1,2 km/h (1 Bft) S-SO 149 0 min 0,000 mm 0,0 UV-I 19 W/m 7,0 C 7,9 C 1,6 km/h (1 Bft) 98,00 %
25.10.2017 08:00 7,9 C 10,6 C 94 % 1024,5 hPa 0,0 l/m 1,2 km/h (1 Bft) S-SO 149 0 min 0,000 mm 0,0 UV-I 20 W/m 7,0 C 7,9 C 3,2 km/h (1 Bft) 98,00 %
25.10.2017 08:02 7,9 C 10,6 C 94 % 1024,5 hPa 0,0 l/m 0,3 km/h (0 Bft) S-SO 149 0 min 0,000 mm 0,0 UV-I 22 W/m 7,0 C 7,9 C 1,6 km/h (1 Bft) 98,00 %
25.10.2017 08:04 7,9 C 10,6 C 94 % 1024,6 hPa 0,0 l/m 0,0 km/h (0 Bft) S-SO 149 0 min 0,000 mm 0,0 UV-I 25 W/m 7,0 C 7,9 C 0,0 km/h (0 Bft) 100,00 %
25.10.2017 08:06 7,8 C 10,6 C 94 % 1024,6 hPa 0,0 l/m 0,0 km/h (0 Bft) S-SO 149 0 min 0,000 mm 0,0 UV-I 27 W/m 6,9 C 7,8 C 0,0 km/h (0 Bft) 100,00 %
25.10.2017 08:08 7,8 C 10,6 C 94 % 1024,6 hPa 0,0 l/m 0,0 km/h (0 Bft) S-SO 149 0 min 0,000 mm 0,0 UV-I 28 W/m 6,9 C 7,8 C 1,6 km/h (1 Bft) 96,00 %
25.10.2017 08:10 7,8 C 10,6 C 94 % 1024,6 hPa 0,0 l/m 0,0 km/h (0 Bft) S-SO 149 0 min 0,000 mm 0,0 UV-I 28 W/m 6,9 C 7,8 C 0,0 km/h (0 Bft) 98,00 %
25.10.2017 08:12 7,8 C 10,6 C 94 % 1024,6 hPa 0,0 l/m 0,0 km/h (0 Bft) S-SO 149 0 min 0,000 mm 0,0 UV-I 30 W/m 6,9 C 7,8 C 0,0 km/h (0 Bft) 94,74 %
25.10.2017 08:14 7,8 C 10,6 C 94 % 1024,7 hPa 0,0 l/m 0,0 km/h (0 Bft) S-SO 149 0 min 0,000 mm 0,0 UV-I 31 W/m 6,9 C 7,8 C 0,0 km/h (0 Bft) 98,11 %
25.10.2017 08:16 7,8 C 10,6 C 94 % 1024,7 hPa 0,0 l/m 0,0 km/h (0 Bft) S-SO 149 0 min 0,000 mm 0,0 UV-I 33 W/m 6,9 C 7,8 C 0,0 km/h (0 Bft) 95,74 %
25.10.2017 08:18 7,8 C 10,6 C 94 % 1024,7 hPa 0,0 l/m 0,0 km/h (0 Bft) S-SO 149 0 min 0,000 mm 0,0 UV-I 36 W/m 6,9 C 7,8 C 0,0 km/h (0 Bft) 93,62 %
25.10.2017 08:20 7,8 C 10,6 C 95 % 1024,7 hPa 0,0 l/m 0,0 km/h (0 Bft) S-SO 149 0 min 0,000 mm 0,0 UV-I 40 W/m 7,0 C 7,8 C 1,6 km/h (1 Bft) 97,37 %
25.10.2017 08:22 7,8 C 10,6 C 95 % 1024,7 hPa 0,0 l/m 0,1 km/h (0 Bft) S-SO 149 0 min 0,000 mm 0,0 UV-I 43 W/m 7,0 C 7,8 C 1,6 km/h (1 Bft) 96,23 %
25.10.2017 08:24 7,8 C 10,6 C 95 % 1024,7 hPa 0,0 l/m 0,1 km/h (0 Bft) S-SO 149 0 min 0,000 mm 0,0 UV-I 46 W/m 7,0 C 7,8 C 1,6 km/h (1 Bft) 97,87 %
25.10.2017 08:26 7,8 C 10,6 C 95 % 1024,7 hPa 0,0 l/m 1,3 km/h (1 Bft) S-SO 149 0 min 0,000 mm 0,0 UV-I 50 W/m 7,0 C 7,8 C 3,2 km/h (1 Bft) 98,00 %
25.10.2017 08:28 7,8 C 10,6 C 95 % 1024,6 hPa 0,0 l/m 0,9 km/h (0 Bft) S-SO 149 0 min 0,000 mm 0,0 UV-I 52 W/m 7,0 C 7,8 C 3,2 km/h (1 Bft) 97,56 %
25.10.2017 08:30 7,8 C 10,6 C 95 % 1024,6 hPa 0,0 l/m 0,7 km/h (0 Bft) S-SO 149 0 min 0,000 mm 0,0 UV-I 55 W/m 7,0 C 7,8 C 1,6 km/h (1 Bft) 95,74 %
25.10.2017 08:32 7,9 C 10,6 C 95 % 1024,6 hPa 0,0 l/m 0,6 km/h (0 Bft) S-SO 149 0 min 0,000 mm 0,0 UV-I 58 W/m 7,1 C 7,9 C 3,2 km/h (1 Bft) 96,23 %
25.10.2017 08:34 7,9 C 10,6 C 95 % 1024,6 hPa 0,0 l/m 1,9 km/h (1 Bft) S-SO 149 0 min 0,000 mm 0,0 UV-I 62 W/m 7,1 C 7,9 C 3,2 km/h (1 Bft) 97,62 %
25.10.2017 08:36 7,9 C 10,6 C 95 % 1024,7 hPa 0,0 l/m 0,4 km/h (0 Bft) S-SO 149 0 min 0,000 mm 0,0 UV-I 64 W/m 7,1 C 7,9 C 1,6 km/h (1 Bft) 96,00 %
25.10.2017 08:38 7,9 C 10,6 C 95 % 1024,7 hPa 0,0 l/m 0,0 km/h (0 Bft) S-SO 149 0 min 0,000 mm 0,0 UV-I 67 W/m 7,1 C 7,9 C 1,6 km/h (1 Bft) 95,74 %
25.10.2017 08:40 8,1 C 10,6 C 95 % 1024,7 hPa 0,0 l/m 0,0 km/h (0 Bft) S-SO 149 0 min 0,000 mm 0,0 UV-I 68 W/m 7,3 C 8,1 C 1,6 km/h (1 Bft) 95,12 %
25.10.2017 08:42 8,2 C 10,6 C 95 % 1024,8 hPa 0,0 l/m 0,0 km/h (0 Bft) S-SO 149 0 min 0,000 mm 0,0 UV-I 70 W/m 7,4 C 8,2 C 1,6 km/h (1 Bft) 95,74 %
25.10.2017 08:44 8,3 C 10,6 C 95 % 1024,8 hPa 0,0 l/m 0,2 km/h (0 Bft) S-SO 149 0 min 0,000 mm 0,0 UV-I 73 W/m 7,5 C 8,3 C 1,6 km/h (1 Bft) 95,74 %
25.10.2017 08:46 8,3 C 10,6 C 95 % 1024,8 hPa 0,0 l/m 0,4 km/h (0 Bft) S-SO 149 0 min 0,000 mm 0,0 UV-I 76 W/m 7,5 C 8,3 C 1,6 km/h (1 Bft) 98,00 %
25.10.2017 08:48 8,4 C 10,6 C 95 % 1024,8 hPa 0,0 l/m 0,0 km/h (0 Bft) S-SO 149 0 min 0,000 mm 0,0 UV-I 78 W/m 7,6 C 8,4 C 1,6 km/h (1 Bft) 97,87 %
25.10.2017 08:50 8,5 C 10,6 C 95 % 1024,7 hPa 0,0 l/m 0,0 km/h (0 Bft) S-SO 149 0 min 0,000 mm 0,0 UV-I 79 W/m 7,7 C 8,5 C 1,6 km/h (1 Bft) 96,00 %
25.10.2017 08:52 8,6 C 10,6 C 95 % 1024,7 hPa 0,0 l/m 0,2 km/h (0 Bft) S-SO 149 0 min 0,000 mm 0,0 UV-I 83 W/m 7,8 C 8,6 C 1,6 km/h (1 Bft) 96,00 %
25.10.2017 08:54 8,6 C 10,6 C 95 % 1024,7 hPa 0,0 l/m 0,2 km/h (0 Bft) S-SO 149 0 min 0,000 mm 0,0 UV-I 89 W/m 7,8 C 8,6 C 1,6 km/h (1 Bft) 100,00 %
25.10.2017 08:56 8,7 C 10,6 C 95 % 1024,7 hPa 0,0 l/m 0,8 km/h (0 Bft) S-SO 149 0 min 0,000 mm 0,0 UV-I 91 W/m 7,9 C 8,7 C 3,2 km/h (1 Bft) 94,34 %
25.10.2017 08:58 8,7 C 10,6 C 95 % 1024,7 hPa 0,0 l/m 0,8 km/h (0 Bft) S-SO 149 0 min 0,000 mm 0,0 UV-I 86 W/m 7,9 C 8,7 C 1,6 km/h (1 Bft) 97,56 %
25.10.2017 09:00 8,8 C 10,6 C 95 % 1024,8 hPa 0,0 l/m 1,0 km/h (0 Bft) S-SO 149 0 min 0,025 mm 0,0 UV-I 90 W/m 8,0 C 8,8 C 1,6 km/h (1 Bft) 97,87 %
25.10.2017 09:02 8,8 C 10,6 C 94 % 1024,8 hPa 0,0 l/m 1,4 km/h (1 Bft) S-SO 149 0 min 0,000 mm 0,0 UV-I 84 W/m 7,9 C 8,8 C 3,2 km/h (1 Bft) 98,00 %
25.10.2017 09:04 8,8 C 10,6 C 94 % 1024,8 hPa 0,0 l/m 0,7 km/h (0 Bft) S-SO 149 0 min 0,000 mm 0,0 UV-I 89 W/m 7,9 C 8,8 C 3,2 km/h (1 Bft) 100,00 %
25.10.2017 09:06 8,8 C 10,6 C 94 % 1024,8 hPa 0,0 l/m 1,4 km/h (1 Bft) S-SO 149 0 min 0,000 mm 0,0 UV-I 101 W/m 7,9 C 8,8 C 3,2 km/h (1 Bft) 100,00 %
25.10.2017 09:08 8,8 C 10,6 C 94 % 1024,8 hPa 0,0 l/m 2,3 km/h (1 Bft) S-SO 149 0 min 0,000 mm 0,0 UV-I 121 W/m 7,9 C 8,8 C 4,8 km/h (1 Bft) 98,11 %
25.10.2017 09:10 8,9 C 10,6 C 94 % 1024,8 hPa 0,0 l/m 2,3 km/h (1 Bft) S-SO 150 0 min 0,000 mm 0,0 UV-I 121 W/m 8,0 C 8,9 C 4,8 km/h (1 Bft) 100,00 %
25.10.2017 09:12 8,9 C 10,6 C 94 % 1024,8 hPa 0,0 l/m 2,8 km/h (1 Bft) S-SO 150 0 min 0,000 mm 0,0 UV-I 115 W/m 8,0 C 8,9 C 6,4 km/h (2 Bft) 100,00 %
25.10.2017 09:14 9,1 C 10,6 C 94 % 1024,8 hPa 0,0 l/m 2,7 km/h (1 Bft) S-SO 150 0 min 0,000 mm 0,0 UV-I 116 W/m 8,2 C 9,1 C 4,8 km/h (1 Bft) 100,00 %
25.10.2017 09:16 9,1 C 10,6 C 94 % 1024,8 hPa 0,0 l/m 3,3 km/h (1 Bft) S-SO 158 2 min 0,000 mm 0,0 UV-I 133 W/m 8,2 C 9,1 C 6,4 km/h (2 Bft) 98,00 %
25.10.2017 09:18 9,2 C 10,6 C 94 % 1024,9 hPa 0,0 l/m 3,9 km/h (1 Bft) S-SO 167 0 min 0,000 mm 0,0 UV-I 118 W/m 8,3 C 9,2 C 6,4 km/h (2 Bft) 100,00 %
25.10.2017 09:20 9,3 C 10,6 C 94 % 1025,0 hPa 0,0 l/m 3,5 km/h (1 Bft) S-SO 168 0 min 0,000 mm 0,0 UV-I 95 W/m 8,4 C 9,3 C 8,0 km/h (2 Bft) 97,87 %
25.10.2017 09:22 9,3 C 10,6 C 93 % 1025,0 hPa 0,0 l/m 1,5 km/h (1 Bft) S-SO 168 0 min 0,000 mm 0,0 UV-I 90 W/m 8,2 C 9,3 C 6,4 km/h (2 Bft) 98,11 %
25.10.2017 09:24 9,4 C 10,6 C 93 % 1025,0 hPa 0,0 l/m 2,2 km/h (1 Bft) S 170 0 min 0,000 mm 0,0 UV-I 96 W/m 8,3 C 9,4 C 6,4 km/h (2 Bft) 97,87 %
25.10.2017 09:26 9,4 C 10,6 C 93 % 1024,9 hPa 0,0 l/m 1,4 km/h (1 Bft) S 170 0 min 0,000 mm 0,0 UV-I 108 W/m 8,3 C 9,4 C 3,2 km/h (1 Bft) 97,56 %
25.10.2017 09:28 9,6 C 10,6 C 93 % 1024,9 hPa 0,0 l/m 2,7 km/h (1 Bft) S 170 0 min 0,000 mm 0,0 UV-I 111 W/m 8,5 C 9,6 C 6,4 km/h (2 Bft) 97,87 %
25.10.2017 09:30 9,6 C 10,6 C 93 % 1024,9 hPa 0,0 l/m 3,5 km/h (1 Bft) S 170 0 min 0,000 mm 0,0 UV-I 113 W/m 8,5 C 9,6 C 6,4 km/h (2 Bft) 97,87 %
25.10.2017 09:32 9,7 C 10,6 C 93 % 1024,9 hPa 0,0 l/m 2,1 km/h (1 Bft) S 170 0 min 0,000 mm 0,0 UV-I 126 W/m 8,6 C 9,7 C 3,2 km/h (1 Bft) 94,34 %
25.10.2017 09:34 9,8 C 10,6 C 92 % 1024,8 hPa 0,0 l/m 3,5 km/h (1 Bft) W-SW 253 0 min 0,000 mm 0,0 UV-I 134 W/m 8,6 C 9,8 C 6,4 km/h (2 Bft) 97,87 %
25.10.2017 09:36 9,9 C 10,6 C 92 % 1024,8 hPa 0,0 l/m 5,4 km/h (1 Bft) SW 232 0 min 0,000 mm 0,0 UV-I 129 W/m 8,7 C 9,9 C 6,4 km/h (2 Bft) 97,37 %
25.10.2017 09:38 10,0 C 10,6 C 91 % 1024,8 hPa 0,0 l/m 5,3 km/h (1 Bft) SW 236 0 min 0,000 mm 0,0 UV-I 128 W/m 8,6 C 10,0 C 8,0 km/h (2 Bft) 98,00 %
25.10.2017 09:40 10,1 C 10,6 C 91 % 1024,8 hPa 0,0 l/m 2,7 km/h (1 Bft) SW 236 0 min 0,000 mm 0,0 UV-I 118 W/m 8,7 C 10,1 C 4,8 km/h (1 Bft) 98,00 %
25.10.2017 09:42 10,2 C 10,6 C 91 % 1024,8 hPa 0,0 l/m 2,8 km/h (1 Bft) SW 236 0 min 0,000 mm 0,5 UV-I 119 W/m 8,8 C 10,2 C 4,8 km/h (1 Bft) 97,56 %
25.10.2017 09:44 10,2 C 10,6 C 91 % 1024,8 hPa 0,0 l/m 2,8 km/h (1 Bft) SW 222 0 min 0,000 mm 0,5 UV-I 139 W/m 8,8 C 10,2 C 4,8 km/h (1 Bft) 97,87 %
25.10.2017 09:46 10,3 C 10,6 C 91 % 1024,8 hPa 0,0 l/m 2,1 km/h (1 Bft) S-SW 209 2 min 0,000 mm 0,5 UV-I 170 W/m 8,9 C 10,3 C 6,4 km/h (2 Bft) 98,00 %
25.10.2017 09:48 10,3 C 10,6 C 91 % 1024,8 hPa 0,0 l/m 2,2 km/h (1 Bft) S-SO 159 2 min 0,000 mm 0,5 UV-I 199 W/m 8,9 C 10,3 C 3,2 km/h (1 Bft) 96,23 %
25.10.2017 09:50 10,3 C 10,6 C 91 % 1024,8 hPa 0,0 l/m 1,6 km/h (1 Bft) S-SO 159 2 min 0,000 mm 0,5 UV-I 214 W/m 8,9 C 10,3 C 3,2 km/h (1 Bft) 100,00 %
25.10.2017 09:52 10,4 C 10,6 C 91 % 1024,9 hPa 0,0 l/m 1,1 km/h (1 Bft) S-SO 159 2 min 0,000 mm 0,5 UV-I 202 W/m 9,0 C 10,4 C 3,2 km/h (1 Bft) 96,00 %
25.10.2017 09:54 10,6 C 10,6 C 91 % 1024,8 hPa 0,0 l/m 1,9 km/h (1 Bft) S-SO 159 2 min 0,000 mm 0,5 UV-I 205 W/m 9,2 C 10,6 C 3,2 km/h (1 Bft) 100,00 %
25.10.2017 09:56 10,7 C 10,6 C 90 % 1024,8 hPa 0,0 l/m 1,9 km/h (1 Bft) S-SO 159 2 min 0,000 mm 0,6 UV-I 182 W/m 9,1 C 10,7 C 3,2 km/h (1 Bft) 98,00 %
25.10.2017 09:58 10,7 C 10,6 C 89 % 1024,9 hPa 0,0 l/m 0,3 km/h (0 Bft) S-SO 159 0 min 0,000 mm 0,6 UV-I 163 W/m 9,0 C 10,7 C 3,2 km/h (1 Bft) 97,22 %
25.10.2017 10:00 10,7 C 10,6 C 89 % 1024,9 hPa 0,0 l/m 1,3 km/h (1 Bft) S-SO 159 0 min 0,051 mm 0,6 UV-I 169 W/m 9,0 C 10,7 C 6,4 km/h (2 Bft) 100,00 %
25.10.2017 10:02 10,7 C 10,6 C 89 % 1024,9 hPa 0,0 l/m 1,8 km/h (1 Bft) S 172 2 min 0,000 mm 0,6 UV-I 213 W/m 9,0 C 10,7 C 4,8 km/h (1 Bft) 100,00 %
25.10.2017 10:04 10,7 C 10,6 C 89 % 1024,8 hPa 0,0 l/m 2,0 km/h (1 Bft) S 172 0 min 0,000 mm 0,6 UV-I 179 W/m 9,0 C 10,7 C 3,2 km/h (1 Bft) 100,00 %
25.10.2017 10:06 10,8 C 10,6 C 89 % 1024,8 hPa 0,0 l/m 2,1 km/h (1 Bft) S 172 0 min 0,000 mm 0,6 UV-I 178 W/m 9,1 C 10,8 C 3,2 km/h (1 Bft) 100,00 %
25.10.2017 10:08 10,9 C 10,6 C 89 % 1024,8 hPa 0,0 l/m 2,7 km/h (1 Bft) S 172 0 min 0,000 mm 0,7 UV-I 163 W/m 9,2 C 10,9 C 4,8 km/h (1 Bft) 100,00 %
25.10.2017 10:10 10,9 C 10,6 C 88 % 1024,8 hPa 0,0 l/m 2,4 km/h (1 Bft) S 172 0 min 0,000 mm 0,7 UV-I 184 W/m 9,0 C 10,9 C 4,8 km/h (1 Bft) 100,00 %
25.10.2017 10:12 10,9 C 10,6 C 88 % 1024,8 hPa 0,0 l/m 2,3 km/h (1 Bft) S 172 2 min 0,000 mm 0,7 UV-I 196 W/m 9,0 C 10,9 C 3,2 km/h (1 Bft) 100,00 %
25.10.2017 10:14 11,0 C 10,6 C 88 % 1024,8 hPa 0,0 l/m 2,0 km/h (1 Bft) S 172 2 min 0,000 mm 0,7 UV-I 198 W/m 9,1 C 11,0 C 3,2 km/h (1 Bft) 100,00 %
25.10.2017 10:16 11,0 C 10,6 C 87 % 1024,8 hPa 0,0 l/m 1,9 km/h (1 Bft) S 172 0 min 0,000 mm 0,7 UV-I 167 W/m 8,9 C 11,0 C 3,2 km/h (1 Bft) 100,00 %
25.10.2017 10:18 11,0 C 10,6 C 87 % 1024,8 hPa 0,0 l/m 0,5 km/h (0 Bft) S 172 2 min 0,000 mm 0,7 UV-I 201 W/m 8,9 C 11,0 C 1,6 km/h (1 Bft) 100,00 %
25.10.2017 10:20 11,2 C 10,6 C 88 % 1024,8 hPa 0,0 l/m 0,0 km/h (0 Bft) S 172 2 min 0,000 mm 0,8 UV-I 262 W/m 9,3 C 11,2 C 1,6 km/h (1 Bft) 98,11 %
25.10.2017 10:22 11,2 C 10,6 C 87 % 1024,8 hPa 0,0 l/m 0,0 km/h (0 Bft) S 172 2 min 0,000 mm 0,8 UV-I 260 W/m 9,1 C 11,2 C 0,0 km/h (0 Bft) 100,00 %
25.10.2017 10:24 11,3 C 10,6 C 87 % 1024,9 hPa 0,0 l/m 0,0 km/h (0 Bft) S 172 2 min 0,000 mm 0,9 UV-I 242 W/m 9,2 C 11,3 C 0,0 km/h (0 Bft) 100,00 %
25.10.2017 10:26 11,4 C 10,6 C 87 % 1024,9 hPa 0,0 l/m 0,0 km/h (0 Bft) S 172 2 min 0,000 mm 0,9 UV-I 431 W/m 9,3 C 11,4 C 0,0 km/h (0 Bft) 100,00 %
25.10.2017 10:28 11,6 C 10,6 C 87 % 1024,9 hPa 0,0 l/m 0,7 km/h (0 Bft) S 174 2 min 0,000 mm 0,9 UV-I 335 W/m 9,5 C 11,6 C 3,2 km/h (1 Bft) 100,00 %
25.10.2017 10:30 11,7 C 10,6 C 86 % 1024,8 hPa 0,0 l/m 0,5 km/h (0 Bft) S 174 2 min 0,000 mm 1,0 UV-I 319 W/m 9,4 C 11,7 C 1,6 km/h (1 Bft) 100,00 %
25.10.2017 10:32 11,8 C 10,6 C 86 % 1024,8 hPa 0,0 l/m 1,0 km/h (0 Bft) S 174 2 min 0,000 mm 0,9 UV-I 282 W/m 9,5 C 11,8 C 3,2 km/h (1 Bft) 98,39 %
25.10.2017 10:34 11,7 C 10,6 C 85 % 1024,9 hPa 0,0 l/m 2,2 km/h (1 Bft) S 175 2 min 0,000 mm 0,9 UV-I 239 W/m 9,3 C 11,7 C 4,8 km/h (1 Bft) 100,00 %
25.10.2017 10:36 11,7 C 10,6 C 85 % 1024,9 hPa 0,0 l/m 1,4 km/h (1 Bft) S 175 2 min 0,000 mm 0,9 UV-I 241 W/m 9,3 C 11,7 C 3,2 km/h (1 Bft) 100,00 %
25.10.2017 10:38 11,7 C 10,6 C 85 % 1024,9 hPa 0,0 l/m 0,2 km/h (0 Bft) S 175 2 min 0,000 mm 0,9 UV-I 239 W/m 9,3 C 11,7 C 1,6 km/h (1 Bft) 100,00 %
25.10.2017 10:40 11,8 C 10,6 C 86 % 1024,8 hPa 0,0 l/m 1,2 km/h (1 Bft) S 175 2 min 0,000 mm 0,9 UV-I 257 W/m 9,5 C 11,8 C 3,2 km/h (1 Bft) 100,00 %
25.10.2017 10:42 11,9 C 10,6 C 86 % 1024,8 hPa 0,0 l/m 2,5 km/h (1 Bft) S 175 2 min 0,000 mm 1,0 UV-I 318 W/m 9,6 C 11,9 C 4,8 km/h (1 Bft) 100,00 %
25.10.2017 10:44 12,1 C 10,6 C 84 % 1024,9 hPa 0,0 l/m 2,3 km/h (1 Bft) W 268 2 min 0,000 mm 1,0 UV-I 364 W/m 9,5 C 12,1 C 4,8 km/h (1 Bft) 100,00 %
25.10.2017 10:46 12,1 C 10,6 C 83 % 1024,8 hPa 0,0 l/m 0,7 km/h (0 Bft) W 268 2 min 0,000 mm 1,0 UV-I 392 W/m 9,3 C 12,1 C 3,2 km/h (1 Bft) 98,00 %
25.10.2017 10:48 12,2 C 10,6 C 83 % 1024,9 hPa 0,0 l/m 0,0 km/h (0 Bft) W 268 2 min 0,000 mm 0,9 UV-I 337 W/m 9,4 C 12,2 C 1,6 km/h (1 Bft) 100,00 %
25.10.2017 10:50 12,3 C 10,6 C 82 % 1024,9 hPa 0,0 l/m 0,3 km/h (0 Bft) W 268 2 min 0,000 mm 0,9 UV-I 238 W/m 9,3 C 12,3 C 1,6 km/h (1 Bft) 100,00 %
25.10.2017 10:52 12,3 C 10,6 C 82 % 1024,9 hPa 0,0 l/m 0,3 km/h (0 Bft) W 268 0 min 0,000 mm 0,8 UV-I 222 W/m 9,3 C 12,3 C 1,6 km/h (1 Bft) 100,00 %
25.10.2017 10:54 12,3 C 10,6 C 82 % 1024,9 hPa 0,0 l/m 0,3 km/h (0 Bft) W 268 0 min 0,000 mm 0,8 UV-I 206 W/m 9,3 C 12,3 C 1,6 km/h (1 Bft) 100,00 %
25.10.2017 10:56 12,3 C 10,6 C 84 % 1024,9 hPa 0,0 l/m 0,0 km/h (0 Bft) W 268 0 min 0,000 mm 0,8 UV-I 197 W/m 9,7 C 12,3 C 0,0 km/h (0 Bft) 100,00 %
25.10.2017 10:58 12,4 C 10,6 C 84 % 1024,9 hPa 0,0 l/m 0,1 km/h (0 Bft) W 268 0 min 0,000 mm 0,8 UV-I 197 W/m 9,8 C 12,4 C 1,6 km/h (1 Bft) 100,00 %
25.10.2017 11:00 12,4 C 10,6 C 82 % 1024,9 hPa 0,0 l/m 1,2 km/h (1 Bft) W 271 0 min 0,127 mm 0,8 UV-I 200 W/m 9,4 C 12,4 C 3,2 km/h (1 Bft) 100,00 %
25.10.2017 11:02 12,5 C 10,6 C 83 % 1024,8 hPa 0,0 l/m 1,0 km/h (0 Bft) W 271 0 min 0,000 mm 0,8 UV-I 190 W/m 9,7 C 12,5 C 3,2 km/h (1 Bft) 98,08 %
25.10.2017 11:04 12,5 C 10,6 C 83 % 1024,8 hPa 0,0 l/m 0,9 km/h (0 Bft) W 271 0 min 0,000 mm 0,8 UV-I 182 W/m 9,7 C 12,5 C 1,6 km/h (1 Bft) 100,00 %
25.10.2017 11:06 12,6 C 10,6 C 82 % 1024,8 hPa 0,0 l/m 1,0 km/h (0 Bft) W 271 0 min 0,000 mm 0,9 UV-I 191 W/m 9,6 C 12,6 C 1,6 km/h (1 Bft) 97,56 %
25.10.2017 11:08 12,6 C 10,6 C 82 % 1024,8 hPa 0,0 l/m 1,1 km/h (1 Bft) W 271 0 min 0,000 mm 0,9 UV-I 211 W/m 9,6 C 12,6 C 3,2 km/h (1 Bft) 100,00 %
25.10.2017 11:10 12,6 C 10,6 C 82 % 1024,8 hPa 0,0 l/m 0,0 km/h (0 Bft) W 271 0 min 0,000 mm 0,9 UV-I 224 W/m 9,6 C 12,6 C 1,6 km/h (1 Bft) 100,00 %
25.10.2017 11:12 12,6 C 10,6 C 82 % 1024,8 hPa 0,0 l/m 1,0 km/h (0 Bft) W 271 0 min 0,000 mm 0,9 UV-I 215 W/m 9,6 C 12,6 C 3,2 km/h (1 Bft) 100,00 %
25.10.2017 11:14 12,7 C 10,6 C 82 % 1024,8 hPa 0,0 l/m 0,0 km/h (0 Bft) W 271 0 min 0,000 mm 0,9 UV-I 204 W/m 9,7 C 12,7 C 0,0 km/h (0 Bft) 98,00 %
25.10.2017 11:16 12,7 C 10,6 C 82 % 1024,8 hPa 0,0 l/m 1,2 km/h (1 Bft) W-NW 282 0 min 0,000 mm 0,9 UV-I 203 W/m 9,7 C 12,7 C 3,2 km/h (1 Bft) 95,74 %
25.10.2017 11:18 12,7 C 10,6 C 82 % 1024,8 hPa 0,0 l/m 0,9 km/h (0 Bft) W-NW 283 0 min 0,000 mm 0,9 UV-I 208 W/m 9,7 C 12,7 C 3,2 km/h (1 Bft) 96,23 %
25.10.2017 11:20 12,8 C 10,6 C 81 % 1024,9 hPa 0,0 l/m 1,2 km/h (1 Bft) W-NW 283 0 min 0,000 mm 1,0 UV-I 214 W/m 9,6 C 12,8 C 3,2 km/h (1 Bft) 97,14 %
25.10.2017 11:22 12,8 C 10,6 C 80 % 1024,9 hPa 0,0 l/m 2,1 km/h (1 Bft) NW 317 0 min 0,000 mm 0,9 UV-I 207 W/m 9,4 C 12,8 C 4,8 km/h (1 Bft) 98,00 %
25.10.2017 11:24 12,8 C 10,6 C 79 % 1024,8 hPa 0,0 l/m 0,4 km/h (0 Bft) NW 317 0 min 0,000 mm 0,9 UV-I 187 W/m 9,2 C 12,8 C 3,2 km/h (1 Bft) 98,11 %
25.10.2017 11:26 12,8 C 10,6 C 79 % 1024,8 hPa 0,0 l/m 0,1 km/h (0 Bft) NW 317 0 min 0,000 mm 0,8 UV-I 175 W/m 9,2 C 12,8 C 1,6 km/h (1 Bft) 97,87 %
25.10.2017 11:28 12,8 C 10,6 C 80 % 1024,8 hPa 0,0 l/m 0,4 km/h (0 Bft) NW 317 0 min 0,000 mm 0,8 UV-I 166 W/m 9,4 C 12,8 C 3,2 km/h (1 Bft) 97,87 %
25.10.2017 11:30 12,9 C 10,6 C 79 % 1024,9 hPa 0,0 l/m 1,3 km/h (1 Bft) NW 317 0 min 0,000 mm 0,8 UV-I 158 W/m 9,3 C 12,9 C 3,2 km/h (1 Bft) 97,87 %
25.10.2017 11:32 12,8 C 10,6 C 79 % 1024,9 hPa 0,0 l/m 0,4 km/h (0 Bft) NW 317 0 min 0,000 mm 0,8 UV-I 154 W/m 9,2 C 12,8 C 3,2 km/h (1 Bft) 97,37 %
25.10.2017 11:34 12,8 C 10,6 C 78 % 1024,8 hPa 0,0 l/m 1,3 km/h (1 Bft) NW 318 0 min 0,000 mm 0,8 UV-I 168 W/m 9,1 C 12,8 C 3,2 km/h (1 Bft) 96,23 %
25.10.2017 11:36 12,8 C 10,6 C 80 % 1024,9 hPa 0,0 l/m 0,3 km/h (0 Bft) N-NW 328 0 min 0,000 mm 0,8 UV-I 179 W/m 9,4 C 12,8 C 1,6 km/h (1 Bft) 98,00 %
25.10.2017 11:38 12,8 C 10,6 C 80 % 1024,9 hPa 0,0 l/m 0,8 km/h (0 Bft) N-NW 328 0 min 0,000 mm 0,8 UV-I 181 W/m 9,4 C 12,8 C 3,2 km/h (1 Bft) 97,37 %
25.10.2017 11:40 12,9 C 10,6 C 81 % 1024,9 hPa 0,0 l/m 1,5 km/h (1 Bft) N-NW 328 0 min 0,000 mm 0,8 UV-I 173 W/m 9,7 C 12,9 C 3,2 km/h (1 Bft) 97,87 %
25.10.2017 11:42 12,9 C 10,6 C 80 % 1024,9 hPa 0,0 l/m 0,2 km/h (0 Bft) N-NW 328 0 min 0,000 mm 0,8 UV-I 168 W/m 9,5 C 12,9 C 1,6 km/h (1 Bft) 98,21 %
25.10.2017 11:44 12,9 C 10,6 C 80 % 1024,9 hPa 0,0 l/m 0,5 km/h (0 Bft) N-NW 328 0 min 0,000 mm 0,8 UV-I 171 W/m 9,5 C 12,9 C 1,6 km/h (1 Bft) 97,37 %
25.10.2017 11:46 12,9 C 10,6 C 80 % 1024,9 hPa 0,0 l/m 1,3 km/h (1 Bft) N-NW 328 0 min 0,000 mm 0,8 UV-I 171 W/m 9,5 C 12,9 C 3,2 km/h (1 Bft) 98,00 %
25.10.2017 11:48 12,9 C 10,6 C 80 % 1024,9 hPa 0,0 l/m 1,6 km/h (1 Bft) N-NW 328 0 min 0,000 mm 0,8 UV-I 171 W/m 9,5 C 12,9 C 3,2 km/h (1 Bft) 100,00 %
25.10.2017 11:50 12,9 C 10,6 C 80 % 1024,9 hPa 0,0 l/m 0,2 km/h (0 Bft) N-NW 328 0 min 0,000 mm 0,9 UV-I 175 W/m 9,5 C 12,9 C 1,6 km/h (1 Bft) 100,00 %
25.10.2017 11:52 12,9 C 10,6 C 79 % 1024,9 hPa 0,0 l/m 0,0 km/h (0 Bft) N-NW 328 0 min 0,000 mm 0,9 UV-I 176 W/m 9,3 C 12,9 C 1,6 km/h (1 Bft) 100,00 %
25.10.2017 11:54 12,9 C 10,6 C 79 % 1024,9 hPa 0,0 l/m 0,1 km/h (0 Bft) N-NW 328 0 min 0,000 mm 0,9 UV-I 182 W/m 9,3 C 12,9 C 1,6 km/h (1 Bft) 100,00 %
25.10.2017 11:56 12,9 C 10,6 C 79 % 1024,9 hPa 0,0 l/m 0,0 km/h (0 Bft) N-NW 328 0 min 0,000 mm 1,0 UV-I 194 W/m 9,3 C 12,9 C 0,0 km/h (0 Bft) 97,14 %
25.10.2017 11:58 13,0 C 10,6 C 79 % 1024,9 hPa 0,0 l/m 0,3 km/h (0 Bft) N-NW 328 0 min 0,000 mm 1,1 UV-I 211 W/m 9,4 C 13,0 C 3,2 km/h (1 Bft) 100,00 %
25.10.2017 12:00 13,1 C 10,6 C 80 % 1024,9 hPa 0,0 l/m 1,0 km/h (0 Bft) N-NW 327 0 min 0,102 mm 1,2 UV-I 242 W/m 9,7 C 13,1 C 3,2 km/h (1 Bft) 100,00 %
25.10.2017 12:02 13,2 C 10,6 C 80 % 1025,0 hPa 0,0 l/m 2,1 km/h (1 Bft) N-NW 327 0 min 0,000 mm 1,3 UV-I 266 W/m 9,8 C 13,2 C 3,2 km/h (1 Bft) 96,00 %
25.10.2017 12:04 13,2 C 10,6 C 78 % 1025,0 hPa 0,0 l/m 0,8 km/h (0 Bft) N-NW 327 2 min 0,000 mm 1,3 UV-I 272 W/m 9,4 C 13,2 C 3,2 km/h (1 Bft) 97,87 %
25.10.2017 12:06 13,2 C 10,6 C 79 % 1025,0 hPa 0,0 l/m 0,5 km/h (0 Bft) N-NW 327 2 min 0,000 mm 1,4 UV-I 300 W/m 9,6 C 13,2 C 3,2 km/h (1 Bft) 97,37 %
25.10.2017 12:08 13,3 C 10,6 C 78 % 1025,0 hPa 0,0 l/m 0,6 km/h (0 Bft) N-NW 327 2 min 0,000 mm 1,4 UV-I 349 W/m 9,5 C 13,3 C 1,6 km/h (1 Bft) 97,87 %
25.10.2017 12:10 13,3 C 10,6 C 79 % 1025,0 hPa 0,0 l/m 0,5 km/h (0 Bft) N-NW 327 2 min 0,000 mm 1,5 UV-I 347 W/m 9,7 C 13,3 C 1,6 km/h (1 Bft) 100,00 %
25.10.2017 12:12 13,4 C 10,6 C 79 % 1025,0 hPa 0,0 l/m 0,8 km/h (0 Bft) N-NW 328 2 min 0,000 mm 1,5 UV-I 354 W/m 9,8 C 13,4 C 3,2 km/h (1 Bft) 98,00 %
25.10.2017 12:14 13,4 C 10,6 C 79 % 1024,9 hPa 0,0 l/m 1,2 km/h (1 Bft) N-NW 327 2 min 0,000 mm 1,5 UV-I 371 W/m 9,8 C 13,4 C 3,2 km/h (1 Bft) 100,00 %
25.10.2017 12:16 13,5 C 10,6 C 78 % 1025,0 hPa 0,0 l/m 1,2 km/h (1 Bft) N-NW 327 2 min 0,000 mm 1,5 UV-I 390 W/m 9,7 C 13,5 C 3,2 km/h (1 Bft) 100,00 %
25.10.2017 12:18 13,5 C 10,6 C 79 % 1025,0 hPa 0,0 l/m 0,4 km/h (0 Bft) N-NW 327 2 min 0,000 mm 1,5 UV-I 379 W/m 9,9 C 13,5 C 1,6 km/h (1 Bft) 100,00 %
25.10.2017 12:20 13,7 C 10,6 C 80 % 1025,0 hPa 0,0 l/m 0,5 km/h (0 Bft) N-NW 327 2 min 0,000 mm 1,4 UV-I 350 W/m 10,3 C 13,7 C 3,2 km/h (1 Bft) 100,00 %
25.10.2017 12:22 13,7 C 10,6 C 80 % 1024,9 hPa 0,0 l/m 0,1 km/h (0 Bft) N-NW 327 2 min 0,000 mm 1,3 UV-I 314 W/m 10,3 C 13,7 C 1,6 km/h (1 Bft) 98,11 %
25.10.2017 12:24 13,7 C 10,6 C 78 % 1024,9 hPa 0,0 l/m 1,8 km/h (1 Bft) N-NW 327 2 min 0,000 mm 1,2 UV-I 276 W/m 9,9 C 13,7 C 3,2 km/h (1 Bft) 100,00 %
25.10.2017 12:26 13,7 C 10,6 C 79 % 1024,9 hPa 0,0 l/m 1,9 km/h (1 Bft) NW 326 0 min 0,000 mm 1,1 UV-I 247 W/m 10,1 C 13,7 C 4,8 km/h (1 Bft) 97,92 %
25.10.2017 12:28 13,7 C 10,6 C 78 % 1024,9 hPa 0,0 l/m 2,8 km/h (1 Bft) W 265 0 min 0,000 mm 1,1 UV-I 232 W/m 9,9 C 13,7 C 4,8 km/h (1 Bft) 100,00 %
25.10.2017 12:30 13,6 C 10,6 C 77 % 1024,8 hPa 0,0 l/m 1,3 km/h (1 Bft) W 265 0 min 0,000 mm 1,1 UV-I 226 W/m 9,6 C 13,6 C 3,2 km/h (1 Bft) 100,00 %
25.10.2017 12:32 13,6 C 10,6 C 77 % 1024,9 hPa 0,0 l/m 0,1 km/h (0 Bft) W 265 0 min 0,000 mm 1,1 UV-I 233 W/m 9,6 C 13,6 C 1,6 km/h (1 Bft) 98,11 %
25.10.2017 12:34 13,7 C 10,6 C 78 % 1024,9 hPa 0,0 l/m 0,0 km/h (0 Bft) W 265 0 min 0,000 mm 1,2 UV-I 250 W/m 9,9 C 13,7 C 0,0 km/h (0 Bft) 100,00 %
25.10.2017 12:36 13,7 C 10,6 C 77 % 1024,9 hPa 0,0 l/m 0,1 km/h (0 Bft) W 267 0 min 0,000 mm 1,3 UV-I 265 W/m 9,7 C 13,7 C 1,6 km/h (1 Bft) 100,00 %
25.10.2017 12:38 13,8 C 10,6 C 79 % 1024,7 hPa 0,0 l/m 0,3 km/h (0 Bft) W 267 2 min 0,000 mm 1,3 UV-I 282 W/m 10,2 C 13,8 C 1,6 km/h (1 Bft) 100,00 %
25.10.2017 12:40 13,9 C 10,6 C 80 % 1024,7 hPa 0,0 l/m 0,1 km/h (0 Bft) W 267 2 min 0,000 mm 1,4 UV-I 307 W/m 10,5 C 13,9 C 1,6 km/h (1 Bft) 100,00 %
25.10.2017 12:42 14,0 C 10,6 C 78 % 1024,7 hPa 0,0 l/m 0,3 km/h (0 Bft) W 267 2 min 0,000 mm 1,4 UV-I 302 W/m 10,2 C 14,0 C 1,6 km/h (1 Bft) 100,00 %
25.10.2017 12:44 14,1 C 10,6 C 77 % 1024,7 hPa 0,0 l/m 1,0 km/h (0 Bft) NW 308 2 min 0,000 mm 1,4 UV-I 298 W/m 10,1 C 14,1 C 3,2 km/h (1 Bft) 100,00 %
25.10.2017 12:46 14,0 C 10,6 C 78 % 1024,7 hPa 0,0 l/m 2,8 km/h (1 Bft) NW 323 2 min 0,000 mm 1,4 UV-I 301 W/m 10,2 C 14,0 C 4,8 km/h (1 Bft) 100,00 %
25.10.2017 12:48 14,1 C 10,6 C 78 % 1024,7 hPa 0,0 l/m 2,3 km/h (1 Bft) NW 323 2 min 0,000 mm 1,5 UV-I 353 W/m 10,3 C 14,1 C 4,8 km/h (1 Bft) 98,00 %
25.10.2017 12:50 14,2 C 10,6 C 78 % 1024,7 hPa 0,0 l/m 0,8 km/h (0 Bft) NW 323 2 min 0,000 mm 1,6 UV-I 359 W/m 10,4 C 14,2 C 3,2 km/h (1 Bft) 100,00 %
25.10.2017 12:52 14,2 C 10,6 C 76 % 1024,7 hPa 0,0 l/m 0,4 km/h (0 Bft) NW 323 2 min 0,000 mm 1,6 UV-I 381 W/m 10,0 C 14,2 C 3,2 km/h (1 Bft) 100,00 %
25.10.2017 12:54 14,3 C 10,6 C 76 % 1024,7 hPa 0,0 l/m 0,0 km/h (0 Bft) NW 323 2 min 0,000 mm 1,7 UV-I 445 W/m 10,1 C 14,3 C 1,6 km/h (1 Bft) 100,00 %
25.10.2017 12:56 14,4 C 10,6 C 79 % 1024,7 hPa 0,0 l/m 0,9 km/h (0 Bft) NW 321 2 min 0,000 mm 1,7 UV-I 463 W/m 10,8 C 14,4 C 3,2 km/h (1 Bft) 100,00 %
25.10.2017 12:58 14,5 C 10,6 C 74 % 1024,7 hPa 0,0 l/m 2,5 km/h (1 Bft) NW 311 2 min 0,000 mm 1,6 UV-I 397 W/m 9,9 C 14,5 C 4,8 km/h (1 Bft) 100,00 %
25.10.2017 13:00 14,6 C 10,6 C 75 % 1024,7 hPa 0,0 l/m 3,0 km/h (1 Bft) W 265 2 min 0,178 mm 1,6 UV-I 431 W/m 10,2 C 14,6 C 6,4 km/h (2 Bft) 100,00 %
25.10.2017 13:02 14,6 C 10,6 C 74 % 1024,6 hPa 0,0 l/m 5,9 km/h (2 Bft) W-SW 253 2 min 0,000 mm 1,5 UV-I 384 W/m 10,0 C 14,6 C 8,0 km/h (2 Bft) 100,00 %
25.10.2017 13:04 14,5 C 10,6 C 74 % 1024,6 hPa 0,0 l/m 2,6 km/h (1 Bft) W-SW 253 2 min 0,000 mm 1,4 UV-I 340 W/m 9,9 C 14,5 C 4,8 km/h (1 Bft) 100,00 %
25.10.2017 13:06 14,3 C 10,6 C 74 % 1024,6 hPa 0,0 l/m 4,0 km/h (1 Bft) W-SW 245 2 min 0,000 mm 1,4 UV-I 311 W/m 9,7 C 14,3 C 6,4 km/h (2 Bft) 100,00 %
25.10.2017 13:08 14,3 C 10,6 C 75 % 1024,5 hPa 0,0 l/m 5,1 km/h (1 Bft) W-SW 239 2 min 0,000 mm 1,5 UV-I 346 W/m 9,9 C 14,3 C 6,4 km/h (2 Bft) 100,00 %
25.10.2017 13:10 14,4 C 10,6 C 75 % 1024,5 hPa 0,0 l/m 2,9 km/h (1 Bft) W-SW 239 2 min 0,000 mm 1,6 UV-I 384 W/m 10,0 C 14,4 C 6,4 km/h (2 Bft) 98,11 %
25.10.2017 13:12 14,5 C 10,6 C 74 % 1024,4 hPa 0,0 l/m 1,6 km/h (1 Bft) W-SW 239 2 min 0,000 mm 1,7 UV-I 447 W/m 9,9 C 14,5 C 3,2 km/h (1 Bft) 100,00 %
25.10.2017 13:14 14,6 C 10,6 C 76 % 1024,4 hPa 0,0 l/m 1,7 km/h (1 Bft) W-SW 250 2 min 0,000 mm 1,7 UV-I 462 W/m 10,4 C 14,6 C 3,2 km/h (1 Bft) 100,00 %
25.10.2017 13:16 14,7 C 10,6 C 73 % 1024,4 hPa 0,0 l/m 1,1 km/h (1 Bft) W-SW 255 2 min 0,000 mm 1,6 UV-I 400 W/m 9,9 C 14,7 C 3,2 km/h (1 Bft) 95,74 %
25.10.2017 13:18 14,8 C 10,6 C 73 % 1024,5 hPa 0,0 l/m 0,3 km/h (0 Bft) W 261 2 min 0,000 mm 1,6 UV-I 366 W/m 10,0 C 14,8 C 1,6 km/h (1 Bft) 97,56 %
25.10.2017 13:20 14,8 C 10,6 C 74 % 1024,4 hPa 0,0 l/m 0,3 km/h (0 Bft) W 261 2 min 0,000 mm 1,5 UV-I 329 W/m 10,2 C 14,8 C 1,6 km/h (1 Bft) 98,11 %
25.10.2017 13:22 14,9 C 10,6 C 73 % 1024,4 hPa 0,0 l/m 1,1 km/h (1 Bft) W 261 2 min 0,000 mm 1,6 UV-I 344 W/m 10,1 C 14,9 C 3,2 km/h (1 Bft) 97,14 %
25.10.2017 13:24 14,9 C 10,6 C 76 % 1024,4 hPa 0,0 l/m 0,3 km/h (0 Bft) W 261 2 min 0,000 mm 1,6 UV-I 396 W/m 10,7 C 14,9 C 1,6 km/h (1 Bft) 95,74 %
25.10.2017 13:26 15,1 C 10,6 C 75 % 1024,3 hPa 0,0 l/m 1,0 km/h (0 Bft) W 275 2 min 0,000 mm 1,7 UV-I 385 W/m 10,7 C 15,1 C 3,2 km/h (1 Bft) 96,23 %
25.10.2017 13:28 15,1 C 10,6 C 72 % 1024,3 hPa 0,0 l/m 0,6 km/h (0 Bft) W 265 2 min 0,000 mm 1,6 UV-I 388 W/m 10,1 C 15,1 C 3,2 km/h (1 Bft) 98,00 %
25.10.2017 13:30 15,0 C 10,6 C 73 % 1024,3 hPa 0,0 l/m 1,9 km/h (1 Bft) W 273 2 min 0,000 mm 1,6 UV-I 424 W/m 10,2 C 15,0 C 4,8 km/h (1 Bft) 97,56 %
25.10.2017 13:32 14,9 C 10,6 C 73 % 1024,3 hPa 0,0 l/m 4,7 km/h (1 Bft) W 267 2 min 0,000 mm 1,6 UV-I 431 W/m 10,1 C 14,9 C 6,4 km/h (2 Bft) 96,23 %
25.10.2017 13:34 14,9 C 10,6 C 73 % 1024,3 hPa 0,0 l/m 2,3 km/h (1 Bft) W 277 2 min 0,000 mm 1,5 UV-I 387 W/m 10,1 C 14,9 C 4,8 km/h (1 Bft) 97,37 %
25.10.2017 13:36 14,9 C 10,6 C 73 % 1024,2 hPa 0,0 l/m 3,8 km/h (1 Bft) W 259 2 min 0,000 mm 1,4 UV-I 338 W/m 10,1 C 14,9 C 6,4 km/h (2 Bft) 92,45 %
25.10.2017 13:38 14,9 C 10,6 C 72 % 1024,2 hPa 0,0 l/m 1,2 km/h (1 Bft) W 259 2 min 0,000 mm 1,3 UV-I 310 W/m 9,9 C 14,9 C 3,2 km/h (1 Bft) 97,37 %
25.10.2017 13:40 14,8 C 10,6 C 72 % 1024,1 hPa 0,0 l/m 1,0 km/h (0 Bft) W 261 2 min 0,000 mm 1,4 UV-I 349 W/m 9,8 C 14,8 C 3,2 km/h (1 Bft) 98,11 %
25.10.2017 13:42 14,7 C 10,6 C 73 % 1024,1 hPa 0,0 l/m 1,2 km/h (1 Bft) W 261 2 min 0,000 mm 1,3 UV-I 303 W/m 9,9 C 14,7 C 3,2 km/h (1 Bft) 98,11 %
25.10.2017 13:44 14,8 C 10,6 C 74 % 1024,1 hPa 0,0 l/m 1,6 km/h (1 Bft) W 265 2 min 0,000 mm 1,3 UV-I 308 W/m 10,2 C 14,8 C 4,8 km/h (1 Bft) 95,74 %
25.10.2017 13:46 14,8 C 10,6 C 73 % 1024,1 hPa 0,0 l/m 0,9 km/h (0 Bft) W 265 2 min 0,000 mm 1,2 UV-I 267 W/m 10,0 C 14,8 C 3,2 km/h (1 Bft) 95,12 %
25.10.2017 13:48 14,9 C 10,6 C 75 % 1024,0 hPa 0,0 l/m 1,5 km/h (1 Bft) W 265 0 min 0,000 mm 1,2 UV-I 248 W/m 10,5 C 14,9 C 3,2 km/h (1 Bft) 97,22 %
25.10.2017 13:50 14,9 C 10,6 C 74 % 1024,0 hPa 0,0 l/m 1,2 km/h (1 Bft) W 265 0 min 0,000 mm 1,2 UV-I 251 W/m 10,3 C 14,9 C 4,8 km/h (1 Bft) 96,43 %
25.10.2017 13:52 15,0 C 10,6 C 74 % 1023,9 hPa 0,0 l/m 0,7 km/h (0 Bft) W 265 0 min 0,000 mm 1,1 UV-I 243 W/m 10,4 C 15,0 C 3,2 km/h (1 Bft) 95,74 %
25.10.2017 13:54 15,0 C 10,6 C 75 % 1024,0 hPa 0,0 l/m 1,4 km/h (1 Bft) W 264 2 min 0,000 mm 1,2 UV-I 262 W/m 10,6 C 15,0 C 3,2 km/h (1 Bft) 93,62 %
25.10.2017 13:56 15,1 C 10,6 C 75 % 1023,9 hPa 0,0 l/m 3,2 km/h (1 Bft) W 261 2 min 0,000 mm 1,2 UV-I 280 W/m 10,7 C 15,1 C 4,8 km/h (1 Bft) 96,23 %
25.10.2017 13:58 15,1 C 10,6 C 74 % 1023,9 hPa 0,0 l/m 1,5 km/h (1 Bft) W 263 0 min 0,000 mm 1,2 UV-I 256 W/m 10,5 C 15,1 C 3,2 km/h (1 Bft) 100,00 %
25.10.2017 14:00 15,1 C 10,6 C 73 % 1023,8 hPa 0,0 l/m 0,6 km/h (0 Bft) W 263 2 min 0,000 mm 1,2 UV-I 260 W/m 10,3 C 15,1 C 3,2 km/h (1 Bft) 96,43 %
25.10.2017 14:02 15,2 C 10,6 C 75 % 1023,7 hPa 0,0 l/m 0,2 km/h (0 Bft) W 263 2 min 0,177 mm 1,3 UV-I 313 W/m 10,8 C 15,2 C 1,6 km/h (1 Bft) 97,87 %
25.10.2017 14:04 15,3 C 10,6 C 75 % 1023,8 hPa 0,0 l/m 0,4 km/h (0 Bft) W 263 2 min 0,000 mm 1,3 UV-I 311 W/m 10,9 C 15,3 C 3,2 km/h (1 Bft) 97,87 %
25.10.2017 14:06 15,3 C 10,6 C 73 % 1023,7 hPa 0,0 l/m 0,9 km/h (0 Bft) W 267 2 min 0,000 mm 1,4 UV-I 381 W/m 10,5 C 15,3 C 3,2 km/h (1 Bft) 97,87 %
25.10.2017 14:08 15,4 C 10,6 C 72 % 1023,7 hPa 0,0 l/m 3,3 km/h (1 Bft) W 273 2 min 0,000 mm 1,3 UV-I 365 W/m 10,4 C 15,4 C 6,4 km/h (2 Bft) 92,11 %
25.10.2017 14:10 15,5 C 10,6 C 71 % 1023,7 hPa 0,0 l/m 6,5 km/h (2 Bft) W 268 2 min 0,000 mm 1,3 UV-I 363 W/m 10,3 C 15,5 C 9,7 km/h (2 Bft) 96,00 %
25.10.2017 14:12 15,5 C 10,6 C 71 % 1023,7 hPa 0,0 l/m 4,8 km/h (1 Bft) W 267 2 min 0,000 mm 1,2 UV-I 323 W/m 10,3 C 15,5 C 6,4 km/h (2 Bft) 98,00 %
25.10.2017 14:14 15,3 C 10,6 C 70 % 1023,6 hPa 0,0 l/m 2,7 km/h (1 Bft) W-NW 290 2 min 0,000 mm 1,1 UV-I 267 W/m 9,9 C 15,3 C 8,0 km/h (2 Bft) 97,37 %
25.10.2017 14:16 15,3 C 10,6 C 72 % 1023,7 hPa 0,0 l/m 3,4 km/h (1 Bft) W 275 2 min 0,000 mm 1,1 UV-I 302 W/m 10,3 C 15,3 C 6,4 km/h (2 Bft) 98,00 %
25.10.2017 14:18 15,3 C 10,6 C 71 % 1023,7 hPa 0,0 l/m 5,8 km/h (2 Bft) W 272 2 min 0,000 mm 1,0 UV-I 262 W/m 10,1 C 15,3 C 9,7 km/h (2 Bft) 98,00 %
25.10.2017 14:20 15,3 C 10,6 C 72 % 1023,7 hPa 0,0 l/m 1,2 km/h (1 Bft) W 275 0 min 0,000 mm 0,9 UV-I 220 W/m 10,3 C 15,3 C 4,8 km/h (1 Bft) 97,56 %
25.10.2017 14:22 15,2 C 10,6 C 71 % 1023,7 hPa 0,0 l/m 2,0 km/h (1 Bft) W 275 0 min 0,000 mm 0,9 UV-I 206 W/m 10,0 C 15,2 C 3,2 km/h (1 Bft) 96,00 %
25.10.2017 14:24 15,2 C 10,6 C 71 % 1023,6 hPa 0,0 l/m 4,0 km/h (1 Bft) W-SW 252 0 min 0,000 mm 0,8 UV-I 191 W/m 10,0 C 15,2 C 8,0 km/h (2 Bft) 98,00 %
25.10.2017 14:26 15,2 C 10,6 C 72 % 1023,7 hPa 0,0 l/m 5,2 km/h (1 Bft) W 268 0 min 0,000 mm 0,8 UV-I 184 W/m 10,2 C 15,2 C 8,0 km/h (2 Bft) 97,87 %
25.10.2017 14:28 15,2 C 10,6 C 72 % 1023,7 hPa 0,0 l/m 3,5 km/h (1 Bft) W 281 0 min 0,000 mm 0,8 UV-I 183 W/m 10,2 C 15,2 C 4,8 km/h (1 Bft) 97,44 %
25.10.2017 14:30 15,2 C 10,6 C 73 % 1023,7 hPa 0,0 l/m 2,5 km/h (1 Bft) W-NW 286 0 min 0,000 mm 0,8 UV-I 182 W/m 10,4 C 15,2 C 4,8 km/h (1 Bft) 98,00 %
25.10.2017 14:32 15,1 C 10,6 C 73 % 1023,7 hPa 0,0 l/m 4,3 km/h (1 Bft) W-NW 303 0 min 0,000 mm 0,9 UV-I 182 W/m 10,3 C 15,1 C 6,4 km/h (2 Bft) 98,21 %
25.10.2017 14:34 15,1 C 10,6 C 72 % 1023,7 hPa 0,0 l/m 4,8 km/h (1 Bft) W-SW 257 0 min 0,000 mm 0,9 UV-I 186 W/m 10,1 C 15,1 C 8,0 km/h (2 Bft) 97,37 %
25.10.2017 14:36 15,1 C 10,6 C 72 % 1023,7 hPa 0,0 l/m 1,8 km/h (1 Bft) W-SW 258 0 min 0,000 mm 0,9 UV-I 190 W/m 10,1 C 15,1 C 4,8 km/h (1 Bft) 98,00 %
25.10.2017 14:38 15,1 C 10,6 C 72 % 1023,6 hPa 0,0 l/m 3,5 km/h (1 Bft) W 259 0 min 0,000 mm 0,9 UV-I 183 W/m 10,1 C 15,1 C 4,8 km/h (1 Bft) 97,87 %
25.10.2017 14:40 15,1 C 10,6 C 73 % 1023,7 hPa 0,0 l/m 0,9 km/h (0 Bft) W 259 0 min 0,000 mm 0,9 UV-I 174 W/m 10,3 C 15,1 C 4,8 km/h (1 Bft) 97,87 %
25.10.2017 14:42 15,1 C 10,6 C 73 % 1023,7 hPa 0,0 l/m 1,7 km/h (1 Bft) W-NW 296 0 min 0,000 mm 0,9 UV-I 180 W/m 10,3 C 15,1 C 4,8 km/h (1 Bft) 95,12 %
25.10.2017 14:44 15,1 C 10,6 C 73 % 1023,6 hPa 0,0 l/m 2,1 km/h (1 Bft) W-NW 298 0 min 0,000 mm 0,9 UV-I 201 W/m 10,3 C 15,1 C 4,8 km/h (1 Bft) 96,23 %
25.10.2017 14:46 15,1 C 10,6 C 73 % 1023,6 hPa 0,0 l/m 0,5 km/h (0 Bft) W-NW 298 0 min 0,000 mm 0,9 UV-I 204 W/m 10,3 C 15,1 C 3,2 km/h (1 Bft) 97,78 %
25.10.2017 14:48 15,1 C 10,6 C 72 % 1023,5 hPa 0,0 l/m 3,1 km/h (1 Bft) W 273 0 min 0,000 mm 0,9 UV-I 201 W/m 10,1 C 15,1 C 6,4 km/h (2 Bft) 98,00 %
25.10.2017 14:50 15,1 C 10,6 C 72 % 1023,5 hPa 0,0 l/m 2,2 km/h (1 Bft) W 274 0 min 0,000 mm 0,9 UV-I 190 W/m 10,1 C 15,1 C 4,8 km/h (1 Bft) 97,87 %
25.10.2017 14:52 15,1 C 10,6 C 72 % 1023,5 hPa 0,0 l/m 0,5 km/h (0 Bft) W 274 0 min 0,000 mm 0,9 UV-I 196 W/m 10,1 C 15,1 C 3,2 km/h (1 Bft) 95,74 %
25.10.2017 14:54 15,1 C 10,6 C 72 % 1023,6 hPa 0,0 l/m 2,0 km/h (1 Bft) W 274 0 min 0,000 mm 0,9 UV-I 216 W/m 10,1 C 15,1 C 3,2 km/h (1 Bft) 98,00 %
25.10.2017 14:56 15,1 C 10,6 C 73 % 1023,5 hPa 0,0 l/m 0,6 km/h (0 Bft) W 274 2 min 0,000 mm 0,9 UV-I 248 W/m 10,3 C 15,1 C 3,2 km/h (1 Bft) 95,74 %
25.10.2017 14:58 15,1 C 10,6 C 74 % 1023,5 hPa 0,0 l/m 0,8 km/h (0 Bft) W 274 2 min 0,000 mm 0,9 UV-I 271 W/m 10,5 C 15,1 C 3,2 km/h (1 Bft) 97,37 %
25.10.2017 15:00 15,2 C 10,6 C 72 % 1023,5 hPa 0,0 l/m 1,5 km/h (1 Bft) W 274 2 min 0,127 mm 0,9 UV-I 278 W/m 10,2 C 15,2 C 4,8 km/h (1 Bft) 98,00 %
25.10.2017 15:02 15,3 C 10,6 C 74 % 1023,5 hPa 0,0 l/m 1,2 km/h (1 Bft) W 280 2 min 0,000 mm 0,9 UV-I 294 W/m 10,7 C 15,3 C 3,2 km/h (1 Bft) 98,00 %
25.10.2017 15:04 15,3 C 10,6 C 73 % 1023,5 hPa 0,0 l/m 1,8 km/h (1 Bft) W 280 2 min 0,000 mm 0,9 UV-I 303 W/m 10,5 C 15,3 C 4,8 km/h (1 Bft) 97,62 %
25.10.2017 15:06 15,3 C 10,6 C 72 % 1023,6 hPa 0,0 l/m 2,3 km/h (1 Bft) NW 305 2 min 0,000 mm 0,9 UV-I 288 W/m 10,3 C 15,3 C 4,8 km/h (1 Bft) 96,00 %
25.10.2017 15:08 15,3 C 10,6 C 71 % 1023,6 hPa 0,0 l/m 3,7 km/h (1 Bft) W-NW 283 2 min 0,000 mm 0,8 UV-I 241 W/m 10,1 C 15,3 C 6,4 km/h (2 Bft) 97,96 %
25.10.2017 15:10 15,3 C 10,6 C 73 % 1023,5 hPa 0,0 l/m 3,4 km/h (1 Bft) W-NW 283 2 min 0,000 mm 0,8 UV-I 218 W/m 10,5 C 15,3 C 4,8 km/h (1 Bft) 97,44 %
25.10.2017 15:12 15,3 C 10,6 C 73 % 1023,6 hPa 0,0 l/m 1,6 km/h (1 Bft) W-NW 284 2 min 0,000 mm 0,7 UV-I 206 W/m 10,5 C 15,3 C 4,8 km/h (1 Bft) 96,23 %
25.10.2017 15:14 15,3 C 10,6 C 74 % 1023,6 hPa 0,0 l/m 0,6 km/h (0 Bft) W-NW 284 2 min 0,000 mm 0,7 UV-I 209 W/m 10,7 C 15,3 C 3,2 km/h (1 Bft) 92,68 %
25.10.2017 15:16 15,3 C 10,6 C 73 % 1023,5 hPa 0,0 l/m 1,2 km/h (1 Bft) W-NW 284 2 min 0,000 mm 0,7 UV-I 222 W/m 10,5 C 15,3 C 3,2 km/h (1 Bft) 98,11 %
25.10.2017 15:18 15,3 C 10,6 C 73 % 1023,4 hPa 0,0 l/m 2,4 km/h (1 Bft) W-NW 287 2 min 0,000 mm 0,7 UV-I 237 W/m 10,5 C 15,3 C 4,8 km/h (1 Bft) 93,62 %
25.10.2017 15:20 15,3 C 10,6 C 73 % 1023,3 hPa 0,0 l/m 1,6 km/h (1 Bft) W-NW 287 2 min 0,000 mm 0,7 UV-I 218 W/m 10,5 C 15,3 C 3,2 km/h (1 Bft) 95,74 %
25.10.2017 15:22 15,3 C 10,6 C 74 % 1023,3 hPa 0,0 l/m 0,2 km/h (0 Bft) W-NW 287 2 min 0,000 mm 0,7 UV-I 214 W/m 10,7 C 15,3 C 1,6 km/h (1 Bft) 97,56 %
25.10.2017 15:24 15,3 C 10,6 C 74 % 1023,3 hPa 0,0 l/m 0,8 km/h (0 Bft) W-NW 287 2 min 0,000 mm 0,7 UV-I 218 W/m 10,7 C 15,3 C 3,2 km/h (1 Bft) 97,87 %
25.10.2017 15:26 15,3 C 10,6 C 73 % 1023,2 hPa 0,0 l/m 1,2 km/h (1 Bft) W-NW 287 2 min 0,000 mm 0,6 UV-I 207 W/m 10,5 C 15,3 C 3,2 km/h (1 Bft) 98,00 %
25.10.2017 15:28 15,3 C 10,6 C 73 % 1023,2 hPa 0,0 l/m 0,3 km/h (0 Bft) W-NW 287 2 min 0,000 mm 0,6 UV-I 209 W/m 10,5 C 15,3 C 1,6 km/h (1 Bft) 97,87 %
25.10.2017 15:30 15,2 C 10,6 C 73 % 1023,1 hPa 0,0 l/m 0,0 km/h (0 Bft) W-NW 287 2 min 0,000 mm 0,6 UV-I 204 W/m 10,4 C 15,2 C 0,0 km/h (0 Bft) 97,87 %
25.10.2017 15:32 15,2 C 10,6 C 73 % 1023,1 hPa 0,0 l/m 0,1 km/h (0 Bft) W-NW 286 2 min 0,000 mm 0,6 UV-I 194 W/m 10,4 C 15,2 C 1,6 km/h (1 Bft) 95,74 %
25.10.2017 15:34 15,2 C 10,6 C 74 % 1023,1 hPa 0,0 l/m 2,2 km/h (1 Bft) W-NW 286 0 min 0,000 mm 0,6 UV-I 180 W/m 10,6 C 15,2 C 3,2 km/h (1 Bft) 95,74 %
25.10.2017 15:36 15,2 C 10,6 C 75 % 1023,1 hPa 0,0 l/m 1,0 km/h (0 Bft) W-NW 287 0 min 0,000 mm 0,6 UV-I 174 W/m 10,8 C 15,2 C 3,2 km/h (1 Bft) 93,62 %
25.10.2017 15:38 15,3 C 10,6 C 73 % 1023,0 hPa 0,0 l/m 1,4 km/h (1 Bft) W-NW 287 0 min 0,000 mm 0,6 UV-I 168 W/m 10,5 C 15,3 C 3,2 km/h (1 Bft) 97,87 %
25.10.2017 15:40 15,2 C 10,6 C 73 % 1023,0 hPa 0,0 l/m 1,6 km/h (1 Bft) W-NW 287 0 min 0,000 mm 0,5 UV-I 160 W/m 10,4 C 15,2 C 3,2 km/h (1 Bft) 95,74 %
25.10.2017 15:42 15,3 C 10,6 C 74 % 1023,0 hPa 0,0 l/m 2,0 km/h (1 Bft) W-NW 286 0 min 0,000 mm 0,5 UV-I 162 W/m 10,7 C 15,3 C 3,2 km/h (1 Bft) 97,73 %
25.10.2017 15:44 15,2 C 10,6 C 73 % 1023,1 hPa 0,0 l/m 0,5 km/h (0 Bft) W-NW 286 0 min 0,000 mm 0,5 UV-I 168 W/m 10,4 C 15,2 C 1,6 km/h (1 Bft) 97,62 %
25.10.2017 15:46 15,2 C 10,6 C 74 % 1023,1 hPa 0,0 l/m 0,2 km/h (0 Bft) W-NW 287 2 min 0,000 mm 0,5 UV-I 172 W/m 10,6 C 15,2 C 1,6 km/h (1 Bft) 96,55 %
25.10.2017 15:48 15,2 C 10,6 C 74 % 1023,1 hPa 0,0 l/m 0,0 km/h (0 Bft) W-NW 286 2 min 0,000 mm 0,5 UV-I 177 W/m 10,6 C 15,2 C 1,6 km/h (1 Bft) 100,00 %
25.10.2017 15:50 15,2 C 10,6 C 75 % 1023,1 hPa 0,0 l/m 0,4 km/h (0 Bft) W-NW 287 0 min 0,000 mm 0,5 UV-I 162 W/m 10,8 C 15,2 C 1,6 km/h (1 Bft) 100,00 %
25.10.2017 15:52 15,2 C 10,6 C 75 % 1023,1 hPa 0,0 l/m 0,0 km/h (0 Bft) W-NW 286 0 min 0,000 mm 0,5 UV-I 148 W/m 10,8 C 15,2 C 0,0 km/h (0 Bft) 100,00 %
25.10.2017 15:54 15,2 C 10,6 C 75 % 1023,1 hPa 0,0 l/m 0,0 km/h (0 Bft) W-NW 287 0 min 0,000 mm 0,5 UV-I 156 W/m 10,8 C 15,2 C 1,6 km/h (1 Bft) 100,00 %
25.10.2017 15:56 15,3 C 10,6 C 76 % 1023,1 hPa 0,0 l/m 0,7 km/h (0 Bft) W-NW 286 2 min 0,000 mm 0,5 UV-I 164 W/m 11,1 C 15,3 C 3,2 km/h (1 Bft) 97,37 %
25.10.2017 15:58 15,3 C 10,6 C 77 % 1023,1 hPa 0,0 l/m 0,8 km/h (0 Bft) W-NW 286 2 min 0,000 mm 0,5 UV-I 161 W/m 11,3 C 15,3 C 3,2 km/h (1 Bft) 100,00 %
25.10.2017 16:00 15,3 C 10,6 C 76 % 1023,1 hPa 0,0 l/m 0,7 km/h (0 Bft) W-NW 287 2 min 0,102 mm 0,3 UV-I 165 W/m 11,1 C 15,3 C 1,6 km/h (1 Bft) 100,00 %
25.10.2017 16:02 15,3 C 10,6 C 75 % 1023,1 hPa 0,0 l/m 0,1 km/h (0 Bft) W-NW 287 2 min 0,000 mm 0,0 UV-I 163 W/m 10,9 C 15,3 C 1,6 km/h (1 Bft) 100,00 %
25.10.2017 16:04 15,3 C 10,6 C 77 % 1023,1 hPa 0,0 l/m 0,1 km/h (0 Bft) W-NW 287 2 min 0,000 mm 0,0 UV-I 171 W/m 11,3 C 15,3 C 1,6 km/h (1 Bft) 100,00 %
25.10.2017 16:06 15,2 C 10,6 C 74 % 1023,1 hPa 0,0 l/m 0,0 km/h (0 Bft) W-NW 286 2 min 0,000 mm 0,0 UV-I 183 W/m 10,6 C 15,2 C 0,0 km/h (0 Bft) 100,00 %
25.10.2017 16:08 15,2 C 10,6 C 75 % 1023,1 hPa 0,0 l/m 0,0 km/h (0 Bft) W-NW 286 2 min 0,000 mm 0,0 UV-I 164 W/m 10,8 C 15,2 C 1,6 km/h (1 Bft) 100,00 %
25.10.2017 16:10 15,2 C 10,6 C 74 % 1023,1 hPa 0,0 l/m 1,2 km/h (1 Bft) W-SW 256 2 min 0,000 mm 0,0 UV-I 145 W/m 10,6 C 15,2 C 6,4 km/h (2 Bft) 100,00 %
25.10.2017 16:12 15,2 C 10,6 C 75 % 1023,0 hPa 0,0 l/m 4,2 km/h (1 Bft) W-SW 257 2 min 0,000 mm 0,0 UV-I 143 W/m 10,8 C 15,2 C 6,4 km/h (2 Bft) 100,00 %
25.10.2017 16:14 15,2 C 10,6 C 75 % 1023,0 hPa 0,0 l/m 2,6 km/h (1 Bft) W-SW 250 2 min 0,000 mm 0,0 UV-I 158 W/m 10,8 C 15,2 C 6,4 km/h (2 Bft) 100,00 %
25.10.2017 16:16 15,2 C 10,6 C 75 % 1023,0 hPa 0,0 l/m 2,3 km/h (1 Bft) W-SW 250 2 min 0,000 mm 0,0 UV-I 171 W/m 10,8 C 15,2 C 4,8 km/h (1 Bft) 100,00 %
25.10.2017 16:18 15,2 C 10,6 C 74 % 1023,1 hPa 0,0 l/m 1,8 km/h (1 Bft) W-SW 250 2 min 0,000 mm 0,0 UV-I 178 W/m 10,6 C 15,2 C 4,8 km/h (1 Bft) 100,00 %
25.10.2017 16:20 15,2 C 10,6 C 74 % 1023,1 hPa 0,0 l/m 2,6 km/h (1 Bft) W-SW 254 2 min 0,000 mm 0,0 UV-I 190 W/m 10,6 C 15,2 C 4,8 km/h (1 Bft) 100,00 %
25.10.2017 16:22 15,2 C 10,6 C 73 % 1023,1 hPa 0,0 l/m 1,3 km/h (1 Bft) W-SW 254 2 min 0,000 mm 0,0 UV-I 198 W/m 10,4 C 15,2 C 3,2 km/h (1 Bft) 100,00 %
25.10.2017 16:24 15,2 C 10,6 C 73 % 1023,1 hPa 0,0 l/m 2,9 km/h (1 Bft) W-SW 254 2 min 0,000 mm 0,0 UV-I 190 W/m 10,4 C 15,2 C 4,8 km/h (1 Bft) 100,00 %
25.10.2017 16:26 15,2 C 10,6 C 74 % 1023,1 hPa 0,0 l/m 3,0 km/h (1 Bft) W-SW 254 2 min 0,000 mm 0,0 UV-I 183 W/m 10,6 C 15,2 C 4,8 km/h (1 Bft) 98,11 %
25.10.2017 16:28 15,2 C 10,6 C 74 % 1023,1 hPa 0,0 l/m 1,2 km/h (1 Bft) W-SW 254 2 min 0,000 mm 0,0 UV-I 187 W/m 10,6 C 15,2 C 3,2 km/h (1 Bft) 100,00 %
25.10.2017 16:30 15,2 C 10,6 C 74 % 1023,1 hPa 0,0 l/m 0,4 km/h (0 Bft) W-SW 254 2 min 0,000 mm 0,0 UV-I 181 W/m 10,6 C 15,2 C 1,6 km/h (1 Bft) 97,56 %
25.10.2017 16:32 15,2 C 10,6 C 74 % 1023,1 hPa 0,0 l/m 1,0 km/h (0 Bft) W-SW 254 2 min 0,000 mm 0,0 UV-I 179 W/m 10,6 C 15,2 C 1,6 km/h (1 Bft) 100,00 %
25.10.2017 16:34 15,2 C 10,6 C 74 % 1023,1 hPa 0,0 l/m 1,1 km/h (1 Bft) W-SW 254 2 min 0,000 mm 0,0 UV-I 166 W/m 10,6 C 15,2 C 3,2 km/h (1 Bft) 98,00 %
25.10.2017 16:36 15,3 C 10,6 C 75 % 1023,1 hPa 0,0 l/m 0,0 km/h (0 Bft) W-SW 254 2 min 0,000 mm 0,0 UV-I 160 W/m 10,9 C 15,3 C 0,0 km/h (0 Bft) 100,00 %
25.10.2017 16:38 15,3 C 10,6 C 75 % 1023,1 hPa 0,0 l/m 0,5 km/h (0 Bft) W 259 2 min 0,000 mm 0,0 UV-I 161 W/m 10,9 C 15,3 C 1,6 km/h (1 Bft) 100,00 %
25.10.2017 16:40 15,2 C 10,6 C 75 % 1023,1 hPa 0,0 l/m 0,8 km/h (0 Bft) W 259 2 min 0,000 mm 0,0 UV-I 155 W/m 10,8 C 15,2 C 1,6 km/h (1 Bft) 100,00 %
25.10.2017 16:42 15,2 C 10,6 C 76 % 1023,1 hPa 0,0 l/m 0,2 km/h (0 Bft) W 259 2 min 0,000 mm 0,0 UV-I 160 W/m 11,0 C 15,2 C 1,6 km/h (1 Bft) 97,37 %
25.10.2017 16:44 15,2 C 10,6 C 75 % 1023,1 hPa 0,0 l/m 0,5 km/h (0 Bft) W 259 2 min 0,000 mm 0,0 UV-I 148 W/m 10,8 C 15,2 C 1,6 km/h (1 Bft) 100,00 %
25.10.2017 16:46 15,2 C 10,6 C 75 % 1023,1 hPa 0,0 l/m 2,3 km/h (1 Bft) W 263 2 min 0,000 mm 0,0 UV-I 134 W/m 10,8 C 15,2 C 4,8 km/h (1 Bft) 100,00 %
25.10.2017 16:48 15,2 C 10,6 C 75 % 1023,2 hPa 0,0 l/m 1,5 km/h (1 Bft) W 263 2 min 0,000 mm 0,0 UV-I 138 W/m 10,8 C 15,2 C 4,8 km/h (1 Bft) 100,00 %
25.10.2017 16:50 15,2 C 10,6 C 75 % 1023,2 hPa 0,0 l/m 1,4 km/h (1 Bft) W 263 2 min 0,000 mm 0,0 UV-I 134 W/m 10,8 C 15,2 C 3,2 km/h (1 Bft) 100,00 %
25.10.2017 16:52 15,1 C 10,6 C 75 % 1023,2 hPa 0,0 l/m 1,8 km/h (1 Bft) W 263 2 min 0,000 mm 0,0 UV-I 133 W/m 10,7 C 15,1 C 3,2 km/h (1 Bft) 100,00 %
25.10.2017 16:54 15,1 C 10,6 C 76 % 1023,2 hPa 0,0 l/m 0,0 km/h (0 Bft) W 263 2 min 0,000 mm 0,0 UV-I 128 W/m 10,9 C 15,1 C 0,0 km/h (0 Bft) 97,87 %
25.10.2017 16:56 15,2 C 10,6 C 75 % 1023,1 hPa 0,0 l/m 0,8 km/h (0 Bft) W 263 2 min 0,000 mm 0,0 UV-I 145 W/m 10,8 C 15,2 C 3,2 km/h (1 Bft) 97,22 %
25.10.2017 16:58 15,2 C 10,6 C 75 % 1023,1 hPa 0,0 l/m 0,1 km/h (0 Bft) W 263 2 min 0,000 mm 0,0 UV-I 135 W/m 10,8 C 15,2 C 1,6 km/h (1 Bft) 96,36 %
25.10.2017 17:00 15,2 C 10,6 C 75 % 1023,0 hPa 0,0 l/m 0,0 km/h (0 Bft) W 263 2 min 0,000 mm 0,0 UV-I 112 W/m 10,8 C 15,2 C 0,0 km/h (0 Bft) 100,00 %
25.10.2017 17:02 15,2 C 10,6 C 76 % 1023,0 hPa 0,0 l/m 0,0 km/h (0 Bft) W 263 2 min 0,102 mm 0,0 UV-I 89 W/m 11,0 C 15,2 C 0,0 km/h (0 Bft) 100,00 %
25.10.2017 17:04 15,2 C 10,6 C 75 % 1023,0 hPa 0,0 l/m 1,1 km/h (1 Bft) W 263 0 min 0,000 mm 0,0 UV-I 67 W/m 10,8 C 15,2 C 3,2 km/h (1 Bft) 100,00 %
25.10.2017 17:06 15,1 C 10,6 C 75 % 1023,1 hPa 0,0 l/m 1,2 km/h (1 Bft) W 263 0 min 0,000 mm 0,0 UV-I 60 W/m 10,7 C 15,1 C 3,2 km/h (1 Bft) 98,00 %
25.10.2017 17:08 15,1 C 10,6 C 75 % 1023,1 hPa 0,0 l/m 0,0 km/h (0 Bft) W 263 0 min 0,000 mm 0,0 UV-I 56 W/m 10,7 C 15,1 C 1,6 km/h (1 Bft) 100,00 %
25.10.2017 17:10 15,1 C 10,6 C 76 % 1023,1 hPa 0,0 l/m 0,8 km/h (0 Bft) W 263 0 min 0,000 mm 0,0 UV-I 54 W/m 10,9 C 15,1 C 1,6 km/h (1 Bft) 100,00 %
25.10.2017 17:12 15,0 C 10,6 C 76 % 1023,1 hPa 0,0 l/m 2,1 km/h (1 Bft) W 263 0 min 0,000 mm 0,0 UV-I 51 W/m 10,8 C 15,0 C 3,2 km/h (1 Bft) 98,21 %
25.10.2017 17:14 14,9 C 10,6 C 76 % 1023,1 hPa 0,0 l/m 1,6 km/h (1 Bft) W 263 0 min 0,000 mm 0,0 UV-I 49 W/m 10,7 C 14,9 C 3,2 km/h (1 Bft) 100,00 %
25.10.2017 17:16 14,9 C 10,6 C 77 % 1023,1 hPa 0,0 l/m 1,6 km/h (1 Bft) W 263 0 min 0,000 mm 0,0 UV-I 48 W/m 10,9 C 14,9 C 3,2 km/h (1 Bft) 100,00 %
25.10.2017 17:18 14,9 C 10,6 C 77 % 1023,1 hPa 0,0 l/m 1,5 km/h (1 Bft) W 263 0 min 0,000 mm 0,0 UV-I 47 W/m 10,9 C 14,9 C 3,2 km/h (1 Bft) 100,00 %
25.10.2017 17:20 14,8 C 10,6 C 77 % 1023,1 hPa 0,0 l/m 0,0 km/h (0 Bft) W 263 2 min 0,000 mm 0,0 UV-I 48 W/m 10,8 C 14,8 C 0,0 km/h (0 Bft) 98,11 %
25.10.2017 17:22 14,7 C 10,6 C 79 % 1023,0 hPa 0,0 l/m 0,0 km/h (0 Bft) W 263 2 min 0,000 mm 0,0 UV-I 50 W/m 11,1 C 14,7 C 0,0 km/h (0 Bft) 100,00 %
25.10.2017 17:24 14,5 C 10,6 C 80 % 1023,0 hPa 0,0 l/m 0,0 km/h (0 Bft) W 263 2 min 0,000 mm 0,0 UV-I 47 W/m 11,1 C 14,5 C 0,0 km/h (0 Bft) 100,00 %
25.10.2017 17:26 14,3 C 10,6 C 81 % 1022,9 hPa 0,0 l/m 1,1 km/h (1 Bft) W 263 2 min 0,000 mm 0,0 UV-I 46 W/m 11,1 C 14,3 C 3,2 km/h (1 Bft) 100,00 %
25.10.2017 17:28 14,2 C 10,6 C 82 % 1022,9 hPa 0,0 l/m 1,3 km/h (1 Bft) W 263 2 min 0,000 mm 0,0 UV-I 40 W/m 11,2 C 14,2 C 3,2 km/h (1 Bft) 100,00 %
25.10.2017 17:30 14,0 C 10,6 C 82 % 1022,9 hPa 0,0 l/m 1,9 km/h (1 Bft) W 263 2 min 0,000 mm 0,0 UV-I 38 W/m 11,0 C 14,0 C 3,2 km/h (1 Bft) 100,00 %
25.10.2017 17:32 13,8 C 10,6 C 83 % 1022,8 hPa 0,0 l/m 1,9 km/h (1 Bft) W 263 2 min 0,000 mm 0,0 UV-I 36 W/m 11,0 C 13,8 C 3,2 km/h (1 Bft) 97,37 %
25.10.2017 17:34 13,7 C 10,6 C 84 % 1022,9 hPa 0,0 l/m 0,8 km/h (0 Bft) W 263 2 min 0,000 mm 0,0 UV-I 30 W/m 11,0 C 13,7 C 1,6 km/h (1 Bft) 97,87 %
25.10.2017 17:36 13,5 C 10,6 C 85 % 1022,9 hPa 0,0 l/m 0,1 km/h (0 Bft) W 263 2 min 0,000 mm 0,0 UV-I 28 W/m 11,0 C 13,5 C 1,6 km/h (1 Bft) 100,00 %
25.10.2017 17:38 13,4 C 10,6 C 85 % 1022,9 hPa 0,0 l/m 0,0 km/h (0 Bft) W 263 2 min 0,000 mm 0,0 UV-I 27 W/m 10,9 C 13,4 C 0,0 km/h (0 Bft) 97,22 %
25.10.2017 17:40 13,4 C 10,6 C 86 % 1022,9 hPa 0,0 l/m 0,0 km/h (0 Bft) W 263 2 min 0,000 mm 0,0 UV-I 27 W/m 11,1 C 13,4 C 0,0 km/h (0 Bft) 96,23 %
25.10.2017 17:42 13,3 C 10,6 C 86 % 1022,9 hPa 0,0 l/m 0,0 km/h (0 Bft) W 263 2 min 0,000 mm 0,0 UV-I 25 W/m 11,0 C 13,3 C 0,0 km/h (0 Bft) 97,87 %
25.10.2017 17:44 13,2 C 10,6 C 87 % 1022,9 hPa 0,0 l/m 0,2 km/h (0 Bft) W 263 2 min 0,000 mm 0,0 UV-I 22 W/m 11,1 C 13,2 C 1,6 km/h (1 Bft) 97,87 %
25.10.2017 17:46 13,1 C 10,6 C 87 % 1022,9 hPa 0,0 l/m 1,5 km/h (1 Bft) W 263 2 min 0,000 mm 0,0 UV-I 19 W/m 11,0 C 13,1 C 3,2 km/h (1 Bft) 97,87 %
25.10.2017 17:48 13,1 C 10,6 C 87 % 1023,0 hPa 0,0 l/m 1,4 km/h (1 Bft) W 263 0 min 0,000 mm 0,0 UV-I 17 W/m 11,0 C 13,1 C 3,2 km/h (1 Bft) 96,00 %
25.10.2017 17:50 13,0 C 10,6 C 87 % 1023,0 hPa 0,0 l/m 2,0 km/h (1 Bft) W 263 0 min 0,000 mm 0,0 UV-I 13 W/m 10,9 C 13,0 C 3,2 km/h (1 Bft) 95,74 %
25.10.2017 17:52 12,9 C 10,6 C 87 % 1023,0 hPa 0,0 l/m 2,0 km/h (1 Bft) W 263 0 min 0,000 mm 0,0 UV-I 11 W/m 10,8 C 12,9 C 3,2 km/h (1 Bft) 97,56 %
25.10.2017 17:54 13,0 C 10,6 C 87 % 1023,0 hPa 0,0 l/m 0,4 km/h (0 Bft) W 263 0 min 0,000 mm 0,0 UV-I 10 W/m 10,9 C 13,0 C 1,6 km/h (1 Bft) 98,00 %
25.10.2017 17:56 12,9 C 10,6 C 87 % 1023,0 hPa 0,0 l/m 0,4 km/h (0 Bft) W 263 0 min 0,000 mm 0,0 UV-I 9 W/m 10,8 C 12,9 C 1,6 km/h (1 Bft) 95,12 %
25.10.2017 17:58 12,8 C 10,6 C 87 % 1023,0 hPa 0,0 l/m 0,5 km/h (0 Bft) W 263 0 min 0,000 mm 0,0 UV-I 7 W/m 10,7 C 12,8 C 1,6 km/h (1 Bft) 96,00 %
25.10.2017 18:00 12,6 C 10,6 C 87 % 1023,0 hPa 0,0 l/m 0,0 km/h (0 Bft) W 263 0 min 0,000 mm 0,0 UV-I 7 W/m 10,5 C 12,6 C 0,0 km/h (0 Bft) 98,00 %
25.10.2017 18:02 12,6 C 10,6 C 88 % 1022,9 hPa 0,0 l/m 1,4 km/h (1 Bft) W 263 0 min 0,025 mm 0,0 UV-I 5 W/m 10,7 C 12,6 C 3,2 km/h (1 Bft) 97,73 %
25.10.2017 18:04 12,4 C 10,6 C 88 % 1022,9 hPa 0,0 l/m 2,6 km/h (1 Bft) W 263 0 min 0,000 mm 0,0 UV-I 5 W/m 10,5 C 12,4 C 4,8 km/h (1 Bft) 98,00 %
25.10.2017 18:06 12,4 C 10,6 C 88 % 1022,9 hPa 0,0 l/m 2,8 km/h (1 Bft) W 263 0 min 0,000 mm 0,0 UV-I 5 W/m 10,5 C 12,4 C 4,8 km/h (1 Bft) 98,00 %
25.10.2017 18:08 12,2 C 10,6 C 89 % 1023,0 hPa 0,0 l/m 2,9 km/h (1 Bft) W 263 0 min 0,000 mm 0,0 UV-I 5 W/m 10,4 C 12,2 C 3,2 km/h (1 Bft) 97,14 %
25.10.2017 18:10 12,1 C 10,6 C 89 % 1022,9 hPa 0,0 l/m 2,8 km/h (1 Bft) W 263 0 min 0,000 mm 0,0 UV-I 5 W/m 10,3 C 12,1 C 3,2 km/h (1 Bft) 98,11 %
25.10.2017 18:12 11,9 C 10,6 C 89 % 1022,9 hPa 0,0 l/m 2,2 km/h (1 Bft) W 263 0 min 0,000 mm 0,0 UV-I 4 W/m 10,1 C 11,9 C 3,2 km/h (1 Bft) 95,74 %
25.10.2017 18:14 11,7 C 10,6 C 89 % 1023,0 hPa 0,0 l/m 1,8 km/h (1 Bft) W 263 0 min 0,000 mm 0,0 UV-I 0 W/m 9,9 C 11,7 C 3,2 km/h (1 Bft) 95,74 %
25.10.2017 18:16 11,6 C 10,6 C 89 % 1023,0 hPa 0,0 l/m 0,3 km/h (0 Bft) W 263 0 min 0,000 mm 0,0 UV-I 0 W/m 9,8 C 11,6 C 1,6 km/h (1 Bft) 98,00 %
25.10.2017 18:18 11,5 C 10,6 C 90 % 1023,0 hPa 0,0 l/m 0,0 km/h (0 Bft) W 263 0 min 0,000 mm 0,0 UV-I 0 W/m 9,9 C 11,5 C 0,0 km/h (0 Bft) 98,00 %
25.10.2017 18:20 11,5 C 10,6 C 90 % 1023,1 hPa 0,0 l/m 0,0 km/h (0 Bft) W 263 0 min 0,000 mm 0,0 UV-I 0 W/m 9,9 C 11,5 C 0,0 km/h (0 Bft) 100,00 %
25.10.2017 18:22 11,5 C 10,6 C 90 % 1023,0 hPa 0,0 l/m 0,0 km/h (0 Bft) W 263 0 min 0,000 mm 0,0 UV-I 0 W/m 9,9 C 11,5 C 0,0 km/h (0 Bft) 97,73 %
25.10.2017 18:24 11,5 C 10,6 C 91 % 1023,0 hPa 0,0 l/m 1,6 km/h (1 Bft) W 263 0 min 0,000 mm 0,0 UV-I 0 W/m 10,1 C 11,5 C 3,2 km/h (1 Bft) 92,31 %
25.10.2017 18:26 11,4 C 10,6 C 91 % 1023,0 hPa 0,0 l/m 3,2 km/h (1 Bft) W 263 0 min 0,000 mm 0,0 UV-I 0 W/m 10,0 C 11,4 C 4,8 km/h (1 Bft) 98,00 %
25.10.2017 18:28 11,4 C 10,6 C 91 % 1022,9 hPa 0,0 l/m 3,2 km/h (1 Bft) W 263 0 min 0,000 mm 0,0 UV-I 0 W/m 10,0 C 11,4 C 4,8 km/h (1 Bft) 97,37 %
25.10.2017 18:30 11,4 C 10,6 C 91 % 1023,0 hPa 0,0 l/m 2,7 km/h (1 Bft) W 263 0 min 0,000 mm 0,0 UV-I 0 W/m 10,0 C 11,4 C 3,2 km/h (1 Bft) 95,16 %
25.10.2017 18:32 11,4 C 10,6 C 91 % 1023,0 hPa 0,0 l/m 1,6 km/h (1 Bft) W 263 0 min 0,000 mm 0,0 UV-I 0 W/m 10,0 C 11,4 C 3,2 km/h (1 Bft) 97,56 %
25.10.2017 18:34 11,4 C 10,6 C 91 % 1023,0 hPa 0,0 l/m 0,5 km/h (0 Bft) W 263 0 min 0,000 mm 0,0 UV-I 0 W/m 10,0 C 11,4 C 1,6 km/h (1 Bft) 98,00 %
25.10.2017 18:36 11,3 C 10,6 C 91 % 1023,0 hPa 0,0 l/m 0,0 km/h (0 Bft) W 263 0 min 0,000 mm 0,0 UV-I 0 W/m 9,9 C 11,3 C 0,0 km/h (0 Bft) 94,00 %
25.10.2017 18:38 11,2 C 10,6 C 91 % 1023,0 hPa 0,0 l/m 0,0 km/h (0 Bft) W 263 0 min 0,000 mm 0,0 UV-I 0 W/m 9,8 C 11,2 C 1,6 km/h (1 Bft) 97,37 %
25.10.2017 18:40 11,1 C 10,6 C 91 % 1022,9 hPa 0,0 l/m 1,3 km/h (1 Bft) W 263 0 min 0,000 mm 0,0 UV-I 0 W/m 9,7 C 11,1 C 3,2 km/h (1 Bft) 96,00 %
25.10.2017 18:42 10,9 C 10,6 C 91 % 1022,9 hPa 0,0 l/m 0,5 km/h (0 Bft) W 263 0 min 0,000 mm 0,0 UV-I 0 W/m 9,5 C 10,9 C 1,6 km/h (1 Bft) 96,00 %
25.10.2017 18:44 10,9 C 10,6 C 91 % 1022,9 hPa 0,0 l/m 0,0 km/h (0 Bft) W 263 0 min 0,000 mm 0,0 UV-I 0 W/m 9,5 C 10,9 C 1,6 km/h (1 Bft) 97,37 %
25.10.2017 18:46 10,8 C 10,6 C 92 % 1023,0 hPa 0,0 l/m 0,0 km/h (0 Bft) W 263 0 min 0,000 mm 0,0 UV-I 0 W/m 9,6 C 10,8 C 1,6 km/h (1 Bft) 98,00 %
25.10.2017 18:48 10,8 C 10,6 C 92 % 1023,0 hPa 0,0 l/m 0,1 km/h (0 Bft) W 263 0 min 0,000 mm 0,0 UV-I 0 W/m 9,6 C 10,8 C 1,6 km/h (1 Bft) 96,00 %
25.10.2017 18:50 10,8 C 10,6 C 92 % 1023,0 hPa 0,0 l/m 0,1 km/h (0 Bft) W 263 0 min 0,000 mm 0,0 UV-I 0 W/m 9,6 C 10,8 C 1,6 km/h (1 Bft) 98,11 %
25.10.2017 18:52 10,7 C 10,6 C 92 % 1023,0 hPa 0,0 l/m 0,0 km/h (0 Bft) W 263 0 min 0,000 mm 0,0 UV-I 0 W/m 9,5 C 10,7 C 0,0 km/h (0 Bft) 97,87 %
25.10.2017 18:54 10,7 C 10,6 C 92 % 1023,0 hPa 0,0 l/m 0,0 km/h (0 Bft) W 263 0 min 0,000 mm 0,0 UV-I 0 W/m 9,5 C 10,7 C 1,6 km/h (1 Bft) 97,37 %
25.10.2017 18:56 10,7 C 10,6 C 92 % 1023,1 hPa 0,0 l/m 0,0 km/h (0 Bft) W 263 0 min 0,000 mm 0,0 UV-I 0 W/m 9,5 C 10,7 C 0,0 km/h (0 Bft) 97,87 %
25.10.2017 18:58 10,6 C 10,6 C 92 % 1023,1 hPa 0,0 l/m 0,0 km/h (0 Bft) W 263 0 min 0,000 mm 0,0 UV-I 0 W/m 9,4 C 10,6 C 0,0 km/h (0 Bft) 97,92 %
25.10.2017 19:00 10,6 C 10,6 C 92 % 1023,1 hPa 0,0 l/m 0,0 km/h (0 Bft) W 263 0 min 0,000 mm 0,0 UV-I 0 W/m 9,4 C 10,6 C 0,0 km/h (0 Bft) 97,87 %
25.10.2017 19:02 10,4 C 10,6 C 92 % 1023,2 hPa 0,0 l/m 0,0 km/h (0 Bft) W 263 0 min 0,000 mm 0,0 UV-I 0 W/m 9,2 C 10,4 C 0,0 km/h (0 Bft) 96,08 %
25.10.2017 19:04 10,4 C 10,6 C 93 % 1023,2 hPa 0,0 l/m 0,0 km/h (0 Bft) W 263 0 min 0,000 mm 0,0 UV-I 0 W/m 9,3 C 10,4 C 0,0 km/h (0 Bft) 97,87 %
25.10.2017 19:06 10,4 C 10,6 C 93 % 1023,3 hPa 0,0 l/m 1,1 km/h (1 Bft) W 263 0 min 0,000 mm 0,0 UV-I 0 W/m 9,3 C 10,4 C 3,2 km/h (1 Bft) 98,00 %
25.10.2017 19:08 10,3 C 10,6 C 92 % 1023,2 hPa 0,0 l/m 2,6 km/h (1 Bft) W 263 0 min 0,000 mm 0,0 UV-I 0 W/m 9,1 C 10,3 C 3,2 km/h (1 Bft) 94,29 %
25.10.2017 19:10 10,2 C 10,6 C 92 % 1023,3 hPa 0,0 l/m 1,5 km/h (1 Bft) W 263 0 min 0,000 mm 0,0 UV-I 0 W/m 9,0 C 10,2 C 3,2 km/h (1 Bft) 98,11 %
25.10.2017 19:12 10,1 C 10,6 C 92 % 1023,3 hPa 0,0 l/m 0,1 km/h (0 Bft) W 263 0 min 0,000 mm 0,0 UV-I 0 W/m 8,9 C 10,1 C 1,6 km/h (1 Bft) 97,56 %
25.10.2017 19:14 10,0 C 10,6 C 93 % 1023,4 hPa 0,0 l/m 0,0 km/h (0 Bft) W 263 0 min 0,000 mm 0,0 UV-I 0 W/m 8,9 C 10,0 C 1,6 km/h (1 Bft) 98,00 %
25.10.2017 19:16 9,9 C 10,6 C 93 % 1023,4 hPa 0,0 l/m 2,1 km/h (1 Bft) W 263 0 min 0,000 mm 0,0 UV-I 0 W/m 8,8 C 9,9 C 3,2 km/h (1 Bft) 97,87 %
25.10.2017 19:18 10,0 C 10,6 C 94 % 1023,4 hPa 0,0 l/m 3,3 km/h (1 Bft) W 263 0 min 0,000 mm 0,0 UV-I 0 W/m 9,1 C 10,0 C 4,8 km/h (1 Bft) 94,00 %
25.10.2017 19:20 10,1 C 10,6 C 94 % 1023,4 hPa 0,0 l/m 2,3 km/h (1 Bft) W 263 0 min 0,000 mm 0,0 UV-I 0 W/m 9,2 C 10,1 C 3,2 km/h (1 Bft) 98,00 %
25.10.2017 19:22 10,1 C 10,6 C 94 % 1023,4 hPa 0,0 l/m 1,8 km/h (1 Bft) W 263 0 min 0,000 mm 0,0 UV-I 0 W/m 9,2 C 10,1 C 3,2 km/h (1 Bft) 100,00 %
25.10.2017 19:24 10,1 C 10,6 C 94 % 1023,5 hPa 0,0 l/m 2,6 km/h (1 Bft) W 263 0 min 0,000 mm 0,0 UV-I 0 W/m 9,2 C 10,1 C 3,2 km/h (1 Bft) 100,00 %
25.10.2017 19:26 10,2 C 10,6 C 94 % 1023,6 hPa 0,0 l/m 1,2 km/h (1 Bft) W 263 0 min 0,000 mm 0,0 UV-I 0 W/m 9,3 C 10,2 C 3,2 km/h (1 Bft) 97,87 %
25.10.2017 19:28 10,2 C 10,6 C 94 % 1023,7 hPa 0,0 l/m 0,1 km/h (0 Bft) W 263 0 min 0,000 mm 0,0 UV-I 0 W/m 9,3 C 10,2 C 1,6 km/h (1 Bft) 97,87 %
25.10.2017 19:30 10,2 C 10,6 C 94 % 1023,7 hPa 0,0 l/m 0,0 km/h (0 Bft) W 263 0 min 0,000 mm 0,0 UV-I 0 W/m 9,3 C 10,2 C 0,0 km/h (0 Bft) 98,00 %
25.10.2017 19:32 10,2 C 10,6 C 94 % 1023,7 hPa 0,0 l/m 0,0 km/h (0 Bft) W 263 0 min 0,000 mm 0,0 UV-I 0 W/m 9,3 C 10,2 C 0,0 km/h (0 Bft) 97,87 %
25.10.2017 19:34 10,3 C 10,6 C 94 % 1023,7 hPa 0,0 l/m 0,0 km/h (0 Bft) W 263 0 min 0,000 mm 0,0 UV-I 0 W/m 9,4 C 10,3 C 0,0 km/h (0 Bft) 100,00 %
25.10.2017 19:36 10,2 C 10,6 C 94 % 1023,7 hPa 0,0 l/m 0,1 km/h (0 Bft) W 263 0 min 0,000 mm 0,0 UV-I 0 W/m 9,3 C 10,2 C 1,6 km/h (1 Bft) 97,37 %
25.10.2017 19:38 10,1 C 10,6 C 94 % 1023,7 hPa 0,0 l/m 0,1 km/h (0 Bft) W 263 0 min 0,000 mm 0,0 UV-I 0 W/m 9,2 C 10,1 C 1,6 km/h (1 Bft) 100,00 %
25.10.2017 19:40 10,0 C 10,6 C 93 % 1023,8 hPa 0,0 l/m 0,0 km/h (0 Bft) W 263 0 min 0,000 mm 0,0 UV-I 0 W/m 8,9 C 10,0 C 1,6 km/h (1 Bft) 100,00 %
25.10.2017 19:42 10,1 C 10,6 C 94 % 1023,7 hPa 0,0 l/m 0,3 km/h (0 Bft) W 262 0 min 0,000 mm 0,0 UV-I 0 W/m 9,2 C 10,1 C 1,6 km/h (1 Bft) 100,00 %
25.10.2017 19:44 10,1 C 10,6 C 94 % 1023,7 hPa 0,0 l/m 0,8 km/h (0 Bft) W 261 0 min 0,000 mm 0,0 UV-I 0 W/m 9,2 C 10,1 C 3,2 km/h (1 Bft) 100,00 %
25.10.2017 19:46 10,2 C 10,6 C 94 % 1023,6 hPa 0,0 l/m 1,3 km/h (1 Bft) W 259 0 min 0,000 mm 0,0 UV-I 0 W/m 9,3 C 10,2 C 1,6 km/h (1 Bft) 100,00 %
25.10.2017 19:48 10,1 C 10,6 C 94 % 1023,6 hPa 0,0 l/m 2,2 km/h (1 Bft) W-SW 254 0 min 0,000 mm 0,0 UV-I 0 W/m 9,2 C 10,1 C 3,2 km/h (1 Bft) 100,00 %
25.10.2017 19:50 10,2 C 10,6 C 94 % 1023,6 hPa 0,0 l/m 2,6 km/h (1 Bft) W-SW 254 0 min 0,000 mm 0,0 UV-I 0 W/m 9,3 C 10,2 C 4,8 km/h (1 Bft) 100,00 %
25.10.2017 19:52 10,2 C 10,6 C 94 % 1023,6 hPa 0,0 l/m 1,8 km/h (1 Bft) W-SW 254 0 min 0,000 mm 0,0 UV-I 0 W/m 9,3 C 10,2 C 3,2 km/h (1 Bft) 100,00 %
25.10.2017 19:54 10,1 C 10,6 C 94 % 1023,6 hPa 0,0 l/m 1,5 km/h (1 Bft) W-SW 254 0 min 0,000 mm 0,0 UV-I 0 W/m 9,2 C 10,1 C 3,2 km/h (1 Bft) 95,74 %
25.10.2017 19:56 10,1 C 10,6 C 94 % 1023,6 hPa 0,0 l/m 1,8 km/h (1 Bft) W-SW 254 0 min 0,000 mm 0,0 UV-I 0 W/m 9,2 C 10,1 C 3,2 km/h (1 Bft) 100,00 %
25.10.2017 19:58 9,9 C 10,6 C 93 % 1023,6 hPa 0,0 l/m 2,6 km/h (1 Bft) W-SW 254 0 min 0,000 mm 0,0 UV-I 0 W/m 8,8 C 9,9 C 3,2 km/h (1 Bft) 100,00 %
25.10.2017 20:00 9,8 C 10,6 C 93 % 1023,6 hPa 0,0 l/m 1,8 km/h (1 Bft) W-SW 254 0 min 0,000 mm 0,0 UV-I 0 W/m 8,7 C 9,8 C 3,2 km/h (1 Bft) 97,37 %
25.10.2017 20:02 9,7 C 10,6 C 94 % 1023,5 hPa 0,0 l/m 0,7 km/h (0 Bft) W-SW 254 0 min 0,000 mm 0,0 UV-I 0 W/m 8,8 C 9,7 C 3,2 km/h (1 Bft) 96,00 %
25.10.2017 20:04 9,7 C 10,6 C 94 % 1023,5 hPa 0,0 l/m 0,5 km/h (0 Bft) W-SW 254 0 min 0,000 mm 0,0 UV-I 0 W/m 8,8 C 9,7 C 1,6 km/h (1 Bft) 98,00 %
25.10.2017 20:06 9,7 C 10,6 C 94 % 1023,6 hPa 0,0 l/m 2,7 km/h (1 Bft) W-SW 254 0 min 0,000 mm 0,0 UV-I 0 W/m 8,8 C 9,7 C 3,2 km/h (1 Bft) 97,87 %
25.10.2017 20:08 9,8 C 10,6 C 94 % 1023,6 hPa 0,0 l/m 2,3 km/h (1 Bft) W-SW 254 0 min 0,000 mm 0,0 UV-I 0 W/m 8,9 C 9,8 C 3,2 km/h (1 Bft) 97,87 %
25.10.2017 20:10 9,8 C 10,6 C 94 % 1023,7 hPa 0,0 l/m 2,9 km/h (1 Bft) W-SW 254 0 min 0,000 mm 0,0 UV-I 0 W/m 8,9 C 9,8 C 4,8 km/h (1 Bft) 97,56 %
25.10.2017 20:12 9,8 C 10,6 C 94 % 1023,7 hPa 0,0 l/m 3,1 km/h (1 Bft) W-SW 254 0 min 0,000 mm 0,0 UV-I 0 W/m 8,9 C 9,8 C 4,8 km/h (1 Bft) 97,87 %
25.10.2017 20:14 9,7 C 10,6 C 93 % 1023,7 hPa 0,0 l/m 3,2 km/h (1 Bft) W-SW 254 0 min 0,000 mm 0,0 UV-I 0 W/m 8,6 C 9,7 C 4,8 km/h (1 Bft) 94,00 %
25.10.2017 20:16 9,6 C 10,6 C 94 % 1023,7 hPa 0,0 l/m 2,7 km/h (1 Bft) W-SW 254 0 min 0,000 mm 0,0 UV-I 0 W/m 8,7 C 9,6 C 3,2 km/h (1 Bft) 98,00 %
25.10.2017 20:18 9,5 C 10,6 C 94 % 1023,7 hPa 0,0 l/m 3,0 km/h (1 Bft) W-SW 254 0 min 0,000 mm 0,0 UV-I 0 W/m 8,6 C 9,5 C 4,8 km/h (1 Bft) 97,44 %
25.10.2017 20:20 9,4 C 10,6 C 94 % 1023,7 hPa 0,0 l/m 3,3 km/h (1 Bft) W-SW 254 0 min 0,000 mm 0,0 UV-I 0 W/m 8,5 C 9,4 C 4,8 km/h (1 Bft) 98,11 %
25.10.2017 20:22 9,3 C 10,6 C 94 % 1023,7 hPa 0,0 l/m 3,3 km/h (1 Bft) W-SW 254 0 min 0,000 mm 0,0 UV-I 0 W/m 8,4 C 9,3 C 4,8 km/h (1 Bft) 95,74 %
25.10.2017 20:24 9,4 C 10,6 C 94 % 1023,7 hPa 0,0 l/m 3,4 km/h (1 Bft) W-SW 254 0 min 0,000 mm 0,0 UV-I 0 W/m 8,5 C 9,4 C 4,8 km/h (1 Bft) 98,00 %
25.10.2017 20:26 9,4 C 10,6 C 94 % 1023,7 hPa 0,0 l/m 3,3 km/h (1 Bft) W-SW 254 0 min 0,000 mm 0,0 UV-I 0 W/m 8,5 C 9,4 C 4,8 km/h (1 Bft) 94,29 %
25.10.2017 20:28 9,5 C 10,6 C 94 % 1023,7 hPa 0,0 l/m 3,3 km/h (1 Bft) W-SW 254 0 min 0,000 mm 0,0 UV-I 0 W/m 8,6 C 9,5 C 4,8 km/h (1 Bft) 98,11 %
25.10.2017 20:30 9,6 C 10,6 C 95 % 1023,7 hPa 0,0 l/m 2,2 km/h (1 Bft) W-SW 254 0 min 0,000 mm 0,0 UV-I 0 W/m 8,8 C 9,6 C 3,2 km/h (1 Bft) 94,34 %
25.10.2017 20:32 9,6 C 10,6 C 95 % 1023,8 hPa 0,0 l/m 1,4 km/h (1 Bft) W-SW 254 0 min 0,000 mm 0,0 UV-I 0 W/m 8,8 C 9,6 C 3,2 km/h (1 Bft) 100,00 %
25.10.2017 20:34 9,6 C 10,6 C 94 % 1023,8 hPa 0,0 l/m 1,9 km/h (1 Bft) W-SW 254 0 min 0,000 mm 0,0 UV-I 0 W/m 8,7 C 9,6 C 3,2 km/h (1 Bft) 92,11 %
25.10.2017 20:36 9,5 C 10,6 C 94 % 1023,8 hPa 0,0 l/m 1,2 km/h (1 Bft) W-SW 254 0 min 0,000 mm 0,0 UV-I 0 W/m 8,6 C 9,5 C 1,6 km/h (1 Bft) 96,23 %
25.10.2017 20:38 9,5 C 10,6 C 95 % 1023,8 hPa 0,0 l/m 2,1 km/h (1 Bft) W-SW 254 0 min 0,000 mm 0,0 UV-I 0 W/m 8,7 C 9,5 C 3,2 km/h (1 Bft) 97,87 %
25.10.2017 20:40 9,4 C 10,6 C 94 % 1023,8 hPa 0,0 l/m 2,3 km/h (1 Bft) W-SW 254 0 min 0,000 mm 0,0 UV-I 0 W/m 8,5 C 9,4 C 3,2 km/h (1 Bft) 98,00 %
25.10.2017 20:42 9,3 C 10,6 C 94 % 1023,8 hPa 0,0 l/m 1,1 km/h (1 Bft) W-SW 254 0 min 0,000 mm 0,0 UV-I 0 W/m 8,4 C 9,3 C 3,2 km/h (1 Bft) 100,00 %
25.10.2017 20:44 9,4 C 10,6 C 95 % 1023,7 hPa 0,0 l/m 1,5 km/h (1 Bft) W-SW 239 0 min 0,000 mm 0,0 UV-I 0 W/m 8,6 C 9,4 C 3,2 km/h (1 Bft) 100,00 %
25.10.2017 20:46 9,4 C 10,6 C 95 % 1023,7 hPa 0,0 l/m 1,1 km/h (1 Bft) W-SW 239 0 min 0,000 mm 0,0 UV-I 0 W/m 8,6 C 9,4 C 3,2 km/h (1 Bft) 96,00 %
25.10.2017 20:48 9,4 C 10,6 C 95 % 1023,7 hPa 0,0 l/m 1,1 km/h (1 Bft) SW 236 0 min 0,000 mm 0,0 UV-I 0 W/m 8,6 C 9,4 C 1,6 km/h (1 Bft) 100,00 %
25.10.2017 20:50 9,5 C 10,6 C 95 % 1023,7 hPa 0,0 l/m 1,0 km/h (0 Bft) SW 236 0 min 0,000 mm 0,0 UV-I 0 W/m 8,7 C 9,5 C 1,6 km/h (1 Bft) 100,00 %
25.10.2017 20:52 9,6 C 10,6 C 95 % 1023,7 hPa 0,0 l/m 1,1 km/h (1 Bft) SW 236 0 min 0,000 mm 0,0 UV-I 0 W/m 8,8 C 9,6 C 3,2 km/h (1 Bft) 100,00 %
25.10.2017 20:54 9,7 C 10,6 C 95 % 1023,7 hPa 0,0 l/m 1,0 km/h (0 Bft) SW 236 0 min 0,000 mm 0,0 UV-I 0 W/m 8,9 C 9,7 C 3,2 km/h (1 Bft) 100,00 %
25.10.2017 20:56 9,8 C 10,6 C 96 % 1023,7 hPa 0,0 l/m 0,4 km/h (0 Bft) SW 236 0 min 0,000 mm 0,0 UV-I 0 W/m 9,2 C 9,8 C 1,6 km/h (1 Bft) 97,87 %
25.10.2017 20:58 9,8 C 10,6 C 95 % 1023,7 hPa 0,0 l/m 1,4 km/h (1 Bft) SW 232 0 min 0,000 mm 0,0 UV-I 0 W/m 9,0 C 9,8 C 3,2 km/h (1 Bft) 100,00 %
25.10.2017 21:00 9,8 C 10,6 C 95 % 1023,8 hPa 0,0 l/m 2,0 km/h (1 Bft) S-SW 199 0 min 0,000 mm 0,0 UV-I 0 W/m 9,0 C 9,8 C 3,2 km/h (1 Bft) 100,00 %
25.10.2017 21:02 9,8 C 10,6 C 95 % 1023,8 hPa 0,0 l/m 1,8 km/h (1 Bft) S 191 0 min 0,000 mm 0,0 UV-I 0 W/m 9,0 C 9,8 C 3,2 km/h (1 Bft) 100,00 %
25.10.2017 21:04 9,7 C 10,6 C 95 % 1023,8 hPa 0,0 l/m 1,2 km/h (1 Bft) S 191 0 min 0,000 mm 0,0 UV-I 0 W/m 8,9 C 9,7 C 3,2 km/h (1 Bft) 100,00 %
25.10.2017 21:06 9,6 C 10,6 C 95 % 1023,8 hPa 0,0 l/m 2,8 km/h (1 Bft) S 191 0 min 0,000 mm 0,0 UV-I 0 W/m 8,8 C 9,6 C 4,8 km/h (1 Bft) 100,00 %
25.10.2017 21:08 9,6 C 10,6 C 95 % 1023,8 hPa 0,0 l/m 3,0 km/h (1 Bft) S 191 0 min 0,000 mm 0,0 UV-I 0 W/m 8,8 C 9,6 C 4,8 km/h (1 Bft) 100,00 %
25.10.2017 21:10 9,4 C 10,6 C 94 % 1023,9 hPa 0,0 l/m 2,9 km/h (1 Bft) S 191 0 min 0,000 mm 0,0 UV-I 0 W/m 8,5 C 9,4 C 4,8 km/h (1 Bft) 100,00 %
25.10.2017 21:12 9,3 C 10,6 C 95 % 1023,8 hPa 0,0 l/m 3,5 km/h (1 Bft) S 191 0 min 0,000 mm 0,0 UV-I 0 W/m 8,5 C 9,3 C 4,8 km/h (1 Bft) 100,00 %
25.10.2017 21:14 9,3 C 10,6 C 95 % 1023,8 hPa 0,0 l/m 3,3 km/h (1 Bft) S 191 0 min 0,000 mm 0,0 UV-I 0 W/m 8,5 C 9,3 C 4,8 km/h (1 Bft) 100,00 %
25.10.2017 21:16 9,2 C 10,6 C 95 % 1023,9 hPa 0,0 l/m 3,3 km/h (1 Bft) S-SW 192 0 min 0,000 mm 0,0 UV-I 0 W/m 8,4 C 9,2 C 4,8 km/h (1 Bft) 100,00 %
25.10.2017 21:18 9,2 C 10,6 C 95 % 1023,9 hPa 0,0 l/m 4,3 km/h (1 Bft) S-SW 192 0 min 0,000 mm 0,0 UV-I 0 W/m 8,4 C 9,2 C 4,8 km/h (1 Bft) 100,00 %
25.10.2017 21:20 9,2 C 10,6 C 95 % 1023,8 hPa 0,0 l/m 4,9 km/h (1 Bft) S-SW 192 0 min 0,000 mm 0,0 UV-I 0 W/m 8,4 C 9,2 C 6,4 km/h (2 Bft) 97,73 %
25.10.2017 21:22 9,2 C 10,6 C 95 % 1023,9 hPa 0,0 l/m 4,5 km/h (1 Bft) S-SW 192 0 min 0,000 mm 0,0 UV-I 0 W/m 8,4 C 9,2 C 4,8 km/h (1 Bft) 97,87 %
25.10.2017 21:24 9,2 C 10,6 C 95 % 1023,8 hPa 0,0 l/m 4,6 km/h (1 Bft) S-SW 192 0 min 0,000 mm 0,0 UV-I 0 W/m 8,4 C 9,2 C 6,4 km/h (2 Bft) 100,00 %
25.10.2017 21:26 9,2 C 10,6 C 95 % 1023,9 hPa 0,0 l/m 4,2 km/h (1 Bft) S-SW 192 0 min 0,000 mm 0,0 UV-I 0 W/m 8,4 C 9,2 C 6,4 km/h (2 Bft) 100,00 %
25.10.2017 21:28 9,2 C 10,6 C 95 % 1023,8 hPa 0,0 l/m 3,5 km/h (1 Bft) S-SW 192 0 min 0,000 mm 0,0 UV-I 0 W/m 8,4 C 9,2 C 4,8 km/h (1 Bft) 100,00 %
25.10.2017 21:30 9,1 C 10,6 C 95 % 1023,8 hPa 0,0 l/m 4,3 km/h (1 Bft) S-SW 192 0 min 0,000 mm 0,0 UV-I 0 W/m 8,3 C 9,1 C 6,4 km/h (2 Bft) 100,00 %
25.10.2017 21:32 9,1 C 10,6 C 95 % 1023,8 hPa 0,0 l/m 4,9 km/h (1 Bft) S-SW 192 0 min 0,000 mm 0,0 UV-I 0 W/m 8,3 C 9,1 C 6,4 km/h (2 Bft) 100,00 %
25.10.2017 21:34 9,2 C 10,6 C 96 % 1023,8 hPa 0,0 l/m 4,1 km/h (1 Bft) S-SW 192 0 min 0,000 mm 0,0 UV-I 0 W/m 8,6 C 9,2 C 6,4 km/h (2 Bft) 97,87 %
25.10.2017 21:36 9,2 C 10,6 C 96 % 1023,8 hPa 0,0 l/m 3,4 km/h (1 Bft) S 190 0 min 0,000 mm 0,0 UV-I 0 W/m 8,6 C 9,2 C 4,8 km/h (1 Bft) 98,00 %
25.10.2017 21:38 9,2 C 10,6 C 95 % 1023,8 hPa 0,0 l/m 4,0 km/h (1 Bft) S 190 0 min 0,000 mm 0,0 UV-I 0 W/m 8,4 C 9,2 C 4,8 km/h (1 Bft) 100,00 %
25.10.2017 21:40 9,1 C 10,6 C 95 % 1023,7 hPa 0,0 l/m 3,5 km/h (1 Bft) S 190 0 min 0,000 mm 0,0 UV-I 0 W/m 8,3 C 9,1 C 4,8 km/h (1 Bft) 100,00 %
25.10.2017 21:42 9,1 C 10,6 C 95 % 1023,7 hPa 0,0 l/m 3,1 km/h (1 Bft) S 190 0 min 0,000 mm 0,0 UV-I 0 W/m 8,3 C 9,1 C 4,8 km/h (1 Bft) 97,87 %
25.10.2017 21:44 9,0 C 10,6 C 95 % 1023,7 hPa 0,0 l/m 2,3 km/h (1 Bft) S 190 0 min 0,000 mm 0,0 UV-I 0 W/m 8,2 C 9,0 C 3,2 km/h (1 Bft) 100,00 %
25.10.2017 21:46 8,9 C 10,6 C 95 % 1023,7 hPa 0,0 l/m 1,9 km/h (1 Bft) S 190 0 min 0,000 mm 0,0 UV-I 0 W/m 8,1 C 8,9 C 3,2 km/h (1 Bft) 100,00 %
25.10.2017 21:48 8,9 C 10,6 C 95 % 1023,8 hPa 0,0 l/m 0,5 km/h (0 Bft) S 190 0 min 0,000 mm 0,0 UV-I 0 W/m 8,1 C 8,9 C 1,6 km/h (1 Bft) 100,00 %
25.10.2017 21:50 8,9 C 10,6 C 95 % 1023,8 hPa 0,0 l/m 0,3 km/h (0 Bft) S 190 0 min 0,000 mm 0,0 UV-I 0 W/m 8,1 C 8,9 C 1,6 km/h (1 Bft) 100,00 %
25.10.2017 21:52 8,9 C 10,6 C 96 % 1023,9 hPa 0,0 l/m 1,2 km/h (1 Bft) S 190 0 min 0,000 mm 0,0 UV-I 0 W/m 8,3 C 8,9 C 3,2 km/h (1 Bft) 100,00 %
25.10.2017 21:54 9,1 C 10,6 C 96 % 1023,9 hPa 0,0 l/m 3,0 km/h (1 Bft) S 190 0 min 0,000 mm 0,0 UV-I 0 W/m 8,5 C 9,1 C 4,8 km/h (1 Bft) 100,00 %
25.10.2017 21:56 9,2 C 10,6 C 96 % 1023,9 hPa 0,0 l/m 2,0 km/h (1 Bft) S 190 0 min 0,000 mm 0,0 UV-I 0 W/m 8,6 C 9,2 C 3,2 km/h (1 Bft) 100,00 %
25.10.2017 21:58 9,2 C 10,6 C 96 % 1023,9 hPa 0,0 l/m 2,1 km/h (1 Bft) S 190 0 min 0,000 mm 0,0 UV-I 0 W/m 8,6 C 9,2 C 3,2 km/h (1 Bft) 100,00 %
25.10.2017 22:00 9,3 C 10,6 C 96 % 1024,0 hPa 0,0 l/m 1,8 km/h (1 Bft) S 190 0 min 0,000 mm 0,0 UV-I 0 W/m 8,7 C 9,3 C 3,2 km/h (1 Bft) 96,00 %
25.10.2017 22:02 9,2 C 10,6 C 96 % 1024,0 hPa 0,0 l/m 0,7 km/h (0 Bft) S 190 0 min 0,000 mm 0,0 UV-I 0 W/m 8,6 C 9,2 C 1,6 km/h (1 Bft) 97,56 %
25.10.2017 22:04 9,1 C 10,6 C 96 % 1024,0 hPa 0,0 l/m 0,0 km/h (0 Bft) S 190 0 min 0,000 mm 0,0 UV-I 0 W/m 8,5 C 9,1 C 0,0 km/h (0 Bft) 97,73 %
25.10.2017 22:06 9,1 C 10,6 C 96 % 1024,0 hPa 0,0 l/m 1,2 km/h (1 Bft) S 190 0 min 0,000 mm 0,0 UV-I 0 W/m 8,5 C 9,1 C 3,2 km/h (1 Bft) 97,87 %
25.10.2017 22:08 9,1 C 10,6 C 96 % 1024,1 hPa 0,0 l/m 0,3 km/h (0 Bft) S 190 0 min 0,000 mm 0,0 UV-I 0 W/m 8,5 C 9,1 C 1,6 km/h (1 Bft) 98,00 %
25.10.2017 22:10 9,1 C 10,6 C 95 % 1024,1 hPa 0,0 l/m 0,0 km/h (0 Bft) S 190 0 min 0,000 mm 0,0 UV-I 0 W/m 8,3 C 9,1 C 0,0 km/h (0 Bft) 97,87 %
25.10.2017 22:12 9,0 C 10,6 C 95 % 1024,2 hPa 0,0 l/m 0,1 km/h (0 Bft) S 190 0 min 0,000 mm 0,0 UV-I 0 W/m 8,2 C 9,0 C 1,6 km/h (1 Bft) 95,74 %
25.10.2017 22:14 9,1 C 10,6 C 96 % 1024,1 hPa 0,0 l/m 0,8 km/h (0 Bft) S 190 0 min 0,000 mm 0,0 UV-I 0 W/m 8,5 C 9,1 C 1,6 km/h (1 Bft) 100,00 %
25.10.2017 22:16 9,1 C 10,6 C 96 % 1024,2 hPa 0,0 l/m 0,2 km/h (0 Bft) S 190 0 min 0,000 mm 0,0 UV-I 0 W/m 8,5 C 9,1 C 1,6 km/h (1 Bft) 96,36 %
25.10.2017 22:18 9,1 C 10,6 C 96 % 1024,2 hPa 0,0 l/m 0,0 km/h (0 Bft) S 190 0 min 0,000 mm 0,0 UV-I 0 W/m 8,5 C 9,1 C 0,0 km/h (0 Bft) 97,44 %
25.10.2017 22:20 9,1 C 10,6 C 96 % 1024,2 hPa 0,0 l/m 0,0 km/h (0 Bft) S 190 0 min 0,000 mm 0,0 UV-I 0 W/m 8,5 C 9,1 C 0,0 km/h (0 Bft) 94,34 %
25.10.2017 22:22 9,1 C 10,6 C 96 % 1024,2 hPa 0,0 l/m 0,0 km/h (0 Bft) S 190 0 min 0,000 mm 0,0 UV-I 0 W/m 8,5 C 9,1 C 0,0 km/h (0 Bft) 96,00 %
25.10.2017 22:24 8,9 C 10,6 C 96 % 1024,2 hPa 0,0 l/m 0,0 km/h (0 Bft) S 190 0 min 0,000 mm 0,0 UV-I 0 W/m 8,3 C 8,9 C 0,0 km/h (0 Bft) 94,74 %
25.10.2017 22:26 8,8 C 10,6 C 96 % 1024,2 hPa 0,0 l/m 0,0 km/h (0 Bft) S 190 0 min 0,000 mm 0,0 UV-I 0 W/m 8,2 C 8,8 C 0,0 km/h (0 Bft) 96,00 %
25.10.2017 22:28 8,8 C 10,6 C 96 % 1024,3 hPa 0,0 l/m 0,0 km/h (0 Bft) S 190 0 min 0,000 mm 0,0 UV-I 0 W/m 8,2 C 8,8 C 0,0 km/h (0 Bft) 96,00 %
25.10.2017 22:30 8,7 C 10,6 C 95 % 1024,3 hPa 0,0 l/m 0,0 km/h (0 Bft) S 190 0 min 0,000 mm 0,0 UV-I 0 W/m 7,9 C 8,7 C 0,0 km/h (0 Bft) 96,00 %
25.10.2017 22:32 8,6 C 10,6 C 95 % 1024,3 hPa 0,0 l/m 0,0 km/h (0 Bft) S 190 0 min 0,000 mm 0,0 UV-I 0 W/m 7,8 C 8,6 C 0,0 km/h (0 Bft) 95,45 %
25.10.2017 22:34 8,5 C 10,6 C 96 % 1024,3 hPa 0,0 l/m 0,0 km/h (0 Bft) S 190 0 min 0,000 mm 0,0 UV-I 0 W/m 7,9 C 8,5 C 0,0 km/h (0 Bft) 90,38 %
25.10.2017 22:36 8,4 C 10,6 C 96 % 1024,4 hPa 0,0 l/m 0,0 km/h (0 Bft) S 190 0 min 0,000 mm 0,0 UV-I 0 W/m 7,8 C 8,4 C 1,6 km/h (1 Bft) 95,74 %
25.10.2017 22:38 8,3 C 10,6 C 95 % 1024,4 hPa 0,0 l/m 0,0 km/h (0 Bft) S 190 0 min 0,000 mm 0,0 UV-I 0 W/m 7,5 C 8,3 C 0,0 km/h (0 Bft) 95,12 %
25.10.2017 22:40 8,2 C 10,6 C 95 % 1024,4 hPa 0,0 l/m 0,0 km/h (0 Bft) S 190 0 min 0,000 mm 0,0 UV-I 0 W/m 7,4 C 8,2 C 0,0 km/h (0 Bft) 95,74 %
25.10.2017 22:42 8,2 C 10,6 C 96 % 1024,4 hPa 0,0 l/m 0,1 km/h (0 Bft) S 190 0 min 0,000 mm 0,0 UV-I 0 W/m 7,6 C 8,2 C 1,6 km/h (1 Bft) 96,23 %
25.10.2017 22:44 8,3 C 10,6 C 96 % 1024,4 hPa 0,0 l/m 0,3 km/h (0 Bft) S 190 0 min 0,000 mm 0,0 UV-I 0 W/m 7,7 C 8,3 C 1,6 km/h (1 Bft) 94,74 %
25.10.2017 22:46 8,3 C 10,6 C 96 % 1024,5 hPa 0,0 l/m 0,0 km/h (0 Bft) S 190 0 min 0,000 mm 0,0 UV-I 0 W/m 7,7 C 8,3 C 1,6 km/h (1 Bft) 96,00 %
25.10.2017 22:48 8,3 C 10,6 C 96 % 1024,4 hPa 0,0 l/m 0,0 km/h (0 Bft) S 190 0 min 0,000 mm 0,0 UV-I 0 W/m 7,7 C 8,3 C 0,0 km/h (0 Bft) 96,00 %
25.10.2017 22:50 8,2 C 10,6 C 96 % 1024,5 hPa 0,0 l/m 0,0 km/h (0 Bft) S 190 0 min 0,000 mm 0,0 UV-I 0 W/m 7,6 C 8,2 C 0,0 km/h (0 Bft) 91,49 %
25.10.2017 22:52 8,2 C 10,6 C 96 % 1024,5 hPa 0,0 l/m 0,0 km/h (0 Bft) S 190 0 min 0,000 mm 0,0 UV-I 0 W/m 7,6 C 8,2 C 1,6 km/h (1 Bft) 94,87 %
25.10.2017 22:54 8,3 C 10,6 C 96 % 1024,6 hPa 0,0 l/m 0,0 km/h (0 Bft) S 190 0 min 0,000 mm 0,0 UV-I 0 W/m 7,7 C 8,3 C 1,6 km/h (1 Bft) 95,74 %
25.10.2017 22:56 8,3 C 10,6 C 96 % 1024,6 hPa 0,0 l/m 0,0 km/h (0 Bft) S 190 0 min 0,000 mm 0,0 UV-I 0 W/m 7,7 C 8,3 C 0,0 km/h (0 Bft) 96,00 %
25.10.2017 22:58 8,3 C 10,6 C 96 % 1024,5 hPa 0,0 l/m 0,5 km/h (0 Bft) S 190 0 min 0,000 mm 0,0 UV-I 0 W/m 7,7 C 8,3 C 1,6 km/h (1 Bft) 93,62 %
25.10.2017 23:00 8,3 C 10,6 C 96 % 1024,5 hPa 0,0 l/m 0,7 km/h (0 Bft) S 190 0 min 0,000 mm 0,0 UV-I 0 W/m 7,7 C 8,3 C 1,6 km/h (1 Bft) 95,45 %
25.10.2017 23:02 8,4 C 10,6 C 96 % 1024,5 hPa 0,0 l/m 0,1 km/h (0 Bft) S 190 0 min 0,000 mm 0,0 UV-I 0 W/m 7,8 C 8,4 C 1,6 km/h (1 Bft) 100,00 %
25.10.2017 23:04 8,4 C 10,6 C 96 % 1024,5 hPa 0,0 l/m 0,0 km/h (0 Bft) S 190 0 min 0,000 mm 0,0 UV-I 0 W/m 7,8 C 8,4 C 0,0 km/h (0 Bft) 100,00 %
25.10.2017 23:06 8,3 C 10,6 C 96 % 1024,5 hPa 0,0 l/m 1,1 km/h (1 Bft) S 190 0 min 0,000 mm 0,0 UV-I 0 W/m 7,7 C 8,3 C 3,2 km/h (1 Bft) 97,87 %
25.10.2017 23:08 8,3 C 10,6 C 96 % 1024,6 hPa 0,0 l/m 0,8 km/h (0 Bft) S 190 0 min 0,000 mm 0,0 UV-I 0 W/m 7,7 C 8,3 C 1,6 km/h (1 Bft) 97,56 %
25.10.2017 23:10 8,2 C 10,6 C 96 % 1024,6 hPa 0,0 l/m 0,2 km/h (0 Bft) S 190 0 min 0,000 mm 0,0 UV-I 0 W/m 7,6 C 8,2 C 1,6 km/h (1 Bft) 98,00 %
25.10.2017 23:12 8,2 C 10,6 C 96 % 1024,6 hPa 0,0 l/m 0,3 km/h (0 Bft) S 190 0 min 0,000 mm 0,0 UV-I 0 W/m 7,6 C 8,2 C 1,6 km/h (1 Bft) 100,00 %
25.10.2017 23:14 8,2 C 10,6 C 96 % 1024,6 hPa 0,0 l/m 0,1 km/h (0 Bft) S 190 0 min 0,000 mm 0,0 UV-I 0 W/m 7,6 C 8,2 C 1,6 km/h (1 Bft) 100,00 %
25.10.2017 23:16 8,1 C 10,6 C 96 % 1024,6 hPa 0,0 l/m 0,7 km/h (0 Bft) S 190 0 min 0,000 mm 0,0 UV-I 0 W/m 7,5 C 8,1 C 3,2 km/h (1 Bft) 97,87 %
25.10.2017 23:18 8,0 C 10,6 C 96 % 1024,6 hPa 0,0 l/m 2,0 km/h (1 Bft) S 190 0 min 0,000 mm 0,0 UV-I 0 W/m 7,4 C 8,0 C 3,2 km/h (1 Bft) 100,00 %
25.10.2017 23:20 7,9 C 10,6 C 96 % 1024,6 hPa 0,0 l/m 1,8 km/h (1 Bft) S 190 0 min 0,000 mm 0,0 UV-I 0 W/m 7,3 C 7,9 C 3,2 km/h (1 Bft) 100,00 %
25.10.2017 23:22 7,9 C 10,6 C 96 % 1024,6 hPa 0,0 l/m 2,0 km/h (1 Bft) S 190 0 min 0,000 mm 0,0 UV-I 0 W/m 7,3 C 7,9 C 4,8 km/h (1 Bft) 97,87 %
25.10.2017 23:24 7,9 C 10,6 C 96 % 1024,7 hPa 0,0 l/m 1,6 km/h (1 Bft) S 190 0 min 0,000 mm 0,0 UV-I 0 W/m 7,3 C 7,9 C 4,8 km/h (1 Bft) 100,00 %
25.10.2017 23:26 7,9 C 10,6 C 96 % 1024,7 hPa 0,0 l/m 2,2 km/h (1 Bft) S 190 0 min 0,000 mm 0,0 UV-I 0 W/m 7,3 C 7,9 C 3,2 km/h (1 Bft) 98,00 %
25.10.2017 23:28 7,9 C 10,6 C 96 % 1024,7 hPa 0,0 l/m 2,4 km/h (1 Bft) S 190 0 min 0,000 mm 0,0 UV-I 0 W/m 7,3 C 7,9 C 3,2 km/h (1 Bft) 100,00 %
25.10.2017 23:30 7,9 C 10,6 C 96 % 1024,7 hPa 0,0 l/m 2,2 km/h (1 Bft) S 190 0 min 0,000 mm 0,0 UV-I 0 W/m 7,3 C 7,9 C 3,2 km/h (1 Bft) 100,00 %
25.10.2017 23:32 7,8 C 10,6 C 96 % 1024,7 hPa 0,0 l/m 1,7 km/h (1 Bft) S 190 0 min 0,000 mm 0,0 UV-I 0 W/m 7,2 C 7,8 C 3,2 km/h (1 Bft) 98,00 %
25.10.2017 23:34 7,8 C 10,6 C 96 % 1024,7 hPa 0,0 l/m 2,8 km/h (1 Bft) S 190 0 min 0,000 mm 0,0 UV-I 0 W/m 7,2 C 7,8 C 4,8 km/h (1 Bft) 97,87 %
25.10.2017 23:36 7,8 C 10,6 C 96 % 1024,7 hPa 0,0 l/m 1,7 km/h (1 Bft) S 190 0 min 0,000 mm 0,0 UV-I 0 W/m 7,2 C 7,8 C 3,2 km/h (1 Bft) 100,00 %
25.10.2017 23:38 7,8 C 10,6 C 96 % 1024,7 hPa 0,0 l/m 2,5 km/h (1 Bft) S 190 0 min 0,000 mm 0,0 UV-I 0 W/m 7,2 C 7,8 C 4,8 km/h (1 Bft) 97,87 %
25.10.2017 23:40 7,7 C 10,6 C 96 % 1024,8 hPa 0,0 l/m 3,2 km/h (1 Bft) S 190 0 min 0,000 mm 0,0 UV-I 0 W/m 7,1 C 7,7 C 4,8 km/h (1 Bft) 100,00 %
25.10.2017 23:42 7,7 C 10,6 C 96 % 1024,7 hPa 0,0 l/m 2,7 km/h (1 Bft) S 190 0 min 0,000 mm 0,0 UV-I 0 W/m 7,1 C 7,7 C 3,2 km/h (1 Bft) 100,00 %
25.10.2017 23:44 7,8 C 10,6 C 97 % 1024,8 hPa 0,0 l/m 1,9 km/h (1 Bft) S 190 0 min 0,000 mm 0,0 UV-I 0 W/m 7,4 C 7,8 C 3,2 km/h (1 Bft) 100,00 %
25.10.2017 23:46 7,8 C 10,6 C 97 % 1024,8 hPa 0,0 l/m 2,0 km/h (1 Bft) S 190 0 min 0,000 mm 0,0 UV-I 0 W/m 7,4 C 7,8 C 4,8 km/h (1 Bft) 100,00 %
25.10.2017 23:48 7,9 C 10,6 C 97 % 1024,9 hPa 0,0 l/m 2,7 km/h (1 Bft) S 190 0 min 0,000 mm 0,0 UV-I 0 W/m 7,5 C 7,9 C 4,8 km/h (1 Bft) 100,00 %
25.10.2017 23:50 8,0 C 10,6 C 97 % 1024,9 hPa 0,0 l/m 3,2 km/h (1 Bft) S 190 0 min 0,000 mm 0,0 UV-I 0 W/m 7,6 C 8,0 C 4,8 km/h (1 Bft) 100,00 %
25.10.2017 23:52 8,0 C 10,6 C 97 % 1024,9 hPa 0,0 l/m 2,6 km/h (1 Bft) S 190 0 min 0,000 mm 0,0 UV-I 0 W/m 7,6 C 8,0 C 4,8 km/h (1 Bft) 97,87 %
25.10.2017 23:54 8,0 C 10,6 C 97 % 1024,9 hPa 0,0 l/m 4,0 km/h (1 Bft) S 189 0 min 0,000 mm 0,0 UV-I 0 W/m 7,6 C 8,0 C 6,4 km/h (2 Bft) 97,37 %
25.10.2017 23:56 8,1 C 10,6 C 97 % 1024,8 hPa 0,0 l/m 2,7 km/h (1 Bft) S 186 0 min 0,000 mm 0,0 UV-I 0 W/m 7,7 C 8,1 C 4,8 km/h (1 Bft) 100,00 %
25.10.2017 23:58 8,1 C 10,6 C 97 % 1024,8 hPa 0,0 l/m 3,9 km/h (1 Bft) S 187 0 min 0,000 mm 0,0 UV-I 0 W/m 7,7 C 8,1 C 6,4 km/h (2 Bft) 100,00 %
_ Min-Zeit 23:40 00:00 14:14 17:32 - 03:18 - - - - - - 08:06 23:40 03:18 22:34
Minimum _ 7,7 C 10,6 C 70 % 1022,8 hPa - 0,0 km/h (0 Bft) - - - - - - 6,9 C 7,7 C 0,0 km/h (0 Bft) 90,38 %
_ Max-Zeit 14:10 00:00 23:44 00:00 00:00 14:10 - - 07:50 13:00 12:54 12:56 15:58 14:12 14:10 00:00
Maximum _ 15,5 C 10,6 C 97 % 1025,7 hPa 0,0 l/m 6,5 km/h
W (2 Bft)
- - 2 min 0,178 mm 1,7 UV-I 463 W/m 11,3 C 15,5 C 9,7 km/h
W (2 Bft)
100,00 %
Durchschnitt _ 10,8 C 10,6 C 88 % 1024,3 hPa #0,0 l/m 1,5 km/h (1 Bft) S - #5:10 h #1,016 mm 1,0 UV-I 178 W/m 8,8 C 10,8 C 3,1 km/h (1 Bft) 98,13 %